GFSNGP_850_thetae_000.txt.gz
Theta_e
312 311 312 312 312 312 312 310 311 311 309 309 309 307 308 309 308 308 308 306 304 303 302 303 302 299 298 297 296 295 295 295 294 294 293 291 291 291 290 291 292 292 289 288
315 311 309 312 310 310 311 311 310 312 311 310 309 309 308 309 309 308 308 305 303 302 302 301 299 298 297 296 295 295 295 294 294 293 291 291 291 291 291 292 292 291 289 290
304 306 305 306 308 309 309 309 309 311 310 308 308 308 309 309 309 310 308 305 303 302 301 300 298 297 296 295 295 295 294 294 293 292 291 291 291 291 292 292 291 291 290 291
303 300 304 308 307 309 311 311 310 310 309 309 310 310 311 311 311 310 308 304 301 301 300 299 297 296 295 295 295 294 294 293 292 291 292 291 290 291 291 291 291 291 291 288
303 303 304 307 311 311 312 311 309 309 308 309 310 310 310 311 310 309 307 303 302 301 299 296 295 294 294 295 294 294 293 291 292 292 292 291 290 291 291 291 291 290 288 288
297 301 301 305 308 311 311 311 310 310 308 308 308 304 309 311 310 308 304 302 300 299 297 296 295 295 295 293 293 292 291 292 292 292 291 291 290 291 290 290 289 289 289 288
295 298 303 303 310 311 312 310 311 312 311 308 306 310 311 310 309 307 304 303 299 298 296 296 296 294 292 291 290 290 290 290 291 292 291 291 289 290 290 289 289 288 287 286
299 299 306 306 310 310 311 311 312 313 313 312 312 310 308 307 306 305 304 299 299 297 297 295 293 291 290 290 290 290 289 289 290 290 291 291 289 289 288 289 288 287 286 287
304 305 306 309 310 313 312 311 312 313 313 313 311 309 308 306 305 303 299 298 297 296 295 292 290 290 290 290 289 289 289 290 290 290 291 291 288 287 287 288 287 287 287 286
307 309 308 311 311 312 312 312 313 313 313 313 312 310 307 305 299 298 297 299 296 294 292 291 290 290 289 289 289 289 289 290 289 291 291 291 288 287 287 287 287 287 286 285
306 309 311 312 313 313 314 314 313 313 314 313 311 309 306 301 300 298 301 295 293 291 291 290 290 290 289 289 289 289 289 289 289 290 290 290 289 287 287 287 286 285 284 283
307 311 310 310 312 313 313 314 314 313 313 311 310 307 300 301 298 298 294 292 291 290 290 290 290 290 290 289 289 289 289 289 290 290 289 290 289 288 288 287 285 284 284 283
311 312 313 314 314 314 314 313 313 313 312 310 306 303 300 299 297 293 292 291 290 290 290 290 290 290 290 289 289 288 289 288 288 288 290 289 289 288 287 286 285 284 283 283
313 313 313 313 313 313 313 313 312 311 308 303 298 296 299 296 293 292 291 290 290 290 290 290 290 290 289 289 288 289 288 288 288 289 289 289 289 289 288 286 285 284 283 283
314 314 313 313 313 312 312 311 307 298 297 298 298 300 297 293 292 291 290 290 290 290 290 290 290 290 289 289 288 289 289 288 288 288 287 288 288 288 287 286 285 284 283 283
312 312 312 312 309 305 304 299 299 299 298 298 299 296 293 292 291 291 290 290 290 290 290 290 290 290 289 288 288 289 289 289 288 288 287 287 287 286 286 285 284 284 283 282
310 308 306 303 301 298 299 299 299 298 298 297 295 293 292 291 291 291 290 290 290 291 291 291 290 290 290 289 289 289 288 288 288 289 287 286 286 285 285 284 283 284 283 283
306 304 301 300 299 300 299 298 297 297 295 294 292 291 290 291 291 290 290 290 291 291 291 291 291 291 290 288 288 287 288 288 288 288 288 287 286 285 285 285 284 284 284 283
303 302 300 300 299 297 298 297 295 293 291 291 290 291 291 291 291 291 291 291 291 291 291 291 291 290 288 288 287 287 287 287 287 287 288 288 286 285 285 285 284 284 284 284
300 297 296 294 293 295 295 295 292 291 291 291 291 291 291 291 291 291 291 292 292 292 292 292 291 291 289 289 288 287 287 287 287 287 288 288 287 287 286 286 285 285 284 284
294 295 294 293 292 291 291 291 291 291 291 291 291 292 292 292 292 292 292 292 291 293 293 292 291 290 289 288 287 287 287 286 287 287 287 287 287 287 286 287 287 286 286 285
295 296 295 293 292 292 292 292 292 292 292 292 292 292 291 291 291 291 291 291 292 293 293 292 290 289 288 287 287 287 287 286 287 287 287 288 288 288 287 287 287 287 287 286
296 294 293 293 293 293 292 293 293 293 292 292 291 291 291 291 291 291 291 290 290 290 291 290 288 288 287 286 286 287 287 286 286 287 287 286 287 287 287 286 287 287 287 287
294 294 294 293 293 293 292 291 291 291 291 291 291 291 292 292 292 291 290 290 290 291 290 289 289 288 287 286 286 286 287 286 286 285 285 285 285 285 285 285 285 286 286 286
294 294 293 292 292 292 292 292 292 292 291 291 291 291 291 291 290 290 290 289 289 289 290 289 288 287 286 286 285 284 285 285 285 285 284 283 283 282 282 283 283 283 284 285
293 292 292 292 292 292 291 290 289 288 287 287 287 287 287 287 288 289 289 288 288 288 289 288 287 286 286 285 284 284 284 284 283 283 283 282 282 282 282 283 282 282 283 283
292 291 291 291 290 288 287 286 285 285 284 284 284 284 285 285 286 286 288 287 287 288 288 287 286 286 285 284 284 283 282 282 282 281 281 281 281 281 281 281 283 284 283 282

GFSNGP_850_thetae_003.txt.gz
Theta_e
312 311 312 311 313 312 313 313 317 314 312 312 313 312 309 308 307 307 307 308 309 309 306 303 305 302 299 298 296 296 296 295 294 294 293 291 290 290 291 291 292 291 292 289
314 311 310 313 311 311 312 312 311 311 313 311 310 309 308 308 307 307 308 309 309 307 305 302 301 300 298 297 296 296 295 295 294 294 293 290 290 290 291 291 292 291 291 290
311 307 307 312 311 311 311 311 314 315 315 311 310 309 309 308 307 308 310 310 309 307 305 302 301 299 297 296 296 295 295 294 293 293 291 291 291 290 290 291 292 291 291 291
312 305 313 312 309 309 311 310 310 311 311 311 311 310 310 310 310 310 310 310 309 306 303 301 300 297 296 296 295 295 294 293 293 291 291 292 291 290 290 291 291 291 291 290
314 311 308 309 308 312 313 313 312 312 311 309 309 310 311 311 311 311 311 310 308 305 302 300 299 296 295 295 295 294 293 292 291 291 291 292 291 291 289 290 290 289 289 289
306 311 311 310 306 311 311 316 311 311 310 308 309 315 314 312 312 312 310 309 305 302 301 299 297 295 295 296 294 292 291 290 290 290 291 292 292 291 289 290 289 289 288 288
302 313 310 306 309 310 314 315 310 311 311 308 311 313 311 312 312 311 310 306 302 301 299 297 296 296 297 294 291 290 290 290 290 290 290 291 291 291 290 289 288 288 288 287
303 308 313 305 310 314 314 312 311 312 312 312 313 312 311 310 310 309 307 303 305 300 297 296 297 296 293 291 290 290 289 289 289 289 290 290 291 291 290 288 287 288 287 286
309 312 307 308 311 312 312 312 312 311 312 312 311 310 309 308 307 305 304 304 298 297 298 297 295 292 291 290 290 289 289 289 289 290 290 290 291 291 289 288 288 287 287 287
309 310 307 309 311 311 311 311 312 312 311 312 312 310 308 306 304 302 299 297 301 302 296 294 292 291 290 290 289 289 289 289 289 289 290 290 291 290 288 288 287 287 286 285
309 309 310 311 311 311 312 312 313 313 313 312 312 310 308 305 300 298 298 300 299 294 293 291 291 290 290 290 290 290 289 289 289 290 290 290 290 289 289 287 287 286 285 284
314 312 310 311 312 313 314 313 313 313 313 313 311 309 306 299 296 299 300 295 293 292 291 291 290 290 290 290 290 290 289 288 288 288 289 289 289 289 289 288 287 286 285 283
311 311 311 312 313 313 313 313 313 313 312 311 308 306 298 298 299 300 295 292 291 291 291 290 290 290 290 290 290 289 288 288 289 288 289 289 290 289 289 288 288 286 285 283
312 312 312 313 313 313 313 313 313 311 308 305 297 297 299 300 299 295 295 292 291 291 290 290 290 290 290 290 289 289 288 289 289 289 288 289 289 289 289 288 288 287 285 284
312 312 311 312 312 312 310 308 307 300 296 296 298 299 297 295 295 293 291 291 291 290 290 290 290 290 290 290 289 289 288 289 289 289 288 288 287 288 289 288 287 287 285 284
309 310 310 308 307 303 302 300 300 298 299 299 297 296 295 293 292 291 291 291 290 290 291 290 290 291 290 290 290 290 289 289 289 289 288 288 287 287 287 286 285 285 284 284
307 303 301 299 299 298 297 298 299 297 297 297 297 297 295 292 291 291 291 291 290 290 290 291 291 291 291 291 290 289 288 288 288 289 288 288 288 287 286 285 285 285 284 284
302 301 299 299 299 298 298 298 298 296 296 295 294 292 291 290 291 291 291 291 291 290 290 291 292 291 291 291 290 288 288 287 287 287 287 287 287 288 287 287 285 285 285 284
301 300 300 299 299 298 297 296 296 295 293 292 290 291 291 291 291 291 291 291 290 291 291 292 292 292 292 291 290 289 289 288 287 287 287 287 287 288 288 287 286 285 286 285
297 297 296 296 297 296 296 294 293 291 290 290 291 291 291 291 292 292 292 292 292 292 293 292 293 293 292 291 290 289 288 288 287 287 286 286 287 287 288 288 287 287 286 286
295 294 293 292 292 291 291 291 291 291 291 292 292 292 292 291 291 291 291 291 291 291 291 291 292 292 291 290 289 288 287 287 287 287 287 287 287 288 288 287 287 287 287 287
296 296 294 293 293 293 293 293 293 293 293 293 293 292 291 291 291 291 291 292 291 291 290 290 291 291 289 289 288 288 287 287 287 287 287 287 287 286 287 286 286 286 286 286
295 293 294 294 294 293 293 292 292 292 292 292 292 292 292 292 292 292 292 292 291 291 290 290 291 290 290 290 289 287 286 286 287 287 287 286 286 285 285 285 285 284 284 284
294 294 294 294 294 293 292 292 292 292 292 291 289 288 288 287 287 287 287 288 288 289 289 289 289 290 289 289 288 287 286 285 285 286 285 285 285 284 283 283 282 282 282 281
294 294 293 293 292 292 291 290 288 287 287 286 286 285 285 285 285 285 285 285 286 288 289 289 289 288 289 288 287 287 286 285 285 284 284 284 283 282 282 281 281 281 281 281
293 293 292 292 290 287 286 285 285 284 284 284 284 283 283 282 283 283 283 284 285 286 288 288 288 288 289 288 286 286 284 284 283 282 282 281 281 280 280 280 280 280 280 281
291 290 288 286 285 284 284 283 282 282 281 281 281 281 281 281 281 281 282 283 284 285 286 287 286 284 286 286 285 284 282 281 280 280 280 279 279 279 279 279 279 279 280 281

GFSNGP_850_thetae_006.txt.gz
Theta_e
317 316 316 317 318 318 317 318 318 316 316 315 316 317 318 316 315 315 313 311 309 307 306 304 303 303 301 299 299 298 297 296 296 295 295 295 294 293 292 293 293 294 292 292
319 316 316 317 317 318 318 318 317 317 317 317 316 315 316 315 314 313 312 310 309 308 306 304 303 302 300 299 298 297 297 296 295 294 294 294 293 293 293 293 293 293 293 292
319 314 315 319 317 317 317 317 318 318 318 317 317 316 315 315 313 312 312 310 309 309 307 304 301 301 300 298 297 297 296 295 294 293 294 294 293 293 292 292 293 292 293 292
320 312 327 315 313 314 316 316 316 316 316 315 315 316 314 314 314 312 312 311 310 309 306 303 301 301 299 297 297 296 296 295 293 294 293 293 293 293 293 292 292 291 291 291
325 317 316 313 311 313 315 315 316 315 315 314 313 314 316 313 313 314 312 311 311 309 306 303 301 300 298 296 295 295 296 294 293 292 293 292 292 293 293 292 291 291 291 290
315 330 330 315 311 314 314 316 314 315 316 315 314 320 315 314 312 312 312 311 310 307 304 302 301 300 299 295 295 296 293 292 292 292 292 292 292 293 293 292 291 290 289 288
318 325 317 313 312 313 315 315 315 315 316 315 317 315 315 312 313 312 312 310 308 308 302 300 303 300 295 295 296 293 291 291 292 291 291 292 292 292 292 292 291 288 287 288
314 323 323 310 313 318 316 316 315 315 315 315 315 315 312 311 311 311 310 306 305 301 300 304 299 295 296 296 293 291 290 290 291 291 290 291 292 292 292 291 290 288 288 287
317 318 313 311 315 315 313 314 314 314 314 314 314 314 312 309 308 307 304 301 299 300 300 296 297 297 294 292 291 290 290 290 290 291 291 291 291 292 291 290 289 289 288 288
315 315 313 312 312 312 312 313 313 313 313 313 314 313 312 308 304 302 299 297 296 298 298 298 298 296 291 290 290 290 290 290 290 290 289 290 291 291 291 290 290 288 288 288
315 314 314 313 313 313 313 314 314 314 314 314 313 313 311 304 301 298 296 298 300 300 300 298 293 291 290 290 290 290 290 290 290 290 289 289 289 291 290 290 289 289 288 287
318 314 315 314 313 313 313 314 314 314 314 311 311 309 305 300 296 299 300 299 300 296 295 293 291 290 290 290 290 290 290 290 290 290 290 289 289 290 289 289 289 288 287 287
314 312 312 313 313 313 314 312 311 310 307 304 302 300 298 298 300 300 300 297 295 292 291 291 290 290 290 290 290 290 289 289 290 290 290 290 289 289 289 290 289 288 288 287
312 313 315 312 311 309 309 307 305 302 300 300 299 298 298 299 299 297 295 294 293 291 291 290 290 290 290 290 290 290 289 289 289 290 290 290 290 289 289 289 289 288 288 287
307 309 310 304 305 303 303 302 301 299 298 299 299 298 297 295 294 294 293 292 291 291 290 290 290 290 290 290 290 290 290 290 290 289 289 289 288 288 288 288 288 287 287 286
303 303 302 303 300 300 300 299 298 298 298 297 296 295 294 294 293 292 291 291 291 290 290 290 290 291 291 291 291 291 290 290 289 288 288 288 288 288 288 288 288 287 287 287
307 303 300 299 299 298 299 298 298 298 296 296 296 295 295 294 293 291 291 291 291 291 291 290 290 291 291 291 291 291 291 290 288 288 288 287 289 288 288 288 288 288 287 286
302 301 300 300 299 299 299 298 296 296 296 295 295 293 291 291 291 291 291 291 291 291 291 290 290 291 291 292 292 291 290 290 289 289 288 287 287 287 287 287 288 288 288 287
300 299 299 298 298 297 297 296 295 293 291 291 290 291 291 291 291 292 292 292 291 291 291 292 292 292 292 293 292 291 291 290 290 289 288 288 287 286 286 287 287 287 288 288
298 296 295 294 294 293 292 291 291 292 292 292 292 292 292 292 292 292 291 291 291 291 291 291 291 290 290 292 292 291 290 289 288 288 287 287 287 287 287 287 288 287 287 287
294 294 293 292 292 292 292 293 293 293 293 293 292 292 291 291 291 291 291 292 292 292 292 292 291 290 291 291 291 290 289 288 288 287 287 287 287 287 287 287 287 287 287 287
296 295 293 293 293 293 292 292 292 292 292 292 292 292 292 291 290 290 289 289 289 289 288 288 289 290 290 290 290 290 289 289 288 286 286 287 287 287 287 287 286 286 286 286
295 293 294 294 294 293 293 292 292 291 290 289 288 286 286 285 286 286 286 285 284 284 285 285 286 288 289 289 288 289 289 288 287 286 286 287 287 286 286 285 285 284 284 283
294 294 294 294 293 292 292 291 289 287 286 285 284 284 284 284 284 284 284 283 283 283 284 285 285 286 287 288 288 288 288 287 287 286 285 285 285 285 284 284 283 282 281 281
294 293 293 292 291 289 288 287 285 284 284 283 282 282 281 280 280 280 281 280 281 282 283 283 285 286 287 286 286 285 286 287 286 285 284 283 282 282 281 281 281 280 280 280
292 291 290 288 287 285 284 283 282 281 280 280 279 279 278 278 278 278 278 279 280 280 280 281 282 282 283 282 282 282 281 283 283 281 281 281 280 280 279 279 279 278 278 278
289 288 287 285 284 282 281 280 280 279 278 277 277 276 276 276 277 277 277 277 277 278 278 278 279 279 279 279 279 279 279 279 279 279 279 279 278 278 278 277 277 277 277 278

GFSNGP_850_thetae_009.txt.gz
Theta_e
322 321 319 319 320 320 319 319 321 319 316 316 317 318 317 318 318 319 321 320 320 318 315 314 311 308 306 305 303 300 300 299 299 299 298 297 297 296 295 294 294 294 294 294
323 321 320 320 319 318 319 319 318 317 317 318 318 317 317 317 318 318 319 319 318 316 314 312 310 307 306 305 302 300 299 299 299 298 297 296 296 295 295 294 294 294 294 294
320 319 320 322 320 319 318 318 318 319 319 319 319 317 317 317 317 317 317 317 316 315 313 311 309 307 306 303 301 300 299 298 298 297 296 296 295 295 294 294 294 294 293 293
321 317 324 318 317 316 318 318 318 318 317 317 317 317 317 317 317 317 316 316 315 314 312 311 309 306 305 302 300 299 298 297 297 296 295 295 294 294 294 294 294 293 293 292
327 319 317 316 314 315 316 316 317 317 316 316 316 316 317 317 316 316 315 315 315 314 313 312 308 305 303 301 300 298 298 296 297 295 294 294 294 294 294 294 294 293 293 292
318 326 326 319 316 316 316 316 315 315 315 315 316 317 316 317 315 314 314 314 314 314 313 311 307 304 302 300 299 299 297 297 294 294 294 293 293 293 293 294 293 293 292 291
321 325 321 316 315 315 316 318 316 315 315 315 316 315 317 316 315 315 315 314 314 313 312 310 306 302 300 301 298 297 296 295 294 293 293 293 293 293 293 293 293 293 292 290
322 322 324 313 315 318 319 316 315 315 315 316 316 316 315 315 314 313 314 314 313 312 308 304 301 300 299 298 297 296 295 294 293 293 293 293 293 293 293 293 293 292 291 290
319 320 316 314 315 315 315 315 315 314 314 315 315 314 315 315 314 311 311 310 307 304 299 298 298 298 297 294 295 296 291 291 293 293 292 292 292 292 293 293 292 292 291 290
317 316 315 315 314 314 314 314 315 315 315 315 316 315 315 315 313 308 307 304 300 298 296 295 297 299 298 295 293 290 290 291 291 290 291 291 291 292 292 292 292 291 291 290
317 316 314 315 315 315 315 315 316 316 316 316 315 314 315 313 307 304 299 297 297 298 298 298 295 294 294 293 290 290 290 290 290 290 291 292 291 291 292 292 291 291 290 290
318 316 317 316 316 316 316 316 316 315 314 311 310 311 309 304 301 300 297 298 299 298 296 294 294 293 291 290 290 290 290 290 290 291 291 292 291 290 290 290 290 290 289 289
316 316 315 316 315 312 310 309 307 306 306 304 303 302 301 299 299 299 299 298 297 296 294 293 293 291 290 290 290 290 290 290 290 291 292 292 291 290 290 291 291 290 289 288
313 315 317 311 310 307 306 305 304 303 302 301 301 300 300 299 298 298 298 297 294 293 293 291 291 290 290 290 290 290 290 290 291 291 291 291 291 290 290 290 290 290 290 289
309 311 309 306 305 304 304 303 302 299 299 298 298 298 297 297 297 296 296 294 293 292 291 291 291 290 291 290 291 291 291 291 291 291 290 290 290 289 289 289 289 289 289 288
307 306 305 303 302 301 300 299 299 298 298 299 298 297 297 297 296 296 294 293 291 291 292 292 291 290 290 291 292 292 292 292 291 291 290 289 289 289 289 290 289 289 289 288
307 305 304 303 301 299 299 298 298 299 299 298 298 296 295 293 292 293 292 292 291 291 291 291 291 291 291 291 291 292 293 293 292 291 290 290 289 289 288 289 289 289 289 289
304 303 301 300 300 298 299 299 298 296 295 293 291 291 291 291 291 291 291 292 292 291 291 291 291 291 292 292 292 292 292 292 292 292 291 290 290 289 288 288 288 288 287 288
301 300 300 299 299 297 296 293 292 291 291 291 291 292 292 292 292 292 291 291 291 292 293 292 292 291 291 291 291 291 291 292 291 291 290 290 289 289 288 288 287 287 287 287
299 297 295 294 293 292 292 292 292 293 293 292 292 292 291 291 291 291 291 292 292 293 292 292 291 291 290 291 291 291 291 291 291 291 290 289 289 288 288 288 287 287 287 287
295 294 293 292 293 293 293 292 292 292 292 292 292 291 291 290 289 288 287 287 288 289 288 286 285 285 285 286 287 289 290 290 291 290 289 289 288 287 287 288 287 287 287 287
296 294 293 293 293 293 292 292 292 292 291 289 288 287 286 286 286 287 286 287 287 286 284 283 283 284 284 284 285 286 287 288 288 289 289 289 287 286 287 288 287 287 286 286
295 293 294 294 294 293 292 292 291 290 288 286 285 285 284 284 285 284 284 284 282 282 281 281 282 282 283 283 284 285 286 287 287 288 288 287 286 285 286 286 285 285 285 284
293 294 294 294 293 292 290 289 287 286 285 284 283 282 281 282 281 282 281 280 280 279 279 280 281 281 281 281 282 283 284 285 287 285 283 284 284 284 284 283 283 283 282 282
295 294 293 291 288 287 286 286 284 284 282 282 281 281 280 280 279 279 278 277 277 277 277 278 278 279 279 279 279 279 279 280 281 281 280 280 282 281 281 279 279 280 280 280
290 289 288 288 286 285 284 282 281 281 280 280 279 279 278 278 277 276 276 275 275 275 275 276 276 277 277 277 277 277 277 278 278 278 278 278 279 279 278 277 277 278 279 278
288 286 285 284 282 281 281 279 279 279 279 277 277 278 277 276 275 274 274 274 273 273 273 273 273 273 275 275 275 275 275 275 275 276 276 276 275 275 274 274 274 274 275 275

GFSNGP_850_thetae_012.txt.gz
Theta_e
320 321 322 322 321 320 319 321 321 322 319 319 318 319 318 318 319 319 319 322 322 322 321 319 317 315 313 310 307 306 303 301 301 300 300 300 298 297 297 296 295 294 294 294
326 322 322 322 321 320 319 319 319 319 319 318 319 318 317 316 317 318 317 317 321 321 321 319 317 316 312 309 307 305 302 300 300 300 299 298 297 296 296 296 295 295 294 294
326 320 321 321 323 320 321 319 319 319 320 319 318 318 318 317 317 317 317 317 318 319 320 319 317 315 312 309 307 304 301 300 300 299 298 299 296 296 296 295 295 295 294 294
328 318 323 318 318 318 318 319 319 318 318 317 318 317 315 315 316 316 317 317 317 317 317 317 315 313 311 308 306 303 301 300 299 298 298 296 295 295 295 294 294 295 294 294
327 323 319 317 316 316 316 317 317 317 317 317 316 316 315 317 317 316 316 315 315 315 316 315 314 312 310 307 305 302 300 298 299 298 296 295 294 294 294 294 294 294 294 294
323 328 326 321 317 317 317 319 316 315 316 315 315 322 318 317 316 315 315 314 314 315 315 314 313 312 308 305 303 301 299 298 296 297 295 294 294 293 293 293 293 294 294 293
324 326 325 318 316 315 318 322 317 316 316 316 318 317 316 316 316 315 314 314 315 315 314 314 313 310 305 303 301 300 297 296 297 294 294 293 293 293 293 293 293 293 293 293
327 323 322 315 315 319 322 317 315 315 315 315 315 315 315 315 315 315 314 313 314 313 311 308 307 306 302 300 299 297 296 296 294 293 293 293 292 291 292 292 293 293 293 293
323 324 318 315 315 315 315 315 315 315 315 316 316 316 316 316 315 314 311 310 307 306 303 301 300 300 299 297 295 296 294 294 292 291 291 291 290 290 290 292 293 293 292 292
321 316 316 315 315 315 315 315 316 316 316 317 317 317 315 315 312 308 305 302 300 299 299 298 297 297 298 296 295 294 294 291 290 290 290 290 291 291 290 292 293 292 292 291
318 317 316 315 317 316 316 316 317 317 317 314 313 314 314 309 303 300 299 298 298 298 298 298 298 299 298 295 294 293 290 290 290 290 290 291 291 292 291 290 292 292 291 291
324 318 318 317 317 316 316 314 312 312 309 307 307 306 305 302 301 300 300 299 299 299 299 299 299 297 294 293 291 290 290 290 290 290 290 290 291 292 291 290 290 290 290 290
318 317 317 316 312 310 310 309 308 307 306 304 303 303 302 302 301 300 300 300 300 299 296 295 294 293 291 290 290 290 290 290 290 290 290 291 292 291 291 290 290 290 290 290
313 316 314 312 309 309 306 304 305 304 302 302 300 300 299 300 299 298 298 297 296 295 294 293 291 291 291 291 292 291 290 290 291 291 291 292 292 291 291 291 290 289 289 289
311 310 309 308 307 304 303 303 301 300 299 299 299 298 298 298 298 297 296 295 294 293 292 293 293 292 291 292 291 290 291 291 291 292 292 292 290 290 289 289 289 290 290 289
309 308 307 305 303 302 300 300 300 299 299 299 298 298 298 298 297 296 295 294 292 291 291 291 291 291 291 291 291 292 292 292 292 292 292 292 291 291 290 290 289 288 289 289
307 305 305 303 301 300 300 299 299 299 299 298 295 293 291 291 291 291 291 291 291 291 291 291 292 292 291 291 291 292 293 293 293 293 293 292 292 291 291 291 290 289 289 288
305 304 302 300 300 299 299 298 297 294 292 291 291 291 291 291 292 291 291 291 291 291 293 293 293 292 292 291 291 291 291 291 291 291 291 291 291 291 291 290 290 289 289 288
301 300 300 299 299 298 295 292 292 292 292 292 292 292 291 291 291 291 291 290 289 292 291 290 289 289 288 286 285 285 287 288 290 291 290 290 290 290 290 289 289 288 288 288
298 297 296 295 293 292 292 293 293 292 292 291 291 291 289 288 287 286 286 287 288 288 288 288 287 285 283 283 284 284 284 284 285 286 288 288 289 289 290 289 289 288 288 288
295 293 292 292 293 292 292 292 292 291 291 290 289 288 287 286 286 286 287 286 287 286 286 285 282 282 282 282 282 281 282 283 284 285 285 287 288 288 289 289 287 287 288 287
294 293 293 293 293 292 292 292 291 290 289 288 287 286 285 284 283 283 283 284 284 282 280 279 280 280 280 280 280 281 280 281 283 284 286 287 287 288 288 287 286 288 287 287
294 293 294 294 293 292 291 290 290 289 287 286 286 285 283 282 282 282 282 281 280 279 278 278 278 278 278 279 279 278 278 278 279 280 281 282 284 283 283 283 285 284 284 284
294 294 294 293 292 290 288 288 286 286 285 284 283 282 281 280 280 280 279 278 277 277 277 276 276 277 277 277 277 277 276 277 277 277 278 279 279 279 278 278 278 280 280 280
294 294 293 290 288 287 286 285 284 284 283 282 281 280 280 279 278 278 277 276 275 275 274 274 273 274 275 275 274 275 274 274 275 275 276 276 276 276 276 276 276 277 278 278
291 289 289 288 286 285 284 282 282 281 280 280 279 279 279 278 277 276 275 275 274 273 273 273 272 271 271 271 271 271 272 272 272 273 273 273 273 273 273 274 274 274 274 275
288 287 286 285 284 282 281 280 280 279 279 278 277 277 277 277 276 275 274 273 273 272 271 271 271 270 270 269 269 269 269 270 269 270 271 271 271 271 271 271 271 271 272 272

GFSNGP_850_thetae_015.txt.gz
Theta_e
320 322 321 321 321 320 317 318 316 316 318 317 316 315 316 318 318 318 318 320 322 321 320 319 319 318 317 316 315 312 308 306 304 302 301 301 300 299 298 297 296 296 294 294
322 321 320 320 319 319 319 319 317 316 316 315 316 316 316 316 316 318 317 317 317 319 321 320 319 318 317 316 314 311 307 305 303 301 301 300 299 298 296 295 295 295 295 295
320 315 315 313 316 318 318 318 318 315 314 315 314 314 314 315 316 316 317 317 317 318 320 321 320 318 317 316 314 310 307 305 301 301 300 299 298 299 295 295 295 295 295 294
314 312 310 315 317 315 317 316 314 314 314 313 313 316 316 316 316 316 316 316 316 316 316 318 318 318 317 315 312 308 306 302 300 300 299 298 298 295 295 294 295 294 294 294
312 314 315 315 315 317 315 315 314 313 313 314 315 316 317 316 315 315 315 314 314 314 314 315 316 316 315 314 309 306 303 301 299 299 298 297 295 294 294 294 293 293 293 294
312 314 310 314 315 316 315 313 315 315 314 315 315 308 313 315 315 315 315 314 314 314 315 315 315 314 312 308 304 301 299 299 298 297 297 297 294 294 293 293 293 293 293 293
308 308 312 317 315 315 311 313 316 316 315 315 314 315 315 315 315 315 314 314 313 313 314 314 313 312 307 304 302 300 300 299 297 296 297 294 293 293 293 293 292 291 292 293
314 314 316 315 314 311 315 315 315 314 314 315 315 316 316 315 314 313 312 312 312 312 310 308 307 307 303 302 299 300 298 297 297 298 295 293 293 292 291 290 290 292 293 293
315 313 315 314 315 316 315 314 315 315 316 316 317 316 315 313 312 309 307 307 307 308 306 303 302 302 301 299 299 299 299 300 299 294 293 291 291 290 290 290 291 292 292 293
313 315 315 314 314 315 315 316 317 317 317 316 315 314 311 310 308 305 303 303 302 302 302 301 300 299 299 299 300 300 299 295 294 291 290 290 290 290 291 292 291 291 292 292
315 315 317 317 317 317 317 317 315 316 314 312 313 308 308 306 303 301 300 300 299 300 300 299 298 299 298 298 297 294 292 290 290 290 290 290 290 290 291 292 291 291 290 291
308 317 315 314 314 316 315 312 309 311 309 307 307 305 304 302 301 301 301 300 299 299 299 298 297 295 294 291 291 290 290 290 290 290 290 290 290 290 291 292 292 291 290 289
317 317 314 311 311 311 311 308 307 308 307 306 304 303 302 302 300 300 299 299 297 295 295 295 293 292 291 291 290 291 290 290 290 290 290 290 291 291 291 291 291 291 290 290
315 313 310 310 306 308 308 307 306 304 302 301 300 299 298 298 297 297 296 296 295 295 293 292 292 292 293 292 292 292 292 291 290 290 291 291 291 291 292 291 290 290 290 289
312 314 309 306 306 305 304 302 301 300 299 298 298 298 298 297 297 296 296 295 294 293 291 292 292 291 291 291 291 291 291 291 292 292 292 292 292 292 291 290 290 291 291 290
308 307 306 305 303 301 300 299 299 299 299 298 298 297 297 296 295 294 293 292 291 291 291 291 292 292 292 292 292 291 291 291 292 292 292 293 292 292 292 292 291 291 291 291
306 303 303 301 300 300 299 299 299 298 298 296 293 291 291 291 291 291 291 291 291 292 292 292 291 291 290 288 288 287 285 286 286 287 289 290 290 290 291 290 290 290 291 289
306 304 303 301 299 299 298 298 297 294 292 291 291 291 291 291 291 290 289 287 287 290 290 290 288 288 287 286 283 283 283 283 283 282 282 283 285 287 289 289 289 289 289 290
304 301 300 299 299 298 296 293 292 292 292 291 291 291 289 288 287 286 286 287 287 287 286 285 286 285 283 281 280 280 280 280 281 282 282 283 283 284 284 286 287 289 288 289
300 299 299 298 296 293 292 292 292 292 291 291 289 288 287 287 286 285 286 285 286 285 284 283 281 280 280 279 279 280 280 280 279 280 280 281 282 284 285 285 286 288 288 288
298 296 293 292 292 292 292 292 291 291 290 289 288 288 286 284 283 283 283 283 282 282 280 279 279 278 278 278 278 279 279 278 278 278 278 279 280 283 284 285 286 286 287 287
292 293 293 293 292 291 291 291 290 289 288 288 287 286 284 283 282 281 281 281 280 279 278 277 277 277 277 277 277 277 277 277 277 277 277 277 277 278 279 279 280 281 281 282
293 293 293 293 292 291 290 289 288 287 287 286 285 284 282 281 281 280 280 279 278 277 277 276 275 276 276 275 275 276 275 275 275 275 275 275 275 275 276 276 277 278 278 278
293 293 293 293 290 289 288 286 286 285 284 283 282 282 281 280 279 279 278 277 276 276 275 274 274 274 274 274 274 273 273 272 272 272 273 273 273 274 274 274 275 275 276 276
293 293 290 288 287 287 286 285 284 284 283 282 281 280 279 279 278 277 277 276 275 274 274 273 273 272 272 272 272 271 270 270 270 271 271 271 271 271 272 272 272 272 273 273
291 289 288 288 288 286 285 283 282 281 280 280 279 278 278 278 277 276 275 275 274 273 272 272 272 271 271 270 269 269 269 270 269 270 270 269 270 270 270 270 270 270 271 271
288 287 286 286 285 283 281 281 280 279 279 279 278 277 277 276 276 275 274 273 272 271 271 271 271 270 269 269 268 269 269 269 269 270 269 269 269 269 269 269 269 269 269 270

GFSNGP_850_thetae_018.txt.gz
Theta_e
317 320 320 319 320 319 316 315 315 315 315 314 315 312 314 317 316 319 323 324 324 322 322 324 324 323 320 318 317 316 315 313 311 307 306 303 301 301 299 298 297 296 295 295
319 317 318 319 318 317 317 318 316 315 315 313 313 314 314 315 317 316 317 317 317 316 318 320 319 319 318 318 317 316 315 312 307 305 303 301 301 299 298 296 295 295 296 295
317 313 314 314 314 316 317 316 317 315 314 311 312 313 313 315 316 316 316 316 316 316 317 319 319 318 318 317 317 316 314 308 306 304 301 301 299 298 298 298 299 295 294 295
312 310 313 316 314 315 314 313 312 312 311 313 314 315 315 314 314 314 314 314 314 314 314 315 316 318 319 318 317 315 309 306 303 301 301 299 298 298 298 299 295 294 294 294
311 312 314 315 314 312 313 314 313 311 311 314 315 315 315 315 315 315 314 314 314 314 314 314 316 317 317 317 315 312 308 304 301 300 299 298 298 299 299 297 294 294 293 293
311 312 311 312 314 315 312 313 314 313 313 313 312 308 311 314 315 315 314 314 315 314 314 313 314 315 316 314 310 305 301 299 298 297 297 298 299 299 298 294 293 293 293 293
303 306 309 311 314 313 309 309 314 314 314 314 312 313 314 314 313 313 313 313 312 313 313 313 312 312 313 308 303 300 298 298 297 297 298 299 299 295 294 293 292 291 290 290
312 309 312 314 313 311 310 314 314 314 314 315 315 314 314 312 312 311 312 310 309 310 308 306 307 307 306 302 300 299 298 298 298 300 300 298 294 294 292 291 290 290 290 291
312 311 313 313 315 315 315 314 314 315 316 316 315 314 312 310 308 307 306 305 304 304 303 302 301 301 300 300 299 300 300 301 300 299 296 294 291 290 290 290 290 290 290 291
313 314 315 313 315 314 314 315 316 316 316 316 314 311 309 306 304 303 301 300 300 300 300 299 299 299 299 299 299 299 297 295 293 292 290 290 290 290 290 290 290 290 291 290
312 315 316 316 315 316 315 315 314 314 314 313 312 307 306 302 301 300 300 300 300 300 299 299 298 297 295 292 291 291 290 290 290 290 290 290 290 290 290 290 290 291 291 291
310 314 313 314 312 313 314 312 311 312 308 306 307 305 303 301 301 301 300 299 299 299 297 295 293 292 291 291 291 290 290 290 290 290 290 290 290 290 290 290 290 291 291 291
316 315 314 311 310 310 312 308 308 308 306 305 302 303 302 301 299 298 297 296 295 294 294 293 292 292 292 291 291 291 291 291 291 291 291 291 291 291 291 291 291 291 291 291
316 314 308 309 306 307 308 306 306 304 302 301 299 298 298 297 296 296 295 295 295 294 292 292 292 292 291 291 291 291 291 291 291 291 291 291 292 292 292 292 292 291 291 291
312 313 312 307 306 305 304 303 301 299 299 298 298 297 297 296 296 295 295 294 293 292 291 291 291 291 292 291 291 291 291 290 290 290 289 289 289 289 290 290 290 291 292 291
309 309 306 306 303 301 301 300 300 298 298 298 298 297 296 296 295 293 291 291 290 290 291 291 291 290 289 288 288 287 286 284 283 283 282 282 282 282 284 286 288 290 290 290
305 303 303 301 300 299 299 299 299 298 298 297 295 293 291 291 291 290 290 290 290 289 288 288 288 288 287 286 284 282 281 281 280 280 280 281 281 281 282 282 283 283 284 286
308 305 304 304 301 300 299 298 298 296 294 292 291 291 291 290 289 288 287 287 287 287 287 286 285 284 282 281 280 280 280 280 280 280 279 279 280 280 281 282 282 283 284 285
305 303 302 300 300 299 298 297 294 292 291 291 291 290 288 288 287 287 286 286 285 285 284 283 282 280 279 279 279 278 278 278 279 279 279 279 279 279 279 280 282 283 284 285
302 301 300 299 298 297 293 292 292 291 291 289 288 288 288 287 286 285 284 284 283 282 281 280 279 279 278 277 277 277 277 277 277 277 277 277 277 277 277 278 279 279 279 281
300 299 299 297 294 292 292 291 291 290 288 287 287 287 286 285 284 283 282 282 281 280 278 278 277 277 277 276 276 276 276 276 276 276 276 275 276 276 276 276 276 277 278 278
298 296 294 292 292 292 292 291 290 289 288 287 287 286 284 283 282 281 280 279 278 278 277 277 276 276 276 276 275 275 275 274 275 274 274 274 274 274 274 274 274 275 275 276
293 292 292 292 291 291 290 289 288 287 287 287 285 283 282 281 280 279 279 278 277 276 276 276 275 275 275 274 274 274 274 273 273 273 272 272 272 272 272 272 272 272 273 273
293 292 292 291 290 289 289 287 287 286 286 284 282 281 280 280 279 278 277 276 276 275 275 275 274 274 274 274 273 273 272 272 272 272 271 271 271 270 271 271 271 271 271 272
292 291 291 289 288 287 287 286 285 284 282 281 280 279 279 278 278 277 276 276 275 274 274 274 273 273 273 272 272 272 271 271 271 271 270 270 270 270 270 270 270 270 270 270
291 289 288 287 286 285 284 283 283 281 280 279 279 278 277 277 277 276 275 274 274 273 273 273 273 272 271 271 271 271 270 270 270 269 269 269 269 269 269 269 269 269 269 269
288 287 286 285 285 283 281 280 279 279 279 278 278 277 276 276 275 274 274 273 272 272 272 271 271 270 270 270 270 270 270 269 269 268 268 268 268 268 268 268 268 268 268 268

GFSNGP_850_thetae_021.txt.gz
Theta_e
314 315 318 318 318 315 315 314 314 315 314 315 313 311 311 314 316 319 321 323 324 327 328 329 328 327 326 325 324 322 320 318 317 313 312 309 307 303 301 300 298 297 296 299
318 316 316 318 316 315 316 316 314 314 313 310 311 312 312 313 315 316 317 317 319 320 322 322 322 323 324 324 321 319 318 318 314 312 310 307 304 301 299 297 296 295 298 298
315 313 314 313 313 315 315 315 315 315 313 311 312 311 312 313 315 315 316 315 315 315 315 315 316 318 318 318 319 319 317 315 313 311 307 304 301 299 297 296 296 297 300 295
310 310 313 314 314 313 313 312 311 311 311 312 312 312 313 314 314 313 314 314 314 314 314 314 314 315 316 317 316 316 315 312 310 306 304 302 300 297 297 298 298 300 299 294
313 312 313 315 312 312 313 314 312 311 311 313 314 314 314 314 314 314 314 314 314 314 314 314 313 314 316 316 315 314 311 309 307 305 301 298 298 298 298 299 300 298 294 293
308 314 314 313 312 313 311 312 312 311 311 312 311 306 310 313 314 314 313 313 314 314 313 313 313 312 313 314 313 311 308 305 302 299 297 298 299 298 299 299 298 294 293 291
304 308 309 309 312 312 312 311 313 313 313 312 310 311 313 313 313 313 312 312 311 311 312 311 311 311 310 309 306 303 301 299 297 298 298 298 299 299 299 297 294 292 291 290
305 306 313 311 312 310 309 312 314 314 314 313 314 313 311 310 310 310 309 308 307 308 308 306 305 305 305 303 299 299 298 299 300 300 299 300 299 297 295 293 291 290 290 290
311 311 310 313 312 313 315 315 314 314 314 314 313 310 309 308 306 305 305 305 303 304 302 300 299 300 300 298 298 299 299 300 298 298 296 294 293 291 290 290 290 290 290 289
311 313 313 313 315 314 314 314 314 314 315 314 312 307 305 304 303 302 301 300 300 300 300 299 298 299 298 298 297 296 293 291 290 290 290 290 290 290 290 289 289 289 290 290
311 314 314 314 314 314 313 314 315 315 314 312 311 306 305 302 301 300 300 300 300 300 299 297 295 293 292 291 291 291 290 290 290 290 290 290 290 290 290 290 290 290 290 290
310 314 312 313 313 313 314 314 314 314 310 307 308 306 302 301 300 300 300 299 298 295 294 293 292 292 292 292 291 291 290 290 290 290 290 290 290 290 290 290 290 291 291 291
313 315 314 313 311 311 312 311 310 309 308 306 303 303 302 301 299 297 296 295 294 293 293 292 292 292 292 291 291 290 290 290 290 290 290 290 290 290 290 290 290 290 290 291
315 314 308 309 308 308 309 307 306 305 303 303 302 301 299 297 296 296 295 294 294 293 291 291 291 291 291 291 291 291 290 290 289 288 286 285 284 283 282 283 284 284 286 288
311 313 312 309 307 305 305 304 303 301 300 298 298 297 297 296 295 295 294 293 292 291 290 291 290 290 290 289 288 287 286 285 283 282 282 281 281 281 281 281 281 281 281 281
308 309 307 307 304 302 302 301 301 298 298 297 297 296 296 296 295 293 291 291 290 290 290 289 288 287 287 286 284 283 282 281 281 280 280 280 280 280 280 280 280 280 280 281
305 301 302 301 301 300 300 300 300 298 297 297 296 295 293 292 291 290 290 289 288 288 287 287 286 285 284 282 281 281 280 280 279 279 279 279 279 279 279 278 278 278 279 280
310 308 306 306 302 300 299 299 298 297 296 295 292 291 290 290 289 288 287 287 287 287 286 285 284 282 281 280 280 279 279 278 278 277 277 277 277 277 277 277 277 277 278 279
307 305 304 303 302 300 298 297 297 295 292 291 290 290 288 288 288 287 286 285 285 284 284 282 281 280 279 279 278 278 277 277 277 276 276 276 276 276 276 276 276 276 276 277
304 303 302 301 299 299 297 296 293 291 291 290 289 288 288 288 286 285 284 283 283 282 281 280 279 278 278 278 277 277 276 276 276 276 275 275 275 275 275 274 274 274 275 275
301 300 299 298 297 296 293 292 291 290 289 287 288 288 287 286 284 283 282 282 281 280 279 278 278 277 277 277 276 276 275 275 275 275 274 274 274 273 273 273 273 273 273 273
299 298 297 296 293 292 291 291 290 289 288 287 287 286 285 283 283 282 281 280 279 278 277 277 276 276 276 276 275 275 275 274 274 273 273 273 272 272 272 272 272 271 271 271
298 296 294 292 292 291 290 289 288 287 287 286 285 284 283 282 281 280 279 278 277 277 276 275 275 275 275 275 274 274 273 273 273 272 272 271 271 271 271 271 271 270 270 270
294 292 292 292 291 290 288 286 286 286 285 284 283 282 281 281 280 279 278 277 276 275 274 274 274 273 274 274 274 273 272 272 272 271 271 271 270 270 270 270 270 269 270 270
292 291 291 290 289 287 287 286 285 284 284 283 282 280 279 279 278 277 277 276 275 274 273 273 273 273 273 273 272 272 272 271 270 270 270 270 270 269 269 269 269 269 269 269
291 290 289 288 287 286 285 284 284 283 281 280 279 279 278 277 277 276 275 274 273 273 272 272 272 272 272 271 271 271 271 270 269 269 269 269 269 269 269 269 269 269 268 268
289 287 285 285 284 283 283 281 280 279 279 278 278 277 277 276 275 274 274 273 272 272 272 272 272 271 270 270 270 270 269 269 269 269 269 269 268 268 268 268 268 268 268 268

GFSNGP_850_thetae_024.txt.gz
Theta_e
312 314 316 316 317 314 314 314 315 315 312 313 312 311 311 312 313 318 320 321 322 323 324 326 327 327 327 327 326 326 325 322 320 317 315 315 312 308 304 302 299 299 297 296
317 316 316 317 315 314 313 314 313 312 312 309 311 311 311 312 315 316 317 317 317 317 317 317 317 318 318 318 318 320 321 320 317 315 314 314 309 304 302 299 298 297 296 297
316 312 314 313 313 314 314 313 314 314 312 309 311 311 310 313 314 314 314 314 314 314 314 314 314 313 313 315 316 316 317 317 315 314 313 312 306 303 300 298 297 296 297 297
309 309 313 314 312 313 312 311 311 311 310 310 310 311 312 312 313 313 313 313 313 313 313 313 313 313 313 315 316 315 314 314 313 310 307 304 303 300 297 297 296 296 297 299
312 312 312 315 312 312 312 312 309 309 310 310 312 313 311 312 312 312 312 313 313 313 314 313 313 313 312 312 314 313 311 309 307 305 305 302 299 297 297 297 297 297 298 299
307 312 313 312 313 311 310 311 309 311 310 311 310 305 308 310 310 311 311 312 313 313 312 312 312 311 310 311 310 309 306 305 303 301 299 298 297 298 298 299 299 298 299 296
303 308 311 310 311 311 312 312 311 313 313 312 308 308 311 310 309 311 312 312 311 311 311 310 309 307 308 306 305 302 301 300 299 299 299 299 299 299 299 299 299 297 295 293
305 307 317 310 311 311 310 310 312 314 314 312 312 312 311 310 310 310 310 308 307 307 306 304 303 304 302 300 297 297 297 298 298 299 300 299 298 297 296 294 292 291 290 290
312 313 311 311 311 312 312 312 312 315 313 313 312 311 310 309 308 307 306 305 303 303 302 300 299 299 299 298 298 299 299 297 294 292 291 291 291 290 290 290 290 289 289 289
311 311 309 313 313 313 313 313 313 314 314 313 313 310 309 307 305 304 302 301 300 300 300 299 298 298 297 296 294 292 291 291 290 290 290 290 290 290 290 290 289 289 289 290
309 313 313 313 313 313 313 313 314 313 313 313 313 308 307 304 302 300 300 299 299 300 299 297 295 294 292 292 291 291 291 290 290 290 290 290 290 290 290 290 290 290 291 291
312 313 313 312 314 313 313 313 313 313 311 309 310 308 304 301 300 299 300 299 298 297 295 293 292 292 292 291 291 290 290 290 290 290 290 290 289 289 288 287 285 284 284 285
313 315 314 313 313 312 312 312 312 313 311 308 305 305 302 300 299 299 297 296 294 293 293 292 292 292 291 290 290 290 290 289 288 287 285 284 283 283 283 284 282 281 281 281
315 314 309 310 310 310 311 310 309 308 306 306 303 301 301 300 297 296 295 294 293 292 292 291 291 290 290 290 289 287 286 285 283 283 282 282 281 281 280 280 281 281 280 280
311 313 314 311 308 308 308 307 306 304 303 301 301 301 300 298 296 295 294 293 292 291 290 290 290 289 288 286 285 284 283 282 282 281 281 280 280 279 279 279 279 279 279 279
309 311 309 309 306 305 305 304 305 302 302 300 299 297 297 296 295 294 293 292 290 290 289 288 287 286 285 283 283 282 281 281 280 280 279 279 278 278 278 277 278 277 278 278
306 301 302 301 304 303 304 303 304 301 299 298 297 295 295 295 294 291 290 290 289 288 287 286 285 284 282 281 281 280 280 279 279 278 278 278 277 277 276 276 276 276 276 276
311 309 306 307 304 302 300 301 300 298 297 296 296 295 293 291 290 289 288 287 287 286 285 284 283 282 281 280 280 279 279 278 278 277 277 276 276 276 275 275 275 275 275 275
308 307 305 304 303 302 300 299 298 297 296 294 292 291 290 289 288 288 287 286 285 284 283 282 281 280 279 279 279 278 278 277 277 276 276 276 275 275 274 274 274 273 273 273
304 304 304 302 301 300 297 295 295 293 292 292 291 289 287 287 287 286 285 284 283 283 282 280 279 279 278 278 277 277 276 276 276 275 275 274 274 274 273 273 273 272 272 272
302 301 301 300 298 297 296 294 294 292 290 288 288 288 288 286 285 284 283 282 282 281 280 279 278 278 277 277 276 276 275 275 275 274 274 274 273 273 272 272 272 272 271 271
300 299 297 296 295 293 293 292 291 290 288 287 287 287 286 285 284 282 281 281 280 279 278 278 277 276 276 276 275 275 274 274 274 274 273 273 273 272 272 271 271 271 270 270
297 296 295 295 294 292 291 289 288 287 287 286 286 285 284 283 282 281 280 279 279 278 277 276 275 275 274 274 274 274 273 273 273 273 272 272 271 271 270 270 270 269 269 270
295 294 293 292 291 290 288 286 286 285 286 285 284 282 281 281 280 279 279 278 277 276 276 275 274 273 273 273 273 272 272 272 272 272 271 271 270 270 269 269 269 269 269 269
293 292 292 290 288 287 286 285 285 284 283 283 282 281 280 279 279 278 277 277 276 275 274 273 273 272 271 271 271 271 271 271 271 270 270 270 269 269 269 269 268 268 269 268
291 290 288 288 287 285 284 283 284 283 282 280 279 279 278 278 278 277 276 275 274 273 272 272 271 271 270 270 270 271 271 270 270 269 269 269 269 269 268 268 268 268 268 268
287 286 285 285 284 283 283 283 282 281 280 279 279 278 277 277 276 275 274 273 272 271 271 271 270 270 270 269 270 270 269 269 269 268 268 268 268 267 267 267 267 267 268 268

GFSNGP_850_thetae_027.txt.gz
Theta_e
314 313 315 317 317 316 317 318 321 320 316 317 317 316 313 312 312 316 319 321 321 322 323 325 326 326 326 326 325 324 323 322 322 322 321 319 318 316 313 308 304 299 298 298
315 314 315 317 317 316 316 314 315 315 315 314 312 311 311 311 315 315 316 316 316 316 316 316 316 316 315 315 315 315 315 317 317 317 316 316 314 312 307 303 299 298 298 297
318 313 315 318 316 316 316 315 317 318 318 312 313 312 311 312 312 311 312 313 313 313 313 313 313 313 313 313 314 314 315 315 315 314 313 312 310 308 305 301 298 297 296 296
317 313 321 318 313 315 317 315 314 313 313 312 312 310 310 311 312 311 312 312 313 313 313 313 312 312 312 312 312 313 314 313 312 311 310 309 308 305 300 298 297 296 297 298
319 318 316 314 314 315 316 317 313 314 312 311 310 311 309 310 310 311 312 312 313 313 313 312 312 311 311 310 311 311 311 309 307 306 305 304 302 301 300 300 299 299 298 297
312 319 321 318 314 311 312 317 312 311 312 312 311 317 314 308 309 311 311 311 311 311 311 311 311 310 310 309 309 308 306 304 303 302 301 301 301 301 300 298 298 297 298 298
312 320 317 314 311 311 318 320 312 311 312 312 313 312 312 309 309 310 309 309 309 309 310 309 308 307 308 306 304 301 300 299 299 299 299 298 298 299 299 298 298 297 295 294
313 318 322 311 309 316 317 311 312 311 312 311 311 310 310 308 308 307 308 307 307 308 307 305 304 304 303 301 298 298 298 298 298 299 299 299 297 295 294 292 291 290 290 290
319 322 316 310 314 313 313 312 311 312 312 312 310 309 308 307 305 305 305 305 304 305 303 301 300 300 299 298 298 299 298 296 293 292 291 290 290 290 290 290 290 290 290 290
316 315 313 312 312 312 312 312 312 313 314 312 311 308 306 304 303 303 302 302 301 301 300 299 298 298 297 295 293 292 291 291 290 290 290 290 290 290 290 290 289 289 288 287
313 312 313 313 313 313 313 312 312 313 314 313 311 307 306 304 302 301 301 300 299 299 298 296 294 294 292 292 291 291 290 290 290 290 290 289 288 287 285 284 283 282 282 282
317 314 315 314 315 313 313 313 312 313 312 310 310 308 305 303 301 300 299 299 298 297 296 293 293 292 292 291 290 290 290 289 288 287 286 285 284 283 283 282 281 281 280 280
314 314 313 313 313 313 313 313 312 312 312 311 307 307 304 302 299 299 298 297 296 294 293 292 292 291 290 290 289 288 287 286 285 284 283 283 282 282 281 281 280 280 279 279
314 313 311 311 311 311 312 312 311 310 309 309 307 303 302 301 298 298 296 295 294 293 292 291 290 290 289 288 286 285 284 284 283 282 282 281 281 281 280 279 279 278 278 278
312 313 312 312 311 310 310 310 309 308 306 304 302 302 301 299 297 295 294 293 292 291 290 290 289 288 287 285 284 284 283 282 282 281 280 280 279 279 279 278 278 277 277 277
310 309 311 310 309 307 307 306 308 303 302 301 300 299 299 297 295 294 293 292 291 290 289 288 287 286 285 284 283 282 282 281 280 280 279 279 278 278 277 277 277 276 276 276
308 303 302 303 303 302 302 303 305 302 301 300 299 298 296 295 294 293 292 290 290 289 287 286 285 284 283 283 282 281 280 280 279 278 278 278 277 277 276 276 275 275 275 275
309 309 307 304 304 303 301 301 301 300 299 298 297 296 295 295 294 291 291 289 288 287 285 284 284 283 282 281 280 279 279 278 278 277 277 277 276 276 275 275 274 274 274 274
309 314 308 304 302 303 301 300 299 298 297 295 294 294 293 291 291 290 288 287 286 285 284 283 282 281 280 279 279 278 278 277 277 276 276 275 275 275 274 274 273 273 273 273
306 305 303 301 300 301 299 297 297 296 294 293 292 292 291 290 288 287 287 285 284 283 282 281 280 279 279 278 278 277 277 276 276 275 275 274 274 274 273 273 272 272 272 271
300 300 299 298 297 297 297 295 295 293 292 292 292 290 288 287 286 285 284 283 282 281 280 279 279 278 277 277 276 276 275 275 275 274 274 273 273 272 272 272 271 271 271 271
298 298 297 297 296 295 294 294 293 292 291 289 288 287 287 286 284 283 282 281 280 280 279 278 277 276 276 275 275 274 274 274 273 273 273 272 272 271 271 271 270 270 270 270
296 295 295 294 294 292 292 291 291 290 287 286 286 285 284 283 282 281 280 280 279 278 277 276 276 275 274 274 273 273 273 273 272 272 271 271 270 270 270 270 270 269 269 270
294 294 293 292 292 291 289 287 286 285 284 283 283 282 281 280 280 279 279 278 277 276 275 275 274 274 273 273 272 272 272 271 271 270 270 270 269 269 269 269 269 269 269 269
292 291 290 290 290 286 285 284 284 283 283 282 281 280 279 279 279 278 277 276 275 275 274 273 273 272 272 272 271 271 270 270 270 269 269 269 269 269 268 268 268 268 268 268
289 288 287 286 285 284 284 284 284 283 282 282 281 280 280 279 278 277 276 275 274 273 273 272 272 271 271 270 270 269 269 269 268 268 268 268 268 268 267 267 268 268 268 267
285 285 284 284 283 282 282 282 281 281 280 279 279 278 278 277 276 275 274 273 273 272 271 271 270 269 269 269 268 268 268 268 268 268 267 267 267 267 267 267 267 268 268 267

GFSNGP_850_thetae_030.txt.gz
Theta_e
318 318 318 318 318 319 320 320 320 320 320 320 320 321 321 317 317 319 321 322 324 326 326 326 326 325 325 326 326 325 323 321 320 320 320 319 319 318 316 316 314 312 307 300
320 318 318 318 318 318 318 318 318 320 320 320 320 319 317 316 318 319 319 319 319 319 319 318 319 320 317 316 316 315 315 315 316 316 316 315 315 314 313 311 307 303 299 299
319 319 319 320 319 319 319 319 319 321 321 320 320 319 318 318 318 317 315 314 314 314 315 314 314 314 313 313 314 314 314 314 314 314 313 313 311 309 308 304 302 300 298 298
321 319 328 320 319 320 319 319 320 320 320 320 319 318 316 317 316 313 312 311 311 312 312 312 312 312 311 311 311 312 312 312 311 310 310 309 309 307 305 303 302 300 299 297
327 322 320 319 317 319 321 321 321 320 320 318 316 314 313 313 313 311 310 310 310 311 311 311 311 311 310 310 310 310 310 309 308 306 305 304 303 302 302 300 300 299 297 297
320 323 327 321 320 318 319 321 320 319 319 318 315 320 319 310 308 308 308 308 309 310 311 311 310 309 309 308 307 307 306 304 303 302 302 301 300 300 299 299 299 298 298 297
323 325 322 321 318 316 321 322 321 319 318 317 318 318 314 309 307 307 307 308 308 307 308 308 307 307 307 305 304 302 301 300 300 300 300 300 299 299 299 299 298 297 294 293
323 327 326 317 315 321 322 320 319 318 318 317 315 312 309 308 306 306 306 306 306 306 305 303 304 305 304 303 300 299 299 299 299 299 297 296 295 293 292 292 291 291 291 291
323 323 322 316 320 318 319 319 317 317 316 317 311 310 308 307 305 304 304 303 303 303 303 302 302 302 301 299 298 299 298 295 293 292 291 290 290 290 292 292 291 291 290 290
321 321 320 318 318 316 315 316 315 316 316 313 311 309 307 306 304 303 303 302 301 301 301 301 300 299 299 298 296 293 292 291 291 290 290 290 289 289 288 286 285 285 286 286
321 321 316 317 317 317 315 313 313 315 314 312 310 308 307 305 303 303 302 300 299 299 299 297 297 296 294 293 292 291 290 290 290 289 288 286 286 285 284 283 283 282 282 281
324 321 320 321 319 317 315 314 313 314 312 311 309 308 305 304 302 301 299 298 297 297 296 295 294 293 292 291 290 290 289 288 287 286 285 284 283 283 283 282 281 281 280 279
319 316 317 316 314 316 314 314 312 312 312 310 308 305 304 302 301 299 297 296 296 296 295 294 292 291 290 290 289 288 287 286 285 284 283 282 282 281 282 281 280 280 279 278
314 314 314 312 314 313 312 311 310 310 309 307 305 303 302 300 297 297 296 295 295 294 293 292 291 290 289 288 287 286 285 285 283 282 282 281 280 280 280 279 279 279 278 278
314 313 313 312 311 310 310 308 307 306 305 304 302 301 299 297 297 296 294 294 293 293 291 290 289 288 287 286 285 284 283 283 282 281 281 280 280 279 278 278 278 277 277 276
310 310 310 308 307 305 305 305 305 303 302 301 300 298 297 296 294 292 292 293 292 291 289 289 287 286 285 284 283 283 282 281 281 280 280 279 279 278 277 277 277 276 276 275
308 306 305 306 304 303 303 302 302 300 299 298 297 296 294 292 289 288 288 289 290 289 287 286 286 285 283 282 282 281 280 280 280 279 279 278 278 277 277 276 275 275 274 273
308 309 308 309 305 303 301 301 299 298 297 295 295 294 291 291 291 291 290 290 289 287 285 284 284 283 282 281 281 280 279 279 279 278 277 277 277 276 276 275 274 274 273 273
306 305 305 303 301 302 302 301 297 296 294 294 294 294 294 293 292 291 290 289 286 285 284 283 282 281 281 280 279 279 278 278 277 277 276 276 276 275 275 274 274 273 272 272
305 305 303 302 300 299 297 295 296 294 294 294 294 292 292 291 291 290 288 286 284 283 282 281 281 280 279 279 278 278 277 277 276 276 275 275 274 274 274 273 273 272 271 270
296 297 296 298 295 295 296 296 295 294 293 293 293 292 291 290 288 287 285 283 282 281 280 279 279 278 278 277 277 276 276 275 275 275 274 274 273 273 272 272 271 271 269 269
293 294 294 294 294 293 294 294 293 292 292 291 290 290 289 287 286 284 283 282 281 280 279 278 278 277 277 276 275 274 274 274 273 273 272 272 272 272 271 270 270 270 269 268
293 293 293 293 293 292 292 291 291 290 290 288 287 286 285 284 282 280 280 279 279 278 278 277 276 276 275 274 273 273 273 272 272 272 271 271 270 270 270 269 269 269 268 268
292 292 291 290 291 290 289 287 287 286 286 285 284 282 281 281 280 279 279 278 278 277 277 276 275 274 273 272 272 272 271 270 270 269 268 269 268 268 268 268 268 268 268 268
288 288 288 288 287 285 285 284 284 283 283 283 283 282 281 281 280 280 279 278 277 276 275 274 273 272 272 271 271 270 269 268 267 267 267 266 267 267 267 267 267 267 267 268
287 286 285 284 283 283 283 283 283 281 281 281 280 280 279 279 278 278 277 276 275 274 273 272 272 271 270 269 269 268 268 266 266 265 266 267 266 266 266 267 267 267 267 267
284 283 283 282 282 282 281 281 281 280 279 279 278 278 278 277 276 275 274 273 273 272 271 271 270 269 269 268 267 266 265 265 265 266 266 266 265 266 266 266 266 266 267 267

GFSNGP_850_thetae_033.txt.gz
Theta_e
320 320 319 319 320 320 322 322 324 323 322 321 321 321 320 321 321 320 321 323 324 327 329 329 329 329 329 328 327 326 325 325 325 323 321 320 319 317 315 314 315 315 314 310
319 319 318 318 319 319 320 321 321 321 321 321 320 320 320 320 320 321 322 323 325 328 328 328 328 327 325 323 321 321 320 319 318 317 316 315 313 313 314 313 312 310 308 305
322 319 319 322 319 319 319 319 320 321 320 320 320 321 321 320 320 321 322 322 322 321 321 320 320 319 318 317 317 316 315 314 313 313 312 313 312 311 310 308 305 304 303 301
324 325 326 321 320 320 320 320 320 319 319 320 321 321 320 320 321 320 319 319 318 317 316 316 316 315 314 314 313 312 311 311 310 309 308 307 306 307 305 304 302 300 299 298
327 323 320 319 320 321 320 320 320 320 320 321 321 320 320 319 320 318 316 316 315 315 314 313 312 312 311 310 310 309 308 308 307 307 306 304 303 302 302 301 301 301 300 298
325 324 325 321 321 320 320 323 320 321 321 321 320 322 321 317 317 315 314 313 313 312 312 311 311 310 309 309 308 307 306 306 305 305 304 303 301 301 302 300 300 299 299 299
327 325 322 320 321 321 324 323 321 321 321 320 320 321 320 316 314 313 312 312 311 311 311 310 309 309 308 307 306 305 304 304 303 302 301 301 300 299 298 298 297 296 295 296
326 327 328 321 321 321 322 320 322 322 320 319 319 319 316 314 312 312 311 310 310 309 309 308 308 307 306 305 304 303 302 301 301 300 298 298 297 296 295 295 295 295 295 294
323 324 322 321 320 320 320 321 323 321 319 319 320 317 314 313 311 310 310 309 309 308 307 307 306 306 305 303 302 301 299 297 296 295 295 295 295 294 294 294 293 292 290 290
323 323 322 322 321 321 321 321 321 320 319 319 319 316 314 312 311 310 309 309 308 307 306 305 304 303 301 300 299 298 297 295 294 293 292 292 291 290 290 289 288 287 287 287
321 320 321 321 321 321 321 320 319 318 319 319 317 315 313 311 310 310 309 307 306 304 303 301 300 299 298 297 296 295 293 292 291 290 290 289 288 287 286 286 284 283 283 282
324 320 322 322 321 321 321 319 318 317 318 318 316 314 312 311 310 308 307 305 304 302 300 299 297 296 295 294 293 292 291 290 289 288 287 287 286 286 285 284 283 282 282 281
320 319 320 320 319 318 320 319 318 317 317 316 315 313 311 310 308 307 305 303 302 300 297 296 294 293 291 291 291 290 289 288 286 286 286 285 284 284 285 284 282 282 281 280
318 318 317 317 318 316 317 318 316 316 316 315 313 312 310 308 305 304 302 301 299 296 294 292 291 289 288 289 289 287 286 286 285 285 284 283 283 282 282 282 282 282 281 279
318 316 315 314 314 313 314 314 313 314 314 313 311 309 307 305 303 302 300 297 294 292 290 288 288 287 286 285 285 285 284 284 283 283 282 281 281 280 280 280 281 280 280 279
315 312 312 312 312 311 310 310 311 311 310 309 308 306 305 302 301 297 295 293 290 288 286 286 286 286 285 284 284 284 283 282 281 281 280 280 279 279 279 279 279 279 278 278
312 314 312 311 310 309 308 308 308 307 306 306 304 302 301 297 294 291 289 288 288 288 287 286 287 287 284 283 282 282 282 281 280 280 279 279 278 278 277 277 277 277 276 276
309 309 310 311 309 307 306 305 304 304 302 301 299 298 295 293 290 290 288 288 289 289 289 288 287 286 284 283 282 281 280 280 279 279 278 278 277 276 276 276 275 275 275 274
306 306 306 305 305 304 303 301 301 300 299 297 296 294 293 291 290 290 289 289 289 289 287 285 284 283 282 281 280 280 279 278 278 277 277 276 276 275 274 274 274 273 273 273
299 298 299 299 300 300 298 296 296 295 294 294 293 291 290 289 290 289 287 286 286 286 284 282 281 281 280 279 279 278 278 277 276 275 275 275 274 273 273 273 272 272 272 271
293 293 293 293 292 292 292 292 292 291 290 291 291 289 288 287 287 286 286 286 283 282 281 281 280 279 279 278 277 277 276 275 275 274 273 272 272 272 271 271 271 270 270 270
290 290 289 289 289 289 290 291 291 291 291 290 289 288 288 286 285 285 284 284 282 281 279 279 278 278 277 276 276 275 274 273 272 272 271 271 271 270 270 270 269 269 268 268
289 289 290 290 290 289 290 290 290 289 288 287 286 286 285 283 282 282 282 280 280 279 278 278 278 277 276 275 274 273 272 271 271 270 270 270 269 269 268 268 267 267 267 267
288 288 287 288 288 288 286 286 286 286 286 285 285 284 283 283 282 281 280 279 279 278 278 277 276 275 274 273 271 271 270 270 270 270 269 269 268 268 267 267 266 266 265 265
285 285 285 285 284 283 283 283 283 283 283 282 282 282 281 281 280 279 279 278 277 276 274 275 274 273 272 270 270 269 269 269 269 268 267 267 267 266 266 266 265 265 264 265
283 282 282 282 282 282 282 281 281 281 281 279 278 278 279 278 278 276 276 276 274 273 272 271 270 270 269 269 269 268 268 268 267 267 266 266 266 265 265 265 264 263 263 264
280 280 280 279 279 279 278 278 278 278 278 278 278 276 276 275 275 274 273 273 272 271 271 270 269 269 268 267 267 267 267 266 266 265 264 264 264 264 264 263 262 263 265 266

GFSNGP_850_thetae_036.txt.gz
Theta_e
321 321 321 321 321 320 321 326 327 326 326 325 324 322 321 321 322 321 320 321 322 326 329 329 329 330 331 331 331 331 331 329 329 328 327 324 322 321 318 318 317 316 315 313
321 321 320 320 320 321 320 320 321 322 323 322 323 321 321 320 321 321 321 322 323 325 330 330 330 330 330 329 329 327 327 326 326 323 320 318 316 315 314 314 313 314 312 311
324 322 320 320 320 320 320 321 321 321 323 322 322 321 320 321 320 320 322 323 325 328 329 329 329 328 325 324 322 322 321 320 318 316 316 315 314 313 312 311 309 307 306 304
324 322 323 320 320 319 319 320 320 320 320 320 320 320 321 321 321 321 323 324 325 324 324 324 322 320 319 318 317 316 315 314 313 312 311 310 308 309 309 306 304 302 301 300
325 324 321 319 320 320 321 321 320 320 321 320 319 319 321 320 320 322 322 322 321 320 319 318 317 316 315 314 313 312 311 310 309 309 308 307 306 305 304 303 302 301 300 299
325 325 325 322 321 320 320 322 321 321 321 321 321 324 323 320 321 321 320 319 317 316 315 314 313 312 311 311 310 309 309 308 307 306 305 305 303 303 302 301 300 299 299 299
324 325 324 321 320 319 322 323 322 321 321 322 324 323 321 320 320 318 317 316 315 314 313 312 311 311 310 309 308 308 307 306 306 305 305 303 302 301 300 299 299 298 296 296
325 324 324 322 320 321 323 322 321 321 322 320 319 320 320 319 317 316 315 314 313 313 312 311 310 310 308 307 306 306 306 305 304 303 301 300 298 297 298 297 296 295 295 295
321 324 323 319 320 321 321 322 321 322 322 321 321 320 318 317 316 315 314 313 312 311 310 310 309 308 307 306 305 304 303 302 300 298 297 297 296 296 295 295 295 294 293 291
316 320 321 322 322 321 321 322 321 321 322 321 321 319 317 316 314 313 313 312 311 310 309 309 308 307 306 304 303 301 299 297 296 295 294 293 292 292 293 292 290 289 287 287
318 316 314 317 318 321 322 321 322 321 320 320 321 319 316 315 314 312 311 311 310 309 308 307 306 304 303 301 299 298 297 295 294 293 291 291 290 289 289 288 286 285 284 284
319 318 320 320 319 320 321 320 322 320 319 319 320 319 316 314 313 312 311 310 309 307 305 303 302 300 299 298 297 295 293 293 291 290 289 289 289 288 287 286 284 283 283 282
317 318 319 318 319 320 319 319 320 320 319 319 319 318 315 313 312 311 310 308 306 304 302 300 298 297 295 295 293 292 292 291 289 288 288 287 286 286 286 286 284 283 283 282
316 317 318 316 318 318 317 317 318 318 318 318 317 316 314 312 311 310 307 305 303 301 298 296 294 292 292 292 291 290 289 287 287 286 286 285 284 284 283 284 283 282 282 281
316 317 317 316 316 315 314 315 316 316 316 317 316 314 312 310 308 306 304 302 299 296 294 291 290 288 287 287 286 285 286 286 286 285 284 283 282 282 281 281 281 281 280 280
313 314 314 314 314 313 312 312 313 315 315 314 313 311 309 307 305 303 301 298 294 290 288 287 287 285 285 285 285 285 285 284 285 284 282 281 281 281 280 280 280 279 279 279
311 312 311 312 314 312 310 310 311 312 311 310 308 307 305 303 300 297 295 293 289 288 288 287 285 283 285 288 288 288 289 286 282 281 280 280 280 279 279 278 278 278 277 277
307 308 308 309 311 309 307 307 307 308 307 305 305 303 300 298 295 292 290 290 289 286 285 287 289 289 288 287 287 284 282 281 280 280 279 279 279 278 277 277 276 276 276 275
303 304 304 305 304 305 303 303 303 302 301 301 301 298 295 293 291 289 288 288 287 287 285 286 287 286 285 282 281 281 281 280 279 278 278 278 277 276 276 275 275 275 274 273
295 297 298 298 299 299 297 296 297 297 296 296 294 292 291 289 288 287 287 286 285 285 285 285 285 283 283 282 281 279 278 278 277 277 276 276 275 275 274 274 273 273 273 272
290 290 291 292 291 291 291 291 292 290 290 291 291 288 287 286 286 286 286 286 284 284 284 283 282 281 279 278 278 278 277 276 276 275 274 274 273 273 273 272 272 272 271 271
287 288 288 288 288 287 288 289 289 288 288 288 288 286 285 284 284 285 284 284 282 282 281 281 279 279 279 278 277 276 275 274 274 273 273 272 272 271 271 271 270 270 269 269
286 286 287 287 287 286 287 287 287 287 286 285 285 285 285 283 283 284 283 281 280 279 279 279 279 278 277 275 275 274 273 273 272 272 271 271 271 270 269 269 268 268 267 267
286 286 285 286 286 286 285 284 285 285 284 284 283 282 282 282 281 280 280 279 278 277 277 276 276 275 274 273 272 272 271 271 270 270 270 270 269 269 268 268 267 267 266 266
284 284 284 284 283 283 283 282 282 282 281 281 281 281 280 280 279 277 278 277 276 275 274 274 273 272 272 271 271 270 270 269 269 268 268 268 267 267 267 267 266 266 265 264
282 282 282 282 281 281 281 281 281 281 280 279 278 278 277 276 276 276 275 274 273 273 272 272 271 270 270 269 269 268 268 268 268 267 267 266 266 265 265 265 265 264 264 263
280 279 279 279 279 279 279 278 278 278 278 278 277 276 276 275 275 274 273 273 272 272 271 271 270 269 269 268 268 267 267 267 266 266 265 265 264 264 264 263 263 263 263 264

GFSNGP_850_thetae_039.txt.gz
Theta_e
317 318 320 321 321 320 320 321 323 323 323 322 322 321 321 321 321 321 320 320 325 326 326 326 326 328 329 331 332 331 331 332 331 331 331 329 327 325 324 322 320 318 317 316
319 318 319 319 320 320 319 319 323 322 322 321 322 320 320 320 321 321 320 320 321 325 328 328 329 329 330 331 331 330 330 330 330 330 329 327 323 322 318 317 315 315 314 314
318 318 318 318 319 319 319 319 319 321 321 321 320 320 320 320 320 320 321 321 322 327 329 329 329 329 330 330 330 329 329 328 328 326 325 322 316 314 312 312 312 312 312 311
316 319 321 318 318 318 317 318 318 317 318 317 317 320 320 320 320 319 321 322 323 327 330 330 330 329 329 329 328 327 326 325 324 322 318 315 314 313 313 312 311 308 306 304
319 320 320 320 318 317 317 317 318 317 317 316 318 318 320 320 320 320 321 323 324 328 329 329 329 328 328 326 323 322 322 319 315 314 313 312 311 310 308 307 305 303 301 299
318 321 321 319 318 318 319 317 318 318 317 317 317 316 316 320 320 321 322 323 324 325 325 325 324 323 321 319 317 315 314 312 311 310 309 309 308 307 304 303 302 300 299 299
314 317 317 319 318 319 319 317 319 319 320 320 317 318 320 320 320 321 322 322 322 321 321 319 318 317 316 314 313 311 310 309 308 308 307 307 305 303 302 301 300 299 299 298
317 318 320 316 319 319 316 318 319 319 319 320 319 320 320 320 320 320 320 320 319 318 317 315 314 313 312 310 309 309 308 307 307 306 305 305 303 301 299 299 298 296 295 295
319 317 316 314 316 318 318 320 321 319 319 321 320 319 319 319 319 319 318 317 316 315 313 312 312 311 310 309 308 307 307 306 305 304 302 299 297 297 297 296 295 294 295 294
313 313 315 314 315 316 320 320 320 321 321 321 320 319 319 319 318 317 316 315 314 313 312 311 310 310 309 307 306 306 305 304 301 299 297 297 296 296 296 295 295 295 294 292
315 314 314 315 315 314 315 318 318 320 321 320 321 319 319 318 317 315 314 313 312 312 311 309 309 308 307 306 305 304 302 298 297 297 296 296 295 294 294 293 292 290 288 287
314 315 316 317 316 315 318 318 317 319 320 319 319 320 319 317 316 314 313 312 311 310 309 308 307 305 304 303 302 299 297 296 295 294 292 292 291 290 288 286 285 284 284 283
314 316 316 314 317 318 318 318 318 318 319 319 319 319 318 316 314 313 312 311 310 308 307 305 303 302 300 299 298 297 296 294 292 290 289 289 288 287 287 286 285 284 283 283
315 316 316 317 316 316 316 316 316 317 318 318 318 319 317 315 313 312 311 309 308 306 303 302 299 297 296 295 295 294 292 291 290 289 288 287 286 285 285 284 284 283 282 282
312 313 314 314 314 314 313 313 314 315 316 317 317 317 315 313 311 309 307 306 304 301 298 297 295 293 291 292 292 291 289 287 287 286 286 285 284 283 283 282 282 281 281 281
309 310 312 313 313 312 311 311 312 313 314 313 313 313 312 310 306 303 301 300 301 295 292 292 292 289 289 289 288 287 286 284 285 287 287 287 285 284 282 281 280 280 280 279
305 303 307 309 309 309 308 308 310 309 309 309 307 306 307 306 302 298 294 294 293 289 289 289 287 286 286 285 285 288 289 288 288 287 284 283 283 282 281 280 279 278 278 277
299 300 302 304 305 306 305 305 306 305 306 302 301 301 300 299 294 290 289 289 289 289 289 288 287 287 288 288 287 287 286 285 283 282 283 283 281 279 278 277 277 277 276 276
295 297 298 300 300 301 301 300 299 299 297 298 298 296 295 293 290 289 290 291 290 288 285 285 285 285 286 286 286 285 284 283 282 280 279 278 277 277 276 276 275 275 274 274
291 292 293 293 294 294 293 292 293 293 292 293 293 291 290 289 290 289 288 286 286 285 284 284 284 284 284 283 283 281 280 278 278 277 277 276 275 275 274 274 273 273 273 272
287 288 288 289 288 288 289 289 290 289 288 289 290 287 286 285 286 286 287 285 282 283 283 283 283 282 281 280 280 278 278 277 276 275 274 274 273 273 272 272 272 271 271 271
286 286 286 286 286 286 286 286 287 286 286 286 286 286 286 285 285 284 283 282 280 281 280 280 280 279 278 277 276 275 275 274 273 273 272 272 272 271 271 270 270 269 269 268
285 285 285 286 285 285 286 286 285 285 285 285 285 285 285 283 282 282 280 278 279 278 278 278 277 276 275 274 274 273 273 272 271 271 271 270 270 270 269 269 268 268 267 267
284 284 284 284 284 284 283 283 283 283 282 282 282 281 281 281 279 279 278 277 277 276 276 275 274 273 273 272 272 271 271 270 270 269 269 269 268 268 267 267 267 266 266 266
283 283 283 282 282 281 281 281 281 281 281 280 279 279 279 278 278 276 276 275 275 274 273 272 272 271 271 270 270 269 269 268 268 267 267 267 267 266 266 265 265 265 265 264
281 280 280 281 281 281 280 280 279 278 278 277 277 276 276 275 275 274 274 273 272 272 271 271 270 270 269 268 268 267 267 267 266 266 266 266 265 265 264 264 264 264 263 263
280 279 279 278 278 277 278 278 278 277 277 276 275 275 275 274 273 273 272 272 271 271 270 269 269 269 268 267 267 267 266 266 265 265 265 264 264 264 264 264 263 263 263 263

GFSNGP_850_thetae_042.txt.gz
Theta_e
320 319 316 317 318 318 318 318 319 318 320 320 318 319 319 321 320 320 320 323 323 323 323 324 322 323 324 326 328 328 327 327 327 326 324 327 328 327 325 324 324 324 322 320
316 318 318 316 317 318 319 318 318 318 319 319 320 320 320 320 321 320 320 320 321 325 323 324 323 323 323 326 329 331 329 329 329 329 329 327 326 327 325 324 322 319 318 316
315 316 317 316 316 317 319 318 319 319 319 319 319 319 318 320 321 320 321 320 320 323 324 325 325 325 325 327 329 330 330 331 329 328 326 327 326 323 321 319 317 316 314 312
314 315 321 318 316 316 318 317 316 316 316 317 319 320 320 320 320 321 321 320 320 320 323 325 327 328 328 329 330 330 329 328 327 326 324 323 322 320 319 315 311 311 311 311
315 317 318 318 317 317 316 317 316 316 315 314 317 317 318 319 320 320 320 320 320 321 321 326 328 329 329 328 328 328 327 325 324 323 321 318 316 314 312 312 311 309 307 306
313 314 320 316 317 317 317 316 315 316 316 315 316 313 312 319 320 320 320 319 320 322 326 328 328 328 328 328 326 325 324 323 321 319 317 314 313 311 310 309 306 304 302 300
313 314 316 317 315 317 319 317 316 317 317 316 314 316 319 319 320 320 319 321 322 323 326 328 329 329 328 327 324 322 321 319 316 313 312 310 309 308 307 304 303 301 300 299
313 314 317 315 316 319 316 317 320 319 319 318 318 320 320 319 320 320 321 322 323 324 327 327 327 326 324 322 320 318 315 313 311 309 308 307 306 304 303 302 301 300 298 298
313 313 316 315 314 315 318 319 318 318 319 319 319 319 320 320 320 320 320 321 322 323 322 321 320 320 319 317 315 313 311 309 308 307 306 305 304 303 301 300 300 299 298 298
315 314 313 314 315 315 314 315 317 317 319 320 318 319 320 320 320 320 321 320 320 320 318 316 315 315 314 313 311 310 308 307 306 305 304 302 301 299 298 298 297 295 295 294
314 313 313 314 313 315 312 314 315 316 318 319 319 320 318 319 319 319 319 318 318 317 315 313 312 311 310 310 309 308 306 305 304 302 300 298 298 298 297 296 295 295 294 293
312 311 311 311 312 313 314 314 317 315 317 318 318 319 319 317 316 317 316 315 314 313 312 311 310 309 308 307 307 306 305 302 300 299 298 296 295 294 293 293 292 290 289 288
310 312 315 315 314 316 316 316 315 314 315 316 318 319 319 316 315 315 314 313 312 311 310 309 308 307 305 305 305 304 301 297 295 294 293 293 291 290 289 286 286 285 284 283
309 312 314 313 313 314 314 314 314 316 315 316 317 318 318 318 314 313 312 311 310 309 307 306 305 303 301 301 300 299 297 294 293 291 290 289 288 287 286 285 285 284 284 284
306 308 308 311 311 311 312 312 313 313 313 315 315 315 313 312 310 308 307 307 306 304 301 300 299 296 295 295 296 294 293 290 289 288 287 286 286 286 286 285 286 284 282 281
303 306 306 306 306 308 310 310 310 308 308 307 309 308 306 306 305 302 299 298 302 297 294 294 294 290 291 291 291 291 290 289 287 287 288 287 285 286 285 283 282 281 281 280
299 299 301 301 301 302 301 302 302 300 300 302 299 297 297 298 295 293 293 292 291 290 288 290 289 290 291 291 289 287 286 286 287 287 286 285 284 283 282 281 280 279 279 278
295 295 296 297 297 298 297 297 298 298 297 295 295 296 293 292 288 287 287 288 289 290 289 288 287 287 286 286 286 287 286 286 285 284 283 282 281 281 280 279 278 277 276 276
291 291 291 292 292 293 293 293 292 291 291 292 293 291 290 288 289 289 289 289 288 287 284 285 285 286 286 285 285 284 284 283 282 281 280 280 279 277 276 276 275 275 274 274
287 288 289 289 289 289 288 288 289 290 289 290 289 289 288 287 287 287 287 285 284 283 283 283 284 284 284 283 283 282 281 280 279 278 277 276 275 275 274 273 273 273 272 272
285 285 286 286 286 287 287 288 289 288 287 288 288 287 286 285 285 285 285 283 279 281 282 282 282 281 281 280 279 279 278 277 276 275 274 273 273 272 272 271 271 271 270 269
284 284 284 284 285 284 285 286 286 286 286 285 285 285 284 283 283 282 281 280 278 279 280 280 279 278 278 277 277 275 274 274 273 272 272 271 271 271 270 270 269 269 268 267
283 283 283 283 283 283 284 284 284 284 283 283 283 283 282 281 281 281 279 277 278 278 278 278 276 275 274 274 273 272 272 271 271 270 270 269 269 268 268 267 267 267 266 266
282 282 282 282 282 283 282 282 282 282 281 281 281 280 280 280 278 277 277 276 276 275 274 273 272 272 271 271 270 270 269 269 269 268 268 267 267 266 266 266 265 265 265 264
282 282 283 282 281 280 280 280 280 279 279 278 278 277 277 276 277 274 274 274 273 273 272 271 271 270 270 269 269 269 268 268 267 267 266 266 266 265 265 265 264 264 264 264
281 280 280 280 280 279 279 279 278 277 277 276 275 275 274 274 274 273 273 272 272 271 271 270 269 269 268 268 268 267 267 266 266 266 266 265 265 265 265 265 264 264 264 264
279 278 277 277 277 277 277 277 277 275 275 275 274 273 273 273 272 272 271 271 270 270 269 268 268 268 267 267 267 267 267 266 266 265 265 265 265 265 264 264 264 264 264 264

GFSNGP_850_thetae_045.txt.gz
Theta_e
316 315 316 316 319 318 316 316 317 317 317 317 317 317 316 320 320 318 319 319 323 324 323 322 323 323 324 325 325 325 325 325 325 326 326 326 326 326 324 326 327 326 324 323
314 315 314 315 315 316 317 315 315 316 316 316 317 318 317 318 320 320 319 320 322 324 323 322 323 322 322 323 324 325 326 326 325 326 327 327 326 324 323 325 326 326 323 322
313 312 313 313 315 315 316 316 317 318 317 316 317 317 317 319 319 320 320 320 320 321 322 323 322 322 321 322 321 323 325 327 326 326 326 326 326 324 323 324 325 325 323 322
313 312 313 310 312 312 315 316 315 316 316 316 316 318 319 319 321 321 322 322 320 320 320 321 323 324 323 324 324 325 327 328 329 327 327 327 325 325 326 324 323 322 320 317
310 312 312 309 313 315 314 316 315 315 315 314 318 315 314 317 319 320 320 320 320 321 321 320 323 324 325 326 326 327 328 328 328 328 326 325 325 325 323 322 319 318 315 313
312 310 310 307 313 314 316 319 315 318 314 314 315 314 313 318 318 318 319 321 320 321 321 319 321 326 327 327 327 328 329 329 327 325 325 325 324 322 320 318 315 311 309 309
314 314 310 311 313 315 319 316 316 319 317 316 313 315 318 319 318 318 319 320 320 319 319 320 323 326 327 328 328 328 327 326 326 324 323 322 320 317 314 312 310 308 305 303
312 314 314 312 316 316 315 313 316 318 318 318 319 318 317 318 318 319 319 319 319 318 320 323 325 327 327 327 326 325 324 323 321 319 317 315 313 312 309 308 305 303 301 300
310 310 311 316 316 313 314 314 316 317 317 318 319 319 318 318 318 318 319 319 320 321 323 325 327 327 326 325 323 321 319 316 314 311 309 307 306 305 303 302 301 300 299 298
311 311 311 312 312 313 315 315 314 315 316 318 318 318 318 318 318 318 321 321 322 324 325 325 326 324 323 322 319 316 313 310 308 306 305 303 302 301 301 300 300 299 298 297
310 311 312 313 313 313 314 315 314 315 316 317 318 318 318 318 318 318 318 318 320 322 323 323 321 319 317 316 314 311 309 307 305 304 303 301 300 299 299 298 298 298 297 296
309 311 310 312 313 314 314 314 313 315 314 315 316 317 318 318 317 317 317 316 316 317 318 317 314 313 312 311 309 309 307 305 304 303 301 300 299 297 296 295 294 293 293 292
307 306 308 311 311 312 312 313 315 316 315 315 315 316 318 317 317 315 314 313 313 313 313 311 310 309 308 307 307 306 306 304 302 299 298 297 296 295 295 291 290 289 288 287
304 307 310 309 306 309 311 311 311 312 312 313 314 315 316 316 312 312 313 312 310 309 308 306 307 306 305 304 304 304 302 300 298 296 293 291 289 288 287 287 286 285 284 284
304 303 303 303 306 308 308 309 309 309 308 309 309 309 310 313 309 304 302 301 304 306 303 302 301 300 298 298 299 296 293 291 289 289 289 289 289 287 286 286 287 286 285 283
300 302 302 302 302 302 302 302 300 297 300 300 301 301 300 298 299 298 295 295 299 295 295 295 293 289 289 290 292 292 292 291 290 289 288 287 287 287 286 285 284 282 281 280
297 298 296 296 297 296 293 293 294 292 292 296 294 292 293 292 291 291 291 291 292 289 289 290 289 290 291 292 292 290 289 288 287 287 286 285 285 284 283 281 280 280 279 278
292 292 292 292 291 291 291 290 291 289 288 287 289 291 291 292 289 288 288 289 290 289 288 288 288 289 289 288 287 287 286 286 285 284 283 282 281 281 280 279 278 277 276 276
288 289 288 289 288 289 288 287 287 288 287 287 288 288 287 287 287 286 287 288 287 286 283 285 285 286 285 285 285 284 284 283 282 282 281 280 279 278 277 276 275 275 274 273
284 284 285 285 285 285 284 285 286 286 286 287 287 287 286 285 285 286 286 284 282 281 282 283 283 284 283 282 282 282 281 281 280 279 278 277 276 275 274 273 273 272 272 271
283 284 284 284 284 284 284 285 286 285 285 286 286 284 283 282 283 283 283 281 279 280 281 282 282 281 281 280 280 279 278 277 276 275 274 273 273 272 272 271 270 270 269 269
283 283 284 285 285 284 284 284 285 284 284 283 282 282 282 281 281 281 279 279 278 279 279 279 278 277 277 276 275 274 274 273 273 272 272 271 270 270 269 269 268 268 267 267
283 284 284 284 283 283 283 283 283 283 283 282 282 282 281 279 279 279 278 276 277 276 276 274 273 273 273 273 273 272 271 271 270 270 269 269 268 268 267 267 266 266 265 265
283 282 282 282 282 282 281 280 281 281 280 280 279 279 279 278 277 276 275 274 273 273 273 272 271 271 271 270 270 270 269 269 268 268 268 267 267 266 266 266 266 265 265 264
282 282 282 282 281 279 279 279 279 279 278 278 277 276 276 275 275 273 273 272 272 271 271 270 269 269 269 269 269 268 268 268 268 267 267 266 266 266 266 266 266 266 265 265
281 281 280 280 279 279 279 278 278 276 276 275 275 274 274 273 273 272 272 271 270 270 269 269 268 268 269 269 268 268 268 267 267 267 266 266 266 266 266 266 265 265 265 265
279 279 278 278 277 277 277 276 276 275 274 274 273 273 272 272 271 271 270 270 269 269 268 268 268 268 268 268 267 267 267 267 267 266 266 266 266 266 266 266 265 265 265 265

GFSNGP_850_thetae_048.txt.gz
Theta_e
318 317 315 315 313 314 314 315 316 316 314 314 314 314 316 319 319 319 320 319 319 320 320 321 323 324 323 323 323 323 324 324 324 324 324 323 323 323 323 323 323 323 323 323
314 316 315 313 313 313 315 315 315 315 314 312 314 315 315 317 318 319 319 319 320 319 320 322 322 321 322 321 321 322 323 323 324 324 324 324 324 324 324 324 324 324 324 324
313 312 312 311 311 313 313 312 314 315 314 313 314 314 314 317 318 319 320 320 320 320 320 321 322 321 321 321 321 322 323 324 324 324 324 325 325 325 325 325 325 325 324 324
310 310 312 308 310 311 310 312 312 312 312 314 314 317 319 318 318 318 318 319 320 321 321 320 321 321 321 322 322 322 324 324 324 324 325 325 325 325 326 325 325 324 323 322
308 311 310 308 308 309 313 309 312 310 313 316 316 313 314 317 318 318 317 318 319 320 321 321 321 320 321 323 323 323 324 325 325 326 326 325 325 325 325 324 322 321 321 320
310 309 307 306 311 314 314 311 314 315 316 316 316 313 314 317 317 318 319 319 318 317 318 319 320 320 319 323 324 325 326 326 327 328 327 325 323 322 321 321 320 319 318 315
311 313 309 308 310 314 313 309 314 313 314 315 315 314 316 318 317 316 317 318 319 318 319 319 319 319 319 322 325 326 327 328 328 327 325 324 323 322 320 319 317 315 313 310
311 313 310 309 315 313 311 313 313 313 314 315 315 315 317 316 316 316 316 318 318 317 318 318 318 319 321 325 326 327 328 328 326 325 323 323 321 319 316 314 312 310 308 307
308 308 308 313 315 315 315 312 313 314 313 313 314 315 317 315 316 317 317 318 318 318 318 319 321 323 325 326 326 326 326 325 324 323 320 318 315 313 311 309 308 307 304 303
308 308 308 310 311 312 312 313 313 313 313 313 314 315 317 316 315 317 318 319 320 320 321 322 323 324 325 325 324 324 323 322 320 318 315 312 310 309 308 306 304 302 301 299
308 307 309 310 311 311 312 314 313 314 313 313 314 316 315 316 315 315 317 317 319 320 320 319 319 322 322 323 322 320 317 315 313 311 308 307 304 302 302 301 300 300 299 298
306 306 307 308 310 309 310 311 311 313 313 313 312 313 314 315 313 313 314 314 316 315 318 316 316 317 317 316 314 313 312 309 307 306 304 303 302 302 300 299 298 298 297 296
306 305 305 306 308 308 306 310 310 306 312 311 313 311 312 312 310 311 310 311 311 314 311 310 312 311 310 309 308 308 308 306 304 303 302 301 299 299 298 294 293 293 292 291
302 303 306 304 302 303 303 310 306 303 304 305 306 307 308 307 304 305 307 306 305 305 308 308 308 306 304 305 305 305 303 301 300 298 297 295 293 292 292 291 291 290 288 286
300 301 300 300 300 301 297 302 301 299 298 299 298 299 299 300 298 295 295 296 299 299 298 299 303 298 299 299 300 299 298 296 295 294 292 291 290 289 288 287 286 286 285 283
296 298 299 298 297 298 297 298 293 289 290 292 293 292 292 293 291 291 292 293 297 292 291 293 290 290 292 294 294 293 292 291 291 290 289 288 287 286 286 285 283 282 281 280
293 294 293 293 291 291 293 289 287 287 287 287 287 286 289 290 290 290 289 289 289 289 289 289 289 289 291 291 292 290 289 288 287 287 286 285 285 284 283 282 281 280 279 278
289 289 289 289 288 288 287 286 287 285 286 286 287 286 286 287 285 285 287 288 288 288 287 286 287 288 288 288 288 287 286 286 285 285 283 282 282 281 280 279 278 277 276 276
286 286 285 286 285 285 284 283 284 285 285 287 287 286 285 285 285 285 285 287 286 284 282 284 285 286 285 285 285 284 284 283 282 282 281 280 279 278 277 276 275 274 274 273
283 283 284 283 284 285 283 282 283 283 284 285 285 285 284 283 284 284 284 282 280 280 281 282 283 283 282 282 282 282 281 281 280 279 278 277 275 274 273 273 272 272 271 270
282 283 283 283 283 283 283 283 284 284 284 285 285 283 282 281 282 281 282 280 278 279 280 281 281 280 280 280 279 278 277 276 275 274 273 273 272 272 271 270 270 269 269 269
282 283 283 283 283 283 283 283 283 283 282 282 281 281 281 280 280 280 278 278 277 278 278 278 276 275 275 275 274 274 273 273 272 271 271 270 270 269 269 269 268 268 268 267
282 282 283 283 282 282 282 282 282 282 281 281 281 281 280 279 278 278 277 274 274 274 274 273 272 272 272 272 271 271 271 270 270 270 269 269 269 268 268 268 268 267 267 267
282 282 281 281 281 282 281 280 280 280 279 278 278 277 277 277 275 274 273 272 272 272 272 271 271 270 270 270 270 270 269 269 269 269 268 268 268 267 267 267 267 267 267 266
282 281 281 281 281 279 279 279 278 278 277 277 276 275 274 274 274 272 272 271 270 270 270 269 269 269 269 269 269 269 269 268 268 268 268 267 267 267 267 267 267 266 266 266
280 280 279 279 278 278 277 277 276 275 275 274 273 273 272 272 271 271 270 270 269 269 269 269 269 269 269 269 268 268 268 268 267 267 267 267 267 267 266 266 266 266 266 266
278 278 277 277 276 276 275 275 274 273 273 272 272 271 271 271 270 270 269 269 269 268 268 268 268 268 268 268 268 268 267 267 267 267 267 267 266 266 266 266 266 266 266 266

GFSNGP_850_thetae_051.txt.gz
Theta_e
314 315 316 316 314 313 314 314 316 316 318 317 317 318 317 316 316 316 318 318 319 319 319 319 320 321 323 323 324 324 324 324 324 324 323 322 320 319 318 318 318 316 316 317
315 316 315 314 313 313 313 313 314 316 316 316 316 314 314 314 316 316 317 318 319 319 318 319 320 320 321 321 321 322 322 322 323 323 323 323 323 322 321 320 319 318 319 319
313 312 312 312 313 313 312 313 313 313 313 315 315 315 317 316 315 316 318 318 319 320 320 319 319 319 321 320 321 321 320 321 322 322 322 323 323 323 323 323 322 322 322 322
313 311 312 310 309 310 312 312 312 313 313 313 314 316 317 317 315 315 317 318 318 318 318 320 320 320 320 321 321 321 321 320 321 322 322 323 323 324 323 323 323 323 324 324
313 313 311 309 309 309 310 310 312 315 316 316 315 316 317 318 315 315 315 314 316 317 318 318 320 320 320 321 322 321 321 321 322 323 323 323 324 324 324 323 324 325 323 323
312 311 311 308 312 314 313 312 314 315 314 314 315 318 318 316 315 317 318 318 317 317 316 317 317 318 320 320 319 321 321 322 322 323 323 324 325 324 324 324 324 323 322 321
313 312 311 309 309 311 313 312 312 313 314 314 315 315 314 314 315 316 316 317 317 317 316 316 317 318 317 318 318 320 322 324 324 324 325 325 324 322 322 321 320 320 318 316
312 313 312 308 314 314 312 313 313 313 313 314 313 313 313 314 314 315 315 316 316 315 315 317 317 318 318 317 319 322 324 326 325 325 324 324 322 321 320 320 318 314 311 310
311 312 309 309 312 312 311 312 313 313 313 313 313 313 314 314 313 314 314 316 316 316 317 317 317 318 319 320 321 323 324 323 324 323 321 321 320 319 318 313 310 308 307 307
308 309 309 309 309 310 309 310 310 312 313 313 313 313 314 314 312 312 313 314 316 315 317 318 320 321 322 322 323 323 323 323 321 320 319 316 313 312 310 309 308 307 305 302
309 309 309 309 308 306 309 308 308 310 311 311 313 313 309 313 311 309 310 311 314 315 316 316 317 319 320 321 321 321 320 319 317 315 313 311 308 306 305 304 302 302 301 299
310 305 305 306 306 304 305 303 303 303 308 313 311 308 304 310 306 307 307 306 311 311 312 314 315 316 314 315 316 318 318 313 310 309 307 305 304 302 300 300 299 298 298 297
305 303 304 304 305 305 304 301 299 300 300 306 311 302 300 302 304 300 302 304 306 306 305 307 310 311 311 310 310 310 308 305 304 304 303 302 300 298 298 293 294 293 292 291
300 302 305 303 301 302 301 298 297 298 296 298 304 298 296 297 299 296 297 295 297 299 302 303 302 301 302 304 306 306 305 304 300 297 297 295 294 294 293 292 292 290 288 288
295 297 298 299 300 299 299 296 295 297 296 295 296 294 291 291 291 290 290 293 294 295 293 296 296 294 296 297 298 298 297 296 295 293 292 292 292 291 290 289 288 287 285 284
292 294 297 296 295 295 293 291 289 287 289 289 289 289 287 287 287 288 290 291 294 290 290 291 291 292 293 294 294 294 293 293 292 291 290 290 289 288 287 286 285 283 282 281
291 293 291 291 290 290 289 287 286 285 285 287 285 286 287 287 285 285 286 287 288 288 288 289 289 290 291 291 292 290 289 289 289 288 287 286 286 285 283 282 281 280 280 278
287 288 287 287 287 286 285 284 284 283 283 283 284 285 286 286 286 284 284 285 286 286 286 285 286 287 287 288 288 287 287 286 286 286 284 284 283 282 281 280 279 278 277 276
285 284 284 284 284 283 282 282 281 282 283 284 285 284 283 283 283 283 284 284 284 283 282 283 285 285 285 285 285 285 285 284 283 282 281 280 280 279 278 277 276 275 274 273
282 282 282 282 282 282 281 281 282 283 283 283 283 283 282 281 282 283 283 281 280 279 281 282 282 283 282 282 282 282 281 281 280 279 278 276 275 274 274 273 273 272 271 271
281 281 281 281 281 281 281 282 283 282 282 283 283 281 280 279 279 280 280 279 277 279 279 279 278 277 276 276 276 276 275 275 274 274 273 273 272 272 271 270 270 269 269 269
281 281 281 281 282 281 281 282 282 281 282 281 280 280 280 279 279 280 278 277 274 275 275 275 274 274 273 273 273 273 273 272 272 271 271 270 270 270 269 269 269 268 268 268
281 281 281 281 281 280 281 281 281 281 280 280 280 279 278 277 275 275 275 272 272 273 273 272 272 271 271 272 271 271 271 270 270 270 269 269 269 269 268 268 268 268 267 267
281 281 281 280 281 281 280 279 279 278 278 277 276 275 275 275 274 273 272 271 271 271 271 270 270 270 270 270 270 270 270 269 269 269 268 268 268 268 268 268 267 267 267 267
281 281 280 280 280 279 278 277 277 276 276 275 274 274 273 273 273 271 271 270 270 270 270 270 270 269 269 269 269 269 268 268 268 268 268 267 267 267 267 267 267 267 267 267
280 280 279 278 278 277 276 276 275 274 274 274 273 272 271 271 270 270 270 269 269 269 269 269 269 269 269 268 268 268 267 267 267 267 267 267 267 266 266 266 266 266 266 266
278 278 277 276 275 275 274 273 273 272 272 271 271 270 270 270 269 269 269 269 268 268 268 268 268 268 268 267 267 267 267 267 266 266 266 266 266 266 266 266 266 266 266 266

GFSNGP_850_thetae_054.txt.gz
Theta_e
314 314 314 315 316 316 316 317 318 318 317 317 316 316 318 318 318 318 319 319 320 320 320 322 325 326 326 326 325 324 324 323 324 324 323 320 319 317 316 316 316 316 317 317
312 312 314 315 314 314 315 314 315 316 317 317 315 315 315 315 316 317 318 319 319 320 320 319 320 324 326 326 324 324 324 324 323 323 323 323 323 321 320 319 318 318 318 319
311 313 312 312 313 314 315 315 314 314 314 313 313 314 314 314 316 318 318 318 318 318 320 320 319 319 318 320 326 324 323 323 323 323 323 323 323 322 322 321 321 321 321 320
313 314 312 311 312 312 313 313 312 312 312 314 315 316 317 317 318 318 318 319 319 319 318 319 319 318 317 321 324 325 322 323 323 322 322 322 322 322 321 321 321 322 321 321
314 314 312 311 310 310 311 310 312 314 314 314 314 315 316 318 316 317 317 318 318 318 319 319 317 318 317 319 322 324 323 321 321 322 323 323 323 323 322 322 322 322 322 323
313 311 311 311 313 313 313 312 314 314 315 315 315 317 317 315 316 317 317 317 316 316 317 317 317 316 316 317 318 322 322 324 324 323 324 324 324 324 323 323 322 324 324 323
312 314 312 311 310 312 316 316 313 313 313 313 316 317 315 315 315 316 315 315 315 316 317 318 317 317 316 316 317 320 321 321 323 324 324 324 323 323 323 323 323 323 322 321
311 312 313 311 312 313 317 314 312 312 312 313 315 315 315 315 315 315 314 313 313 314 315 316 317 318 318 319 321 320 319 319 320 321 321 322 322 323 323 323 322 321 319 316
311 312 312 312 314 312 312 313 313 313 313 314 315 315 313 313 313 312 311 310 309 309 309 313 315 315 318 318 319 319 320 321 321 321 321 323 323 322 321 320 318 316 312 310
311 311 311 310 311 310 310 310 309 309 310 312 313 314 312 312 310 311 309 309 305 307 306 309 313 314 314 316 317 319 321 321 322 323 321 320 319 318 316 315 312 309 307 306
310 310 309 309 311 309 307 307 306 306 305 306 305 307 305 305 304 309 308 308 306 302 305 304 304 309 312 313 315 318 319 317 317 318 317 313 311 309 308 306 305 305 303 302
310 310 309 309 308 305 306 305 304 303 303 301 300 300 299 298 298 304 305 305 303 297 303 303 301 305 309 310 310 312 312 309 308 308 308 306 305 302 300 300 299 299 298 299
308 305 306 306 306 301 302 301 299 298 297 297 296 296 295 293 297 296 297 299 302 293 296 297 297 300 303 305 306 305 305 304 302 302 301 299 297 297 295 292 293 293 292 292
300 299 304 301 302 300 298 296 296 295 293 292 292 292 291 291 294 293 293 292 294 294 292 294 297 295 297 299 301 301 296 297 299 296 295 295 293 292 291 291 289 287 287 288
295 296 296 297 297 297 297 295 294 292 291 289 287 287 288 292 289 288 288 289 289 292 290 292 292 292 294 296 299 297 296 294 293 292 291 290 290 289 288 287 286 284 283 283
293 295 295 294 293 293 293 291 291 288 288 286 284 284 285 286 285 286 288 289 289 288 289 290 290 291 292 294 294 294 293 292 291 290 290 289 288 287 286 285 284 282 281 280
292 295 292 292 290 287 287 286 286 285 284 283 282 282 283 284 285 285 285 286 287 287 287 288 287 288 289 290 290 289 289 289 289 288 287 286 286 285 283 282 281 280 279 279
287 287 286 287 287 286 284 283 283 282 281 282 282 283 284 284 282 282 283 284 285 285 284 284 285 287 287 287 287 287 287 287 286 285 284 283 281 279 278 277 276 275 275 277
284 284 284 283 283 282 281 281 281 281 281 282 283 283 282 282 282 282 283 283 283 282 281 283 284 285 285 284 284 284 283 283 282 281 280 279 277 276 275 274 274 273 273 272
281 282 281 281 281 281 280 280 281 281 281 282 282 282 281 280 281 282 282 281 279 279 280 280 280 280 280 280 281 280 280 279 278 277 275 274 273 273 273 272 271 271 270 270
280 280 281 281 280 280 280 281 282 281 281 281 282 281 280 280 280 280 280 279 276 276 276 275 276 276 276 275 276 275 275 274 274 272 272 271 271 270 270 270 270 269 269 268
280 281 281 281 281 281 281 281 282 281 281 281 280 279 279 278 277 276 275 273 273 274 274 274 273 273 273 273 273 273 273 272 272 271 271 270 269 269 269 269 269 268 268 267
281 281 281 281 281 280 280 280 280 279 279 278 277 277 275 273 273 272 271 271 271 272 272 271 271 271 272 272 272 271 271 271 270 270 270 270 269 269 269 268 268 268 268 268
280 280 280 280 280 279 278 276 277 276 276 276 275 274 273 272 272 271 271 270 270 271 271 270 270 271 271 271 270 270 270 270 269 269 269 269 268 268 268 268 268 267 267 267
280 280 279 278 277 276 276 275 275 274 274 273 272 272 271 271 270 269 270 269 269 269 269 269 269 270 270 269 269 269 269 269 268 268 268 268 268 268 267 267 267 267 267 267
279 279 278 277 276 275 274 274 274 273 272 271 270 270 270 270 269 269 269 269 269 269 269 269 269 269 269 269 269 268 268 268 268 267 267 267 267 267 267 267 267 267 267 267
278 276 275 274 274 274 273 273 272 271 271 270 269 269 269 269 269 269 269 268 268 268 268 268 268 268 268 268 267 267 267 267 267 267 267 266 266 266 266 266 266 266 266 266

GFSNGP_850_thetae_057.txt.gz
Theta_e
316 317 317 318 319 319 319 320 321 321 321 320 320 319 318 317 316 316 318 320 320 321 321 322 324 328 329 329 329 329 328 327 326 325 323 324 324 324 323 323 322 322 322 322
317 315 315 316 317 317 317 317 317 318 318 318 318 317 316 316 314 315 316 319 320 321 320 320 321 322 327 328 329 329 329 328 327 326 326 325 325 324 323 323 323 322 322 322
316 314 314 314 315 316 317 317 317 318 318 315 315 314 315 315 316 317 318 319 319 320 321 321 321 321 322 325 328 329 329 328 328 327 326 326 325 325 324 323 323 323 322 322
316 315 317 314 314 314 315 315 316 314 314 314 315 315 315 315 319 319 318 319 319 320 319 319 320 321 321 321 323 327 328 328 328 327 327 326 326 325 325 324 323 323 322 322
314 315 314 313 312 312 312 312 312 313 315 315 315 315 316 317 316 317 318 318 318 318 318 319 319 320 320 320 320 322 326 328 327 327 326 326 326 325 325 324 324 324 324 324
314 313 313 312 313 314 313 312 315 315 316 315 315 317 318 316 316 316 316 316 315 316 317 318 319 320 321 319 319 320 322 326 327 327 326 325 325 325 324 324 323 323 323 323
312 313 312 311 312 311 315 316 314 314 314 314 315 314 315 315 316 315 315 314 313 313 313 312 313 312 316 321 321 320 320 322 326 327 326 326 325 325 325 324 324 323 322 323
312 313 312 312 312 313 316 314 314 313 314 315 315 315 314 316 315 315 313 311 310 309 308 312 314 314 314 317 321 322 322 322 324 326 327 326 326 325 325 325 324 323 320 320
311 312 313 312 314 314 313 313 313 313 313 313 313 313 314 315 314 312 310 307 305 305 306 311 312 310 309 313 315 318 320 321 322 324 325 325 325 325 324 322 322 320 316 315
313 312 312 311 313 312 311 311 311 310 310 310 311 311 311 309 309 306 304 302 301 303 305 308 311 306 303 304 308 312 316 317 318 320 321 321 320 320 319 318 315 313 312 309
311 311 311 311 312 311 310 309 309 308 308 308 306 307 306 306 302 299 297 296 296 301 295 303 307 303 300 299 301 305 309 310 311 311 311 310 310 308 309 307 308 307 303 301
311 312 312 311 310 308 307 307 306 305 305 303 303 302 301 299 295 293 292 295 296 297 298 297 303 299 297 297 297 299 301 299 300 303 300 298 298 297 297 299 300 299 297 297
310 307 307 307 307 305 304 302 301 300 299 299 298 297 295 292 289 290 292 293 294 292 293 293 297 295 293 296 293 295 295 294 293 296 293 290 292 292 289 289 290 291 292 292
302 302 306 303 303 299 299 299 298 297 296 293 292 292 290 288 287 288 288 288 290 290 291 290 293 292 290 289 293 292 291 294 295 294 293 294 289 290 291 291 289 286 286 287
299 299 300 299 298 296 296 295 295 292 291 289 287 287 286 285 285 285 285 286 287 288 288 287 290 290 289 290 290 291 290 291 291 291 291 291 289 290 288 287 285 283 282 282
295 298 297 296 294 293 292 292 292 288 287 285 285 284 283 283 283 284 285 286 288 286 286 286 286 287 288 289 289 289 289 289 289 289 288 288 287 287 286 284 283 281 280 280
293 297 293 294 292 290 288 287 286 285 283 282 282 282 282 282 282 283 283 284 285 285 285 285 285 286 286 286 287 285 285 285 285 285 284 283 283 282 281 281 280 279 278 278
288 288 288 288 289 288 285 284 283 282 281 280 282 282 282 282 281 281 281 282 284 284 284 283 284 285 286 285 285 285 284 283 282 281 280 280 279 279 278 277 277 276 275 275
286 285 285 285 284 283 282 281 280 280 280 281 282 282 281 281 281 281 282 283 283 282 280 280 282 283 284 284 282 281 281 279 278 278 277 277 276 276 276 276 275 275 274 273
282 282 281 280 281 280 280 280 280 280 280 281 281 281 280 279 279 280 281 281 278 276 276 278 277 277 277 277 277 276 276 276 276 275 275 275 275 274 273 273 273 273 272 271
280 280 279 280 280 280 280 281 281 281 281 281 282 281 280 279 279 277 276 275 274 274 275 275 275 274 274 274 274 274 274 274 274 273 273 273 273 272 272 272 271 271 271 270
279 280 280 280 280 280 280 280 280 280 279 278 277 277 277 276 275 274 273 272 271 272 273 273 273 273 273 272 272 272 272 271 271 271 271 271 271 271 270 270 270 269 269 268
280 280 280 280 280 280 280 280 279 279 279 277 276 275 274 273 273 273 272 271 271 272 272 272 272 272 272 271 270 270 270 270 270 269 269 269 269 269 268 268 268 267 267 267
280 280 279 279 279 278 278 276 276 275 275 274 274 274 274 273 272 271 270 270 271 271 271 271 271 271 270 269 269 269 269 269 269 268 268 268 267 267 267 267 267 266 266 266
280 279 279 279 279 278 277 276 275 275 274 274 273 272 271 271 271 270 269 269 270 269 269 270 270 270 269 269 269 268 268 269 269 267 267 267 266 266 266 266 266 268 267 267
279 278 277 277 278 277 277 277 277 276 275 274 272 271 270 270 270 270 269 269 270 269 268 269 270 268 268 268 268 268 267 267 267 266 267 266 266 265 265 267 267 267 267 267
278 278 277 276 275 275 275 275 275 274 273 273 272 271 270 270 269 269 269 268 268 268 268 268 268 269 268 268 267 266 266 266 267 267 267 266 266 265 266 266 266 266 266 266

GFSNGP_850_thetae_060.txt.gz
Theta_e
318 318 317 318 320 319 321 322 325 323 323 322 322 321 319 317 316 315 316 319 320 321 321 322 322 322 327 330 331 331 329 327 326 326 326 325 325 323 323 323 324 325 325 324
317 318 317 316 319 321 320 319 319 321 321 320 319 318 317 316 316 317 318 319 320 320 321 320 320 320 321 322 329 330 331 330 328 327 327 327 327 327 327 326 325 326 326 325
317 316 316 317 316 319 318 317 317 317 318 317 317 316 315 316 316 319 319 319 319 319 319 319 319 320 320 320 321 324 330 330 330 329 328 327 327 327 326 326 327 326 325 326
315 316 318 315 314 315 316 316 317 317 317 315 315 315 315 318 318 317 317 317 317 316 316 317 319 320 320 320 320 321 322 328 330 330 330 329 328 327 326 326 326 326 326 325
317 316 316 316 313 313 313 314 315 313 314 315 316 315 317 317 317 316 316 315 314 314 314 314 314 315 316 318 320 321 321 320 326 329 330 330 329 328 327 327 327 326 326 325
314 315 317 314 314 314 313 314 315 316 316 315 315 319 318 316 316 316 316 314 312 311 310 310 311 313 314 316 318 319 321 322 322 321 328 329 329 329 328 327 327 326 325 325
313 313 313 311 312 312 314 317 315 315 315 315 316 315 314 315 316 315 314 311 309 308 307 305 308 310 311 312 315 317 320 321 322 321 323 328 328 328 328 327 327 326 325 324
312 312 313 311 312 312 317 314 314 314 314 314 313 313 313 315 314 312 310 308 305 304 304 304 306 306 306 308 309 313 315 317 320 322 322 328 328 328 327 327 326 326 324 323
311 311 313 313 315 314 313 313 312 312 311 311 312 311 312 310 309 307 304 302 301 300 300 302 304 304 304 303 305 308 312 312 313 317 320 322 326 327 326 325 324 323 322 321
312 312 311 314 314 312 311 311 310 309 309 309 308 309 308 307 302 299 297 295 295 297 297 298 299 300 299 299 299 302 306 304 306 309 314 317 319 319 321 322 321 318 316 312
313 312 311 311 311 309 309 307 306 306 305 305 305 304 303 299 296 293 293 294 294 294 292 294 295 296 296 295 296 297 299 297 297 298 299 303 306 308 313 308 308 308 305 299
314 311 311 309 307 307 306 304 303 303 302 301 300 299 297 293 291 291 291 290 291 292 292 291 291 292 293 293 293 293 295 293 292 290 290 287 291 292 291 296 296 294 294 295
307 305 307 306 303 302 303 301 301 299 297 296 294 293 292 291 288 288 289 289 289 288 288 289 289 289 290 291 291 291 291 289 291 290 288 287 285 284 285 287 289 289 286 288
301 303 307 302 301 298 298 298 298 294 292 292 290 290 288 287 286 286 286 285 286 287 287 286 287 287 287 288 290 288 290 288 288 288 290 289 285 283 282 284 284 282 286 286
299 300 299 299 297 296 295 295 293 291 289 288 287 286 284 285 284 284 284 284 285 286 286 286 286 285 286 287 288 287 288 288 286 287 285 285 285 283 283 282 282 281 281 282
296 299 298 296 295 293 292 291 291 288 286 285 283 282 281 281 282 284 284 285 286 284 284 285 286 285 286 287 288 287 287 286 285 284 284 285 285 283 282 282 280 279 279 279
293 293 293 293 292 289 288 287 286 285 284 284 283 282 282 280 281 282 282 283 283 283 283 283 283 284 285 285 285 285 285 285 284 283 282 281 281 280 280 280 279 278 277 277
288 288 288 288 288 287 285 283 282 282 281 281 281 282 281 281 281 280 281 281 282 283 283 281 281 282 283 282 282 281 281 281 281 280 280 279 279 278 278 277 276 276 275 275
286 285 285 285 284 283 282 280 280 280 280 280 281 281 280 280 281 281 281 282 282 282 279 278 277 278 278 278 278 279 279 279 278 277 277 277 277 276 276 275 275 274 273 273
282 281 281 281 281 280 279 280 280 280 280 280 280 280 280 278 277 279 280 280 277 275 274 275 275 275 275 275 276 276 276 275 275 275 275 275 274 274 274 273 273 272 272 271
280 280 280 280 280 280 280 280 280 280 280 280 280 280 279 278 278 277 275 275 273 273 274 274 274 274 274 274 274 274 274 274 273 273 273 273 272 272 272 272 271 271 270 270
280 280 280 280 280 279 279 279 279 279 279 278 278 277 277 276 276 275 274 273 273 273 273 273 273 272 272 272 272 272 272 272 272 272 271 271 271 270 270 270 270 269 269 269
279 280 280 280 280 279 279 279 279 278 277 276 276 276 275 274 274 273 273 272 271 271 272 272 272 272 272 272 271 271 271 271 270 270 270 270 269 269 269 269 268 268 268 268
280 280 280 279 279 279 278 277 276 276 275 275 275 275 275 274 272 271 271 271 272 272 271 271 271 271 271 271 270 270 270 270 269 269 268 268 268 267 267 267 267 266 267 266
280 280 280 280 279 278 277 277 276 276 275 274 273 273 272 272 272 271 270 270 270 270 270 270 270 269 269 269 269 269 268 269 269 268 268 267 267 266 266 267 267 267 267 266
280 279 279 279 279 278 278 278 278 277 276 275 273 272 271 271 271 271 270 270 270 269 269 269 269 269 269 268 268 268 267 267 268 268 267 266 266 265 266 267 266 266 266 267
279 279 278 277 276 276 276 276 276 275 274 274 273 272 271 271 270 270 270 269 269 268 268 268 268 268 268 268 267 267 266 266 266 267 267 266 266 266 266 267 267 266 266 266

GFSNGP_850_thetae_063.txt.gz
Theta_e
315 315 318 317 318 318 319 319 324 324 324 323 322 321 320 316 318 319 319 319 319 318 319 318 318 319 320 321 322 329 329 328 328 327 326 325 325 323 321 323 323 322 322 322
315 316 316 318 317 318 320 321 321 322 322 322 319 319 319 317 318 319 318 318 317 318 317 317 317 317 318 319 320 322 328 329 329 328 327 326 326 326 325 323 321 322 323 322
315 313 315 316 316 320 319 318 319 321 321 321 321 319 317 317 317 317 316 315 315 315 314 313 313 313 314 316 317 318 321 322 328 328 328 328 327 326 326 326 325 323 323 323
312 312 318 316 315 317 317 317 317 316 317 315 316 317 316 316 315 315 313 312 312 312 312 311 310 311 312 314 316 317 318 320 321 327 328 328 328 327 327 327 327 327 326 325
313 315 314 314 315 313 316 316 315 315 314 314 316 315 315 316 315 312 311 311 310 309 309 309 308 308 310 313 314 316 317 318 318 319 321 325 328 329 329 328 327 327 327 327
310 313 315 314 314 313 313 317 315 314 315 314 314 315 314 313 312 310 310 309 307 305 306 307 307 307 307 309 311 312 313 316 317 317 319 320 321 326 329 329 329 327 327 327
309 310 313 313 312 312 314 317 314 314 313 312 312 313 312 311 308 308 308 307 306 305 304 302 303 303 303 304 306 308 310 311 313 315 317 318 320 321 327 329 329 328 327 327
308 309 311 311 311 314 314 313 312 311 311 311 310 310 307 307 307 307 306 306 307 307 306 304 303 303 302 301 300 300 304 307 309 311 314 315 317 320 324 327 328 328 328 327
308 308 311 314 314 313 312 311 310 310 310 309 308 305 304 304 303 303 303 303 303 302 301 301 301 302 302 301 301 299 298 298 300 304 308 312 311 315 318 321 321 323 323 321
310 311 311 311 310 309 308 308 308 308 307 308 306 305 304 302 301 301 299 298 298 298 299 299 298 298 297 298 297 294 294 295 295 297 300 304 306 307 308 309 311 308 307 313
311 311 309 307 305 305 304 305 305 304 303 303 303 301 301 299 298 297 297 297 296 296 295 295 295 295 295 295 294 292 292 293 292 292 293 295 297 296 295 296 297 297 294 291
310 306 308 306 305 303 302 302 301 300 299 298 298 296 296 294 293 292 291 291 292 291 290 289 289 289 290 290 290 290 290 289 288 288 287 288 289 290 288 288 291 291 290 289
300 304 302 300 299 300 300 298 298 297 295 294 293 292 292 288 287 287 288 287 288 288 288 287 287 287 288 288 289 288 288 287 287 287 285 285 284 284 287 288 288 286 286 286
300 302 300 298 297 297 297 294 294 292 290 289 288 288 287 285 285 285 284 284 285 286 286 286 287 286 286 287 288 287 287 287 287 286 286 285 285 285 284 284 284 284 285 286
298 298 297 295 294 293 293 292 290 287 286 285 284 283 283 282 283 283 283 284 285 285 285 286 286 285 286 287 287 287 287 286 286 286 286 285 285 284 283 283 282 282 282 283
295 294 294 291 290 289 289 288 287 285 284 283 282 281 281 282 282 282 283 283 285 284 283 284 285 284 285 286 286 286 286 285 284 284 283 283 283 283 282 282 281 280 280 280
291 290 290 289 287 286 285 284 284 284 283 283 282 281 280 281 281 281 281 282 283 283 282 282 282 283 283 284 284 284 284 284 284 284 282 281 280 280 280 279 278 278 277 277
287 287 287 287 285 284 282 282 282 282 281 281 281 281 281 282 281 280 280 280 281 282 282 281 281 281 283 282 282 282 282 281 280 280 280 279 278 278 277 277 276 276 275 274
285 284 284 284 283 281 280 280 280 280 280 281 281 281 280 280 280 280 280 281 282 281 278 277 276 277 277 278 278 278 278 278 278 277 277 277 276 275 275 274 274 273 273 272
281 281 281 281 280 280 280 280 280 280 280 281 281 281 280 279 279 279 278 278 276 274 274 275 275 275 275 276 276 276 276 275 275 275 275 274 274 273 273 272 272 271 271 270
280 280 280 280 280 280 280 280 280 280 279 279 280 278 277 276 276 275 275 275 273 273 273 274 274 274 273 274 274 274 274 274 273 273 273 272 272 272 271 271 271 270 270 269
280 280 280 280 280 279 280 280 280 280 279 278 277 277 276 276 275 274 273 273 272 272 272 273 273 272 272 272 272 272 272 272 272 272 271 271 270 270 270 269 269 269 269 269
280 280 280 280 280 280 279 279 279 278 277 276 276 276 275 274 273 273 273 272 271 271 271 272 271 271 271 271 271 271 271 271 270 269 269 269 269 269 268 268 269 268 268 268
280 280 280 279 279 279 278 277 276 276 275 275 275 274 274 274 273 272 271 271 271 270 269 270 270 270 270 270 270 270 269 269 269 268 268 268 267 267 268 268 268 267 267 268
280 280 280 279 279 278 278 277 276 276 275 275 274 273 273 272 272 271 270 270 270 270 270 269 269 270 270 270 269 269 269 269 268 268 268 268 267 267 267 267 267 267 267 267
280 280 280 279 278 278 278 278 277 276 275 274 273 272 271 271 270 270 269 269 269 269 269 269 269 269 269 269 269 268 269 269 269 268 267 267 267 267 267 267 266 266 266 266
278 278 277 277 277 277 277 277 276 275 275 274 273 272 271 270 270 269 269 269 268 268 268 268 268 268 268 268 268 268 267 267 267 267 267 267 266 266 266 266 266 266 266 266

GFSNGP_850_thetae_066.txt.gz
Theta_e
314 315 314 316 318 317 319 318 321 321 322 324 323 318 319 318 318 317 316 316 315 314 314 313 314 315 317 319 321 325 326 326 326 326 326 325 324 323 322 320 319 321 322 323
313 313 311 314 318 318 318 320 318 319 322 321 320 319 318 318 316 315 314 314 313 311 311 310 310 311 313 314 316 319 321 323 325 325 326 326 325 325 324 324 323 321 319 322
312 312 312 315 315 317 318 320 320 322 321 320 318 318 316 316 314 312 312 312 311 310 310 309 308 308 310 312 314 315 317 319 322 324 324 324 325 325 326 326 325 324 324 323
310 310 312 314 311 313 319 318 317 318 318 319 317 316 316 312 312 310 310 310 310 309 309 309 309 310 309 308 309 310 312 314 316 318 320 322 322 323 324 325 326 326 326 326
309 311 310 309 314 314 317 316 316 315 317 319 316 312 310 308 308 306 306 306 307 307 308 309 309 309 309 309 308 308 309 310 310 312 315 317 318 319 320 323 323 325 326 326
307 311 311 313 313 312 313 319 315 316 316 316 314 312 308 304 303 303 303 303 304 305 305 307 307 307 308 308 308 307 307 308 309 309 309 311 313 316 318 318 319 325 325 326
306 307 309 311 312 312 314 317 313 312 313 313 311 308 303 302 301 301 301 303 303 302 303 303 304 305 306 306 306 305 305 305 306 307 308 308 309 309 312 316 318 320 324 325
306 308 308 310 313 313 313 312 310 310 309 306 304 302 300 301 302 302 300 299 298 299 300 300 300 301 300 300 299 299 299 301 302 302 303 305 305 306 308 310 314 319 324 322
307 306 308 307 308 310 311 309 308 308 307 306 303 300 300 300 300 299 298 298 298 298 298 298 298 298 298 296 297 296 296 295 294 294 296 298 301 303 306 308 308 310 309 308
310 309 307 305 304 304 304 303 304 304 304 303 300 298 297 298 297 297 297 297 297 297 297 296 295 295 295 294 294 294 294 293 292 292 292 293 294 295 296 297 298 298 298 298
311 308 306 305 304 303 301 302 302 302 300 299 301 297 297 296 295 295 297 296 296 295 294 293 292 293 293 293 292 292 291 290 290 289 288 287 287 287 286 287 290 291 291 291
307 305 303 303 302 303 304 301 300 300 299 297 299 298 297 297 293 292 291 291 291 291 290 290 290 291 292 292 292 292 291 290 289 288 288 287 286 285 285 285 285 285 286 287
299 299 300 299 299 299 298 297 297 298 295 294 292 292 291 289 288 288 288 288 288 288 288 289 289 289 289 290 290 291 290 289 288 288 287 287 287 287 286 285 285 285 285 285
300 300 297 296 295 297 296 294 294 293 292 291 290 289 288 286 285 285 285 285 285 286 287 287 287 287 287 288 289 288 288 288 288 287 287 287 286 286 288 287 285 284 284 285
295 297 295 294 295 292 292 292 291 289 287 287 286 285 284 284 284 283 283 284 285 286 286 286 286 286 286 286 287 288 288 287 287 286 286 286 286 286 285 285 284 283 282 283
293 293 293 292 291 290 290 288 287 284 283 283 283 282 282 283 283 283 283 284 286 285 284 284 285 284 284 285 285 286 285 285 285 284 284 284 284 284 283 283 282 282 282 280
291 291 289 288 287 285 285 285 284 283 282 281 280 280 281 281 282 282 282 282 283 283 283 283 283 283 284 284 284 284 283 283 283 283 282 281 281 281 280 280 279 278 278 276
288 287 288 287 285 284 283 282 282 282 282 281 280 281 281 281 281 281 281 281 282 282 282 281 280 280 281 281 281 281 281 281 280 280 279 279 278 278 277 277 276 275 274 274
284 284 283 283 282 281 281 281 281 281 281 280 281 281 280 280 280 280 280 281 281 279 277 276 276 277 277 277 277 278 278 278 278 277 277 276 276 275 275 274 274 273 273 272
282 282 281 281 281 281 280 280 280 280 280 280 280 280 280 279 278 277 276 276 276 275 274 275 275 275 275 275 275 276 276 275 275 275 275 274 274 274 273 273 272 272 272 271
280 280 280 280 280 280 280 279 280 279 278 278 279 278 277 275 275 275 274 274 273 273 273 274 274 274 274 274 274 274 274 274 273 273 273 273 272 272 272 271 271 270 270 270
280 280 280 280 279 279 279 279 279 279 278 278 276 276 276 275 274 274 273 273 272 272 272 273 273 273 273 273 272 273 273 272 272 272 271 271 271 271 270 270 270 269 269 269
280 280 280 280 280 279 278 278 277 277 276 276 276 275 275 274 273 272 273 272 271 271 271 271 271 271 271 271 271 271 271 271 271 271 270 270 269 269 269 268 268 268 268 268
280 280 280 279 278 277 277 276 276 276 275 275 274 274 274 273 272 271 271 270 270 270 270 270 270 270 270 270 270 270 270 270 269 269 269 269 269 268 268 268 268 268 268 267
280 279 279 278 278 278 277 277 276 276 275 275 274 273 272 271 271 271 270 270 270 269 269 269 268 269 268 269 269 269 268 268 268 268 267 267 267 267 267 267 267 267 267 267
280 280 279 278 278 278 278 276 276 275 275 274 273 272 271 271 270 270 269 269 269 269 268 268 268 268 268 267 267 267 267 267 267 267 266 266 267 267 266 266 266 266 266 266
278 278 278 277 277 276 277 276 276 275 274 273 273 272 271 270 270 269 269 269 268 268 268 267 267 267 267 267 267 266 266 266 266 266 266 266 265 266 265 265 265 265 265 265

GFSNGP_850_thetae_069.txt.gz
Theta_e
312 311 312 314 315 317 320 319 321 318 319 321 319 319 317 318 315 314 312 309 308 308 310 311 313 314 316 317 321 324 324 323 323 324 324 324 324 323 322 321 321 320 319 321
310 312 310 310 311 316 318 318 319 319 318 321 317 317 317 317 314 313 311 308 307 307 307 308 309 310 312 314 315 318 321 321 321 323 323 322 322 324 324 324 324 323 322 321
310 309 308 311 314 313 318 316 316 321 319 320 320 317 318 314 312 311 308 306 306 308 308 308 308 308 308 308 309 311 313 315 317 320 321 322 321 322 322 322 323 324 324 324
308 308 308 308 308 313 314 317 318 318 318 318 317 316 313 312 310 308 308 306 305 307 308 308 308 308 308 308 308 307 308 309 310 311 313 316 319 320 321 321 321 320 320 321
306 308 307 308 313 313 313 315 315 316 317 317 312 307 305 304 305 305 305 304 306 306 306 307 307 307 307 307 307 307 307 307 308 308 309 310 310 312 315 317 319 320 320 321
306 308 307 307 310 312 312 316 313 314 317 314 312 314 305 301 302 301 302 302 304 304 305 305 306 305 306 306 306 306 306 306 306 306 307 308 308 309 309 310 311 313 315 316
306 306 306 307 310 311 314 315 311 312 317 313 312 308 300 301 300 301 300 301 302 302 303 303 303 303 304 304 304 303 303 303 304 305 305 305 305 305 306 306 307 308 309 310
306 307 306 306 311 312 312 310 308 307 305 302 300 299 297 296 296 297 298 298 298 298 299 299 299 300 300 300 298 299 299 299 300 300 301 302 303 304 303 303 304 306 306 305
306 306 305 304 305 309 310 309 308 305 303 301 299 297 295 293 292 293 294 294 294 296 296 295 294 295 295 294 294 295 295 295 295 296 297 297 298 299 300 301 301 299 297 297
309 308 306 303 302 302 302 301 302 304 303 303 300 297 295 292 290 291 291 293 294 294 294 293 293 293 293 292 292 292 292 292 292 293 292 293 293 292 293 293 293 292 291 290
309 307 305 304 302 300 299 299 299 298 297 295 295 293 291 289 290 290 291 292 293 293 291 291 291 292 292 291 291 292 291 291 290 290 290 289 289 288 287 286 289 289 288 287
306 302 303 300 300 299 300 298 296 295 294 293 293 290 289 289 288 289 289 289 289 289 290 289 290 290 290 290 290 290 289 289 288 288 288 288 287 286 286 286 286 286 286 289
298 298 298 297 296 295 297 295 294 295 292 290 287 289 287 284 285 286 286 287 287 287 287 287 287 288 287 288 288 288 288 288 287 287 287 287 286 287 287 286 286 286 286 286
299 299 297 296 292 294 295 293 293 291 290 288 289 287 286 286 286 286 286 284 285 285 286 286 287 287 286 286 287 288 288 287 287 287 287 287 287 287 287 287 287 286 285 285
294 296 295 293 293 292 291 290 290 289 287 286 285 285 283 284 284 284 283 284 284 285 285 286 286 285 285 285 286 286 287 286 286 286 286 286 285 285 285 285 284 283 282 283
292 291 292 292 290 290 289 288 287 284 283 283 284 284 283 283 283 283 283 283 284 284 283 284 284 284 284 284 284 285 285 284 285 284 284 284 283 283 283 283 282 282 282 280
292 290 289 289 288 285 284 285 284 282 282 282 281 281 282 282 282 283 283 283 283 283 283 283 283 282 283 283 283 283 283 283 282 282 282 282 281 280 280 279 278 277 276 275
288 288 288 287 285 283 282 282 283 282 282 281 281 282 282 282 282 282 282 281 281 281 281 279 278 278 278 279 279 279 280 280 280 280 279 279 278 277 276 276 275 274 273 273
285 285 284 284 283 283 282 282 282 282 281 281 281 281 281 281 281 281 280 280 280 278 277 276 276 276 277 277 276 277 277 277 277 277 276 276 275 275 274 274 273 273 272 272
283 283 283 282 282 281 281 281 281 281 280 280 281 280 280 280 278 276 275 275 275 275 275 275 275 275 275 275 275 275 275 275 275 275 274 274 274 274 273 272 272 271 271 271
281 281 281 281 281 281 281 281 281 281 280 280 280 280 278 276 275 274 274 274 274 273 273 274 274 274 274 274 274 274 274 274 273 273 273 272 272 272 271 271 271 270 270 270
280 280 280 280 280 280 280 280 280 279 279 278 276 276 275 274 273 273 273 273 273 272 272 272 273 273 273 273 273 272 272 272 272 272 271 271 271 270 270 270 269 269 269 269
280 280 280 280 279 279 278 278 277 276 276 276 275 275 274 274 273 272 272 271 271 271 271 271 271 271 271 271 271 271 271 271 270 270 270 270 269 269 269 269 268 268 268 268
280 279 279 279 278 277 276 276 276 275 275 274 274 273 272 272 272 271 271 270 270 270 270 270 270 270 270 270 270 270 270 270 270 270 269 269 268 268 268 268 268 268 268 267
280 279 279 278 277 277 277 277 276 276 275 275 274 273 272 271 271 271 270 270 270 269 269 269 269 269 269 269 269 269 269 269 269 269 269 268 268 267 267 267 267 267 267 267
280 279 279 278 278 278 277 277 276 275 275 274 273 273 272 271 270 270 270 269 269 269 268 268 268 268 268 268 268 268 268 268 267 267 267 267 267 266 266 266 266 266 266 266
278 278 278 277 277 276 276 276 275 275 274 273 272 272 271 270 270 269 269 268 268 268 268 267 267 267 267 267 267 267 266 266 266 266 266 266 266 266 265 265 265 265 266 266

GFSNGP_850_thetae_072.txt.gz
Theta_e
310 310 311 312 312 312 315 316 319 319 320 319 319 318 318 314 312 308 305 304 306 309 311 314 316 317 319 321 322 323 322 321 322 322 323 323 323 323 323 321 321 320 319 319
309 310 308 308 306 307 311 316 317 317 317 316 319 317 318 314 311 308 305 302 302 304 305 308 309 311 314 316 318 320 319 320 320 320 321 321 321 321 321 321 322 323 323 322
309 307 306 306 309 307 310 317 317 317 316 318 318 318 316 313 310 306 303 302 300 301 303 304 305 305 306 307 307 310 314 316 318 318 319 319 320 320 320 320 320 320 320 320
308 307 306 304 305 310 315 315 316 317 318 317 314 315 313 311 308 307 306 304 305 303 302 303 304 305 305 305 304 304 305 306 307 308 310 313 316 318 318 319 320 319 320 319
305 306 305 305 311 311 313 312 313 316 316 310 307 307 303 303 304 304 303 305 303 303 304 301 304 303 303 303 304 304 304 305 305 306 306 307 307 308 310 311 314 315 316 317
306 307 304 305 309 308 310 311 311 311 313 309 311 311 305 300 300 305 301 301 301 302 301 302 303 302 302 303 303 303 303 302 303 303 304 305 305 306 306 307 307 307 307 307
306 305 305 305 306 309 311 309 306 307 313 310 311 307 300 300 301 301 300 298 297 300 302 301 300 300 300 300 301 299 299 299 300 301 301 301 301 302 301 301 301 302 303 303
307 307 306 304 308 309 308 306 304 303 304 300 299 298 295 295 296 298 297 296 297 298 298 298 298 298 299 300 297 297 297 297 297 298 298 298 298 298 298 297 298 299 299 300
306 305 304 302 302 301 308 307 303 302 299 297 296 296 297 294 294 293 293 293 294 295 295 295 296 296 296 294 295 295 295 296 295 295 295 296 296 296 296 295 294 293 294 294
307 306 304 302 300 298 298 298 300 300 300 299 294 295 294 294 294 293 290 290 290 290 291 291 292 292 292 292 293 294 295 294 294 295 294 294 294 293 293 292 291 290 289 289
307 305 303 301 299 297 295 297 297 297 296 295 294 291 290 289 289 288 287 288 290 289 289 289 290 290 290 290 290 291 291 291 291 291 292 291 291 289 289 287 287 288 288 288
305 299 300 296 295 296 294 292 292 295 295 294 293 292 289 287 287 288 288 287 287 287 287 288 289 289 289 289 289 289 289 288 288 288 287 287 287 287 286 286 287 287 287 287
297 296 295 293 292 293 293 292 291 291 290 291 290 291 288 286 285 285 285 285 285 286 287 287 288 288 288 288 288 288 288 288 287 287 287 287 287 287 287 286 286 286 286 286
296 297 295 293 289 291 291 289 289 289 287 286 286 286 286 285 284 284 284 283 283 285 286 286 287 287 286 286 287 287 287 287 287 286 286 286 286 285 285 285 286 285 284 284
292 294 293 291 291 290 289 288 288 285 285 284 283 282 281 282 282 282 282 283 284 285 285 285 286 285 284 285 285 285 285 285 285 285 284 284 284 284 284 284 283 283 282 282
291 291 291 291 289 288 287 286 285 281 281 282 282 282 282 282 282 282 282 282 284 284 283 284 284 284 284 284 284 284 284 283 283 283 283 283 282 282 282 281 280 279 279 278
291 290 289 286 286 284 285 283 282 280 281 280 281 281 281 281 282 282 282 282 282 282 281 281 280 279 280 280 280 281 281 281 281 281 280 280 279 279 277 276 276 276 275 275
287 287 287 286 284 282 281 282 282 282 282 281 281 281 281 281 281 280 280 280 279 278 277 276 276 277 277 277 277 277 278 278 278 278 277 277 276 275 275 274 274 274 273 273
284 284 284 284 283 283 282 282 282 281 280 280 281 281 281 281 280 280 279 277 277 276 276 275 275 276 276 276 276 276 276 276 276 276 275 275 274 274 273 273 273 272 272 272
282 282 282 282 281 281 281 280 280 281 280 280 280 280 280 278 276 275 274 275 275 275 274 274 274 274 274 274 274 274 274 274 274 274 274 273 273 273 272 272 272 271 271 270
281 280 280 281 280 280 280 280 280 280 280 279 279 277 276 276 275 274 273 273 273 273 273 273 273 273 273 273 273 273 273 273 273 272 272 272 272 271 271 271 270 270 270 270
281 281 281 281 281 280 280 280 280 279 278 276 276 276 275 275 274 273 273 273 273 273 273 272 272 272 272 272 272 272 272 272 271 271 271 271 271 270 270 270 269 269 269 269
281 281 281 281 281 281 280 278 277 276 276 276 275 275 274 274 274 273 272 272 272 271 271 271 271 271 271 271 271 271 271 270 270 270 270 270 269 269 269 269 269 269 269 269
280 280 280 280 278 277 277 277 277 276 276 275 275 274 273 273 272 272 271 271 270 270 270 270 270 269 270 270 270 270 270 270 270 269 269 269 269 269 269 269 268 268 268 268
280 279 279 278 278 278 277 277 276 276 276 275 274 274 273 272 271 270 270 269 269 269 269 269 268 268 268 268 268 268 268 269 269 269 269 268 268 268 268 268 267 267 267 267
279 279 279 278 278 277 277 277 276 275 275 274 273 273 272 271 270 270 269 269 269 268 268 268 267 267 267 267 267 267 267 267 267 267 267 267 266 266 267 267 267 266 266 266
279 278 278 277 277 276 275 275 275 274 274 273 272 272 271 270 269 269 269 268 268 268 268 268 267 267 267 267 267 267 267 267 267 267 266 266 266 266 266 266 266 266 265 265

GFSNGP_850_thetae_075.txt.gz
Theta_e
310 310 311 310 310 309 310 314 316 316 316 316 318 318 316 310 306 304 302 301 303 304 307 311 315 317 319 321 323 325 323 323 322 322 323 323 322 322 322 322 321 320 320 319
309 310 307 307 306 308 310 310 313 316 317 316 316 318 314 310 307 304 302 299 299 301 302 304 307 310 314 318 319 320 320 320 320 320 321 321 322 322 322 322 322 321 321 321
308 308 307 306 307 306 309 312 315 317 316 318 319 318 314 310 306 303 301 299 300 301 301 302 302 304 307 308 310 315 316 318 318 317 318 318 319 320 320 320 320 320 320 320
309 307 305 304 306 308 313 314 313 314 316 314 311 306 309 307 305 301 303 301 301 301 302 299 299 301 302 304 306 308 309 309 310 311 313 315 316 316 317 317 317 318 318 318
307 307 305 305 309 309 312 312 312 313 314 311 308 306 302 302 298 297 297 297 300 300 301 301 301 302 305 305 303 302 302 303 303 304 305 306 306 307 309 310 312 313 313 314
306 307 305 305 308 307 309 308 309 308 311 312 310 314 304 299 299 298 301 298 298 298 300 300 299 298 299 299 298 301 301 299 299 301 302 303 303 304 303 302 302 301 302 303
307 307 306 305 306 307 305 308 305 304 308 311 311 303 296 295 294 296 297 295 295 296 296 296 296 297 298 296 296 295 296 297 298 299 300 300 299 301 300 298 298 299 298 299
306 307 306 304 307 307 306 305 302 301 299 298 295 293 295 293 292 295 295 294 292 293 293 293 293 293 294 294 293 293 294 296 296 296 297 298 298 298 297 296 296 296 296 295
306 307 304 302 302 299 305 304 301 299 297 296 294 293 294 292 293 293 295 292 292 291 291 291 292 293 292 291 292 293 293 294 294 294 293 293 293 293 293 293 292 292 292 291
307 306 303 301 298 297 298 297 297 296 295 296 292 290 291 292 291 292 293 291 290 289 290 291 291 291 290 289 290 291 292 292 291 292 292 292 292 291 291 290 290 290 289 289
305 303 300 296 295 294 294 295 295 295 294 294 295 292 292 292 291 292 292 291 290 290 289 289 289 290 290 289 289 290 290 290 291 291 291 291 291 290 290 289 289 288 288 288
302 297 297 294 292 293 293 291 291 291 290 290 291 291 292 291 291 290 289 288 289 288 288 288 289 289 289 289 290 290 290 290 290 290 290 289 289 289 289 289 289 289 288 288
296 293 292 291 290 291 292 291 291 291 290 289 289 289 288 286 286 286 287 287 287 287 287 287 288 288 288 288 288 289 289 289 289 289 288 288 288 288 288 287 287 287 287 286
294 294 291 291 288 289 289 289 290 289 288 287 286 286 286 287 286 285 285 285 285 285 286 285 286 287 286 286 286 287 287 287 287 287 287 286 286 286 286 286 286 286 285 285
292 293 291 288 287 286 286 286 285 283 283 283 283 283 283 284 284 284 283 283 284 284 285 285 285 285 284 284 285 285 285 285 285 285 285 284 284 284 284 283 283 282 281 281
290 289 288 287 286 285 285 283 282 281 280 282 283 282 282 283 282 282 282 282 283 283 283 283 284 283 283 282 282 282 282 283 282 282 282 282 281 280 280 279 277 277 276 276
291 290 287 286 284 283 282 282 281 280 280 281 281 281 282 282 282 282 282 282 282 282 281 279 279 278 278 279 279 279 280 280 280 279 279 279 278 277 276 276 275 275 275 274
287 286 286 285 283 281 280 280 281 281 281 281 281 280 280 280 281 280 280 279 278 278 277 276 277 277 277 277 277 277 277 277 277 277 277 276 276 275 275 274 274 273 273 273
283 283 283 283 282 282 281 281 281 281 280 280 280 280 280 280 279 278 276 275 275 275 275 275 275 275 276 276 276 276 276 276 276 276 275 275 274 274 273 273 273 272 272 271
282 282 282 282 281 282 281 281 280 280 279 280 280 279 278 276 275 274 274 275 275 275 274 274 274 275 275 275 275 275 274 274 274 274 273 273 273 272 272 271 271 271 270 270
281 281 281 281 281 280 280 280 280 280 279 277 276 276 275 275 274 273 273 274 273 273 273 273 273 273 273 273 273 273 273 273 272 272 272 271 271 271 271 270 270 270 269 269
280 281 280 280 280 279 279 279 278 277 276 276 276 275 275 274 274 273 273 272 272 272 271 271 271 272 272 272 271 271 271 271 271 271 270 270 270 270 269 269 269 269 269 268
280 280 280 280 280 279 277 276 276 276 275 275 274 274 273 273 272 271 271 271 270 270 270 270 270 270 270 270 270 270 270 270 270 270 269 269 269 269 268 268 268 268 268 268
280 280 279 278 277 277 277 276 276 276 275 275 274 274 273 272 272 271 271 270 270 270 270 269 269 269 270 270 269 269 269 269 269 269 269 268 268 268 268 268 267 267 267 267
280 279 278 278 278 278 277 277 276 276 276 275 274 274 273 272 271 271 270 270 270 269 269 269 268 268 268 268 268 268 268 268 268 268 267 267 267 267 267 267 267 267 267 267
280 279 279 278 278 277 277 276 276 275 275 274 273 273 272 271 271 270 270 269 269 269 268 268 268 268 268 268 268 267 267 267 267 267 267 267 267 266 266 267 267 266 266 266
279 278 278 277 277 276 276 275 275 274 274 273 272 272 271 270 270 269 269 269 268 268 268 268 267 267 267 267 267 267 267 267 267 267 267 266 266 266 266 266 266 266 265 265

GFSNGP_850_thetae_078.txt.gz
Theta_e
312 310 312 311 311 311 313 313 314 311 312 314 317 318 314 309 306 303 301 300 299 303 305 306 312 316 318 320 320 321 322 322 323 323 322 322 321 320 320 320 320 320 320 319
311 309 311 310 309 308 310 312 312 313 314 316 317 318 313 309 306 303 301 298 296 297 301 303 303 308 311 315 317 318 319 321 321 321 322 321 321 322 321 321 321 320 320 320
311 310 308 308 308 309 309 311 314 316 315 317 318 317 313 309 306 303 299 297 296 295 297 298 299 301 304 309 311 312 316 316 315 318 319 318 319 319 319 319 319 320 320 320
308 307 306 309 308 310 311 312 314 314 317 316 311 306 305 305 303 301 299 297 296 294 294 296 299 300 300 304 305 307 308 309 307 311 316 315 314 315 316 317 316 316 316 316
307 307 306 306 310 310 311 312 313 313 314 312 306 303 298 298 298 297 294 295 295 293 296 298 298 298 300 299 298 299 299 300 303 306 306 304 306 308 311 312 313 313 312 311
308 306 305 311 309 308 309 311 310 309 311 312 310 314 301 294 295 295 294 294 296 295 295 298 300 298 298 300 301 304 303 303 304 303 301 302 301 301 300 301 303 302 302 302
308 307 307 308 308 308 307 311 307 305 303 306 310 299 292 293 292 291 292 296 297 296 293 294 297 299 301 300 301 300 300 299 300 299 299 299 298 297 296 298 298 298 298 297
308 307 307 306 309 310 307 306 304 301 298 294 292 291 292 292 292 293 292 293 292 294 294 293 291 292 293 295 295 295 293 292 294 296 295 295 296 294 294 295 295 292 292 293
308 310 305 303 303 300 302 302 301 299 296 294 292 290 290 290 291 290 291 290 289 290 290 290 289 290 292 293 293 293 293 292 292 292 292 290 290 288 289 289 290 289 289 290
308 302 301 300 298 295 295 295 294 294 293 291 289 289 289 289 288 289 288 288 288 288 288 288 288 287 287 287 287 288 288 290 290 289 288 288 289 290 290 289 289 289 289 290
304 300 298 296 295 295 294 293 293 292 292 291 289 288 287 287 287 287 288 289 290 286 286 286 288 289 287 287 287 287 287 285 285 287 288 289 289 287 289 290 290 289 288 289
304 297 297 294 292 293 292 291 291 291 290 289 289 287 287 285 286 288 290 290 290 287 288 287 288 288 288 287 286 287 288 288 287 285 284 284 286 287 287 287 287 288 288 288
296 293 292 291 290 290 290 289 290 289 288 287 286 286 285 284 285 286 287 287 287 287 287 287 287 288 287 287 288 288 288 286 287 285 284 283 283 282 283 285 285 286 286 286
293 293 293 292 290 288 288 288 287 287 286 286 285 285 284 283 282 283 285 285 286 286 286 286 286 287 286 286 286 287 287 287 287 287 286 286 286 285 285 284 283 284 284 285
291 293 291 289 289 288 287 287 287 286 285 284 284 283 283 282 281 280 283 284 284 285 285 285 285 285 285 285 285 285 285 285 285 285 285 284 284 283 283 282 281 280 279 279
290 290 290 289 288 287 287 286 286 284 283 282 281 280 280 280 282 283 283 283 284 284 284 284 284 283 282 282 281 281 282 282 282 281 281 281 280 280 278 278 277 277 277 277
291 290 290 288 287 286 285 285 284 283 281 280 279 279 279 281 282 282 282 282 282 281 280 279 279 279 279 279 279 279 279 279 279 279 279 278 278 277 277 276 276 275 275 275
287 286 287 287 285 284 283 282 281 280 279 279 281 281 282 281 282 281 281 281 279 278 277 277 277 277 277 277 277 277 277 277 277 277 276 276 276 275 275 274 274 274 274 274
284 283 283 283 282 281 280 279 280 281 281 281 281 281 281 281 281 280 278 277 276 276 276 276 276 276 276 276 276 276 276 276 275 275 275 275 274 274 273 273 272 272 272 272
281 280 280 279 280 280 280 280 280 280 280 280 280 280 279 277 276 275 275 275 275 275 275 275 275 275 275 275 275 274 274 274 274 273 273 273 272 272 272 272 271 271 270 270
281 281 281 281 281 281 280 280 280 280 279 278 277 276 275 275 274 274 273 274 274 273 273 273 273 273 273 273 273 273 272 272 272 272 272 271 271 271 270 270 269 269 269 269
280 280 280 280 280 279 279 279 278 277 276 276 276 275 275 274 274 273 273 272 272 272 271 272 272 272 272 272 272 272 272 271 271 271 270 270 270 269 269 269 269 269 269 269
280 280 280 280 280 279 277 277 276 276 276 275 275 274 273 273 272 272 272 272 271 271 271 271 271 272 271 271 271 271 271 271 270 270 270 269 269 269 268 268 268 268 267 267
280 280 279 278 277 277 277 276 276 275 275 275 274 274 273 272 271 271 271 271 270 270 270 270 270 270 270 269 269 269 269 269 269 269 268 269 268 268 268 268 268 267 268 268
279 278 278 277 277 277 276 276 275 275 274 273 273 273 273 272 271 270 269 269 269 269 268 269 269 268 268 268 268 268 268 268 268 268 267 267 267 267 266 266 267 266 266 266
279 279 278 278 278 278 277 276 277 275 275 274 273 272 272 271 270 270 269 269 268 269 268 268 268 268 267 267 267 267 267 267 267 267 267 267 266 266 265 266 266 265 264 264
278 278 278 277 276 276 276 276 276 275 274 274 274 272 271 270 270 270 270 269 269 268 268 268 267 267 267 267 266 266 266 266 267 267 266 265 265 265 265 265 265 265 265 266

GFSNGP_850_thetae_081.txt.gz
Theta_e
311 311 313 314 316 316 317 316 315 314 313 314 317 320 317 311 306 303 300 302 298 298 300 304 310 316 320 321 321 322 322 321 320 321 321 321 320 320 322 322 322 322 320 320
309 313 312 312 314 312 312 310 311 312 313 317 319 319 316 310 307 302 300 298 298 297 297 299 302 306 312 315 318 319 320 320 319 320 320 321 321 321 320 319 320 321 321 321
308 314 312 312 312 311 310 311 312 315 316 318 317 318 313 308 305 301 298 297 299 296 295 295 297 299 305 306 306 311 315 313 314 316 316 317 319 319 319 320 320 320 320 320
309 313 313 310 309 310 310 311 314 314 315 314 309 303 301 302 300 298 297 296 297 298 294 293 295 296 298 301 303 302 304 306 306 311 312 309 313 317 314 314 315 315 316 316
313 311 309 308 310 311 312 315 313 312 312 311 304 303 297 296 297 296 296 295 294 298 297 293 293 294 295 299 297 300 301 300 300 304 310 308 305 313 310 309 310 309 309 309
310 310 309 312 310 310 310 313 310 310 310 310 308 313 300 293 293 293 293 293 293 294 296 295 296 295 298 299 296 299 298 299 295 299 299 300 302 304 302 303 303 304 305 304
311 309 310 310 309 309 309 313 308 306 303 301 302 296 292 292 293 293 293 292 292 292 292 294 294 296 299 297 296 294 294 294 294 297 298 299 301 301 296 296 298 299 299 297
309 309 310 307 310 312 307 306 305 302 298 295 292 291 291 291 291 291 291 291 291 290 291 291 292 293 294 295 295 296 296 296 296 297 297 297 296 296 296 292 292 292 293 293
310 310 304 302 302 300 302 302 301 299 295 293 292 290 289 289 289 290 291 291 291 290 290 290 290 290 290 290 290 291 294 296 296 296 296 295 294 290 289 290 289 289 289 289
309 301 300 299 298 297 296 296 295 294 294 292 290 290 289 288 288 288 288 289 290 289 288 288 288 289 289 289 289 288 287 288 287 287 286 287 290 290 289 288 288 288 287 287
303 300 300 297 296 296 295 293 293 293 292 290 290 289 288 287 287 286 287 287 288 287 287 287 286 287 288 288 288 287 287 286 286 288 289 290 291 289 290 289 289 289 289 290
304 299 298 295 294 294 294 294 293 292 291 289 290 289 288 286 285 285 285 285 285 284 284 284 286 288 287 287 287 287 286 286 286 286 285 286 288 288 288 288 289 289 289 289
297 295 294 292 292 292 292 291 290 290 290 289 288 286 286 285 284 284 284 285 286 286 286 287 287 288 287 288 288 288 285 285 285 285 284 284 284 284 286 285 285 286 286 286
294 295 295 294 292 291 291 290 290 289 289 288 287 287 285 284 283 283 285 285 285 286 286 286 286 287 286 286 286 286 286 286 285 284 284 284 284 283 282 282 280 282 280 280
293 293 293 292 292 291 291 290 290 288 287 286 286 286 285 284 283 282 282 282 284 285 285 285 286 285 285 284 285 285 285 284 284 283 283 282 281 281 280 280 279 279 278 277
292 293 292 292 291 290 290 290 289 287 286 284 284 283 282 281 280 281 282 281 280 282 283 283 283 282 281 281 281 281 281 281 281 280 280 280 280 280 279 279 278 277 276 276
294 293 292 291 290 289 288 287 287 285 284 283 282 282 281 280 278 281 282 281 281 280 279 279 278 278 279 279 280 280 280 279 279 279 279 279 279 278 278 278 277 275 275 275
290 289 289 289 288 287 285 284 284 283 281 280 280 281 280 280 280 280 280 279 277 277 277 277 277 277 278 278 278 279 279 279 278 278 278 277 277 277 277 276 276 275 274 273
286 286 286 285 285 284 282 281 279 279 280 280 281 281 281 281 280 279 277 276 276 276 276 276 276 276 276 276 277 278 278 277 277 277 276 276 276 276 276 275 274 274 273 272
283 282 282 281 281 280 278 279 280 281 281 281 281 280 279 278 276 275 275 275 275 275 275 275 274 274 274 275 275 276 276 276 276 275 274 275 275 274 273 273 273 273 272 271
280 279 278 280 281 281 281 281 281 281 280 280 278 277 277 276 276 276 277 277 274 274 274 274 274 274 274 274 274 274 274 274 274 274 274 274 273 273 272 272 272 271 271 270
279 278 279 280 280 280 280 280 279 278 277 276 276 276 276 275 275 275 274 274 273 273 273 272 273 273 273 273 273 272 272 272 273 273 272 272 272 272 271 271 270 270 270 269
279 279 280 280 279 280 278 277 277 276 276 276 276 275 275 275 275 276 276 274 272 272 272 272 272 272 272 271 271 271 271 271 271 270 270 270 270 270 270 270 269 269 268 268
279 279 279 279 278 277 277 277 276 276 276 276 276 275 275 275 274 273 272 272 272 272 271 271 271 271 271 270 270 269 270 270 269 269 269 269 269 268 268 268 267 267 267 267
279 278 278 278 279 280 278 277 276 276 275 276 274 273 273 273 273 273 272 271 271 271 271 271 270 270 269 269 269 268 268 269 268 268 268 268 268 268 268 267 267 266 266 266
280 281 281 280 280 280 279 279 279 279 277 277 276 274 273 272 272 271 271 271 270 270 270 270 269 269 269 269 269 268 268 268 268 268 267 267 267 267 267 267 266 266 266 265
280 280 280 280 279 278 278 278 278 279 277 276 276 275 274 273 272 272 272 272 271 271 270 270 270 269 269 268 268 268 268 268 268 267 267 267 267 267 267 266 266 265 265 265

GFSNGP_850_thetae_087.txt.gz
Theta_e
304 304 304 305 308 309 311 313 316 318 317 319 316 312 309 306 303 301 299 297 296 299 301 305 306 309 313 317 321 324 324 324 323 322 322 323 323 322 321 320 319 320 321 322
303 303 305 305 305 308 310 314 316 315 315 315 312 310 307 305 302 299 297 295 295 296 298 301 303 303 306 309 314 316 322 322 322 320 321 320 320 321 319 319 319 319 320 320
302 304 306 307 308 308 312 314 313 315 314 311 307 304 303 301 299 297 295 295 295 295 295 297 300 301 302 304 306 310 312 316 318 320 321 320 320 321 321 321 321 319 319 320
303 304 306 305 308 310 313 311 311 312 308 306 301 297 295 295 295 294 294 294 294 294 294 295 298 300 301 301 303 304 305 306 308 314 316 316 317 317 316 317 317 317 316 318
305 304 306 308 309 308 312 311 307 307 305 304 299 297 294 293 293 293 293 294 294 294 294 294 296 297 300 301 301 301 301 301 300 303 303 306 308 310 310 309 309 310 309 310
306 306 306 309 306 303 305 312 304 302 301 299 303 307 295 292 292 292 292 293 293 294 293 294 294 296 298 301 301 299 299 300 300 300 300 300 300 301 300 301 302 302 303 304
305 304 307 304 301 303 310 307 300 298 295 295 294 293 291 291 291 291 291 292 292 292 292 292 293 295 296 295 295 296 297 298 298 298 298 300 296 300 300 298 297 299 298 298
306 306 307 299 302 304 303 300 298 295 293 292 291 291 291 291 291 291 291 291 291 291 291 290 291 292 293 292 292 293 294 296 296 295 296 295 297 295 296 297 297 292 292 295
304 303 300 298 297 297 297 298 296 295 293 291 290 290 290 290 291 291 290 289 289 289 289 289 289 290 290 290 293 293 294 293 294 293 293 294 293 294 292 294 293 295 293 292
303 299 297 296 296 295 295 294 293 293 291 290 289 289 289 289 289 289 289 289 288 288 289 288 288 288 288 288 289 290 290 291 291 292 292 292 291 291 292 291 291 291 290 290
301 299 296 295 295 295 294 293 292 291 290 289 289 288 287 287 287 287 288 288 288 288 288 287 288 288 288 288 288 288 288 288 289 290 290 290 290 290 290 289 289 290 290 290
298 296 296 294 293 293 293 293 291 290 289 288 288 287 287 286 286 286 286 286 287 286 286 287 287 287 287 287 288 288 287 287 287 286 286 287 288 288 288 288 288 288 288 288
295 294 293 293 292 292 291 290 290 289 288 287 287 286 286 285 284 285 285 285 285 285 285 286 287 287 287 287 287 287 287 286 286 286 286 285 285 285 286 284 285 285 286 286
294 294 293 293 292 291 291 290 289 288 288 287 286 285 284 284 283 283 283 283 284 285 285 285 285 286 285 285 286 286 285 285 285 285 284 284 283 283 282 281 280 279 278 280
293 294 293 293 293 292 291 289 288 287 286 286 285 284 284 283 282 282 281 283 284 284 284 284 284 284 283 283 283 284 283 283 282 282 282 281 281 281 281 280 280 280 279 279
294 293 293 292 291 290 290 288 287 285 284 284 283 283 282 282 282 282 282 282 283 283 281 281 281 282 282 282 281 281 281 281 281 281 281 280 280 280 280 279 278 277 277 278
294 292 292 290 289 288 287 286 285 284 283 283 282 281 281 282 282 281 281 280 279 280 279 279 279 280 281 281 281 280 280 280 280 280 280 279 279 279 279 278 278 276 276 276
290 290 290 288 287 286 285 284 284 283 283 282 282 281 281 281 281 279 278 278 278 277 277 277 277 278 279 279 279 279 279 279 279 278 278 278 278 277 277 277 276 276 274 274
287 287 286 286 286 285 284 283 282 282 282 282 281 282 281 280 278 277 277 277 277 276 276 277 277 276 277 278 278 278 278 278 278 277 277 277 277 276 276 275 275 274 274 274
284 284 284 283 283 282 282 281 281 282 281 281 281 279 277 277 276 277 278 278 277 275 275 275 276 276 276 277 277 277 277 277 277 276 276 276 276 275 275 274 274 273 273 272
282 282 282 282 281 281 282 281 281 281 279 277 277 276 276 276 275 277 277 276 275 274 275 275 274 274 274 275 275 275 275 275 275 275 275 274 274 274 273 273 273 272 272 271
281 281 281 281 282 281 281 279 278 277 277 276 276 278 278 277 277 277 276 276 275 274 274 274 274 273 273 274 274 273 273 274 274 273 273 273 273 273 272 272 272 271 271 270
281 281 282 281 280 279 278 278 277 277 277 277 277 276 276 276 276 276 275 275 274 273 272 272 272 272 271 272 272 271 272 271 272 272 272 272 272 272 271 271 271 270 270 270
281 281 279 279 280 280 280 279 279 278 278 277 277 277 276 276 275 275 274 274 273 272 272 272 271 271 270 271 270 270 270 270 270 270 270 270 270 269 269 269 269 268 268 268
281 280 281 281 280 280 280 280 279 279 279 278 278 278 277 277 276 274 273 273 272 272 271 271 271 271 270 270 270 270 269 269 269 269 269 269 269 269 268 268 268 268 267 267
281 282 281 281 281 281 280 280 280 280 279 279 278 278 277 277 276 274 273 273 272 272 272 272 271 271 270 270 270 269 269 269 269 269 268 268 268 268 268 268 267 267 267 267
282 281 281 280 280 280 279 279 279 279 279 278 277 277 276 276 275 274 274 273 273 272 272 272 271 271 271 270 270 269 269 269 268 268 268 268 268 267 267 267 267 267 266 266

GFSNGP_850_thetae_090.txt.gz
Theta_e
303 303 303 304 304 303 305 306 311 314 315 315 313 310 306 303 301 299 297 295 295 295 297 299 302 305 309 315 319 323 325 325 326 325 324 324 323 323 322 322 320 319 320 321
299 300 302 302 304 304 305 305 308 310 315 306 306 305 303 302 300 298 296 294 294 295 297 298 299 301 304 308 312 316 321 323 324 324 323 322 322 322 321 320 319 319 320 322
299 302 303 303 305 305 305 309 312 314 313 307 303 300 298 298 296 295 294 293 294 294 295 296 297 299 301 303 306 310 311 313 320 322 322 322 322 322 321 320 319 319 320 321
302 302 304 305 307 308 310 309 309 308 308 303 298 295 294 293 293 293 293 293 293 294 295 295 297 298 299 301 304 305 304 306 310 314 316 317 318 319 320 319 318 318 318 318
302 304 304 304 308 305 304 307 303 304 305 300 296 295 293 292 292 292 292 292 293 293 294 296 297 296 298 299 301 303 303 302 303 302 302 304 308 310 308 311 313 313 315 313
304 305 303 304 301 302 303 307 301 299 298 300 299 304 294 291 291 292 292 292 292 293 293 295 295 296 297 297 297 298 299 300 301 301 301 302 300 300 301 303 304 303 307 306
303 304 304 300 300 300 308 304 297 295 294 296 294 293 291 291 291 291 291 291 291 291 291 291 293 295 295 294 294 294 295 297 299 300 300 300 300 299 300 299 299 299 299 298
305 305 305 297 299 301 300 297 295 293 292 291 291 291 291 291 291 290 289 290 290 289 289 289 291 292 291 292 292 293 294 295 296 297 298 297 298 297 296 298 297 297 298 298
302 300 298 296 296 296 296 296 294 292 291 290 289 289 290 290 290 289 288 289 289 289 289 289 289 289 290 289 290 291 293 293 293 293 293 293 295 294 292 293 294 293 294 293
300 298 297 296 295 294 293 292 291 291 290 289 288 288 288 289 289 289 288 288 288 289 288 288 288 288 288 289 290 291 291 291 291 292 292 292 292 291 291 292 292 292 292 292
298 297 295 294 294 293 292 291 291 290 289 288 288 287 288 287 287 287 287 287 288 288 288 288 288 288 288 287 288 288 288 289 289 290 290 290 291 291 291 290 290 291 290 291
294 294 294 293 292 292 292 290 289 288 287 287 288 286 286 286 286 286 286 286 286 286 287 287 287 287 287 287 288 288 287 286 287 287 288 289 289 289 288 288 288 288 287 289
294 293 293 292 291 291 290 289 288 288 287 286 286 286 285 284 284 285 285 285 285 285 285 286 286 287 286 286 286 287 287 287 287 286 286 286 286 287 288 287 287 287 286 286
294 293 293 292 291 290 290 289 288 287 286 286 285 284 284 283 283 284 284 284 284 284 285 285 285 285 285 285 286 286 286 285 285 285 285 285 284 283 282 282 283 284 283 283
293 294 293 292 291 290 289 288 287 286 286 285 284 284 283 283 283 283 283 284 284 284 284 284 284 283 282 283 283 283 284 284 283 283 283 282 282 282 281 280 280 279 278 279
294 293 291 290 291 290 288 287 287 285 284 284 283 283 283 282 282 282 282 283 283 283 282 282 282 282 282 281 281 281 281 281 281 281 281 281 280 280 279 279 278 278 278 278
293 292 290 290 289 288 287 286 285 284 283 283 282 282 282 282 282 282 281 280 279 279 279 279 281 281 281 281 281 280 280 280 280 280 280 279 279 279 278 278 276 276 277 277
291 291 290 289 288 286 285 284 284 283 283 282 282 282 282 282 282 282 281 279 278 277 277 277 278 279 280 280 279 279 279 279 279 279 279 278 278 278 277 277 276 275 275 275
288 288 287 287 286 285 284 283 283 283 282 282 282 282 281 280 279 278 278 277 276 275 276 276 276 277 278 278 278 278 278 278 278 277 277 277 277 277 276 276 275 275 274 274
285 285 285 285 284 284 284 283 283 283 282 282 281 279 278 277 277 277 278 278 277 276 275 275 275 275 276 277 277 277 277 277 277 276 276 276 276 275 275 274 274 273 273 272
284 283 284 284 283 283 283 282 282 281 280 278 277 277 277 276 276 276 277 277 277 276 275 275 275 274 274 275 275 275 275 275 275 275 275 275 274 274 274 273 273 272 272 272
283 283 283 283 283 283 282 280 278 278 278 277 277 278 278 277 277 276 276 276 275 275 274 273 273 273 273 273 274 273 273 274 273 273 273 273 273 272 272 272 271 271 271 271
282 282 282 282 280 279 279 278 278 278 278 277 277 276 276 276 276 276 275 275 274 273 272 272 272 272 272 272 272 272 272 272 272 272 272 271 271 271 271 271 270 270 270 269
282 281 280 280 281 280 280 279 279 279 278 278 277 277 277 276 276 275 274 273 273 272 272 272 271 271 270 270 271 271 270 270 270 270 270 270 270 270 270 269 269 269 269 268
280 280 281 281 281 280 280 279 279 279 279 278 278 277 277 276 276 275 274 273 273 272 272 271 271 271 270 270 270 270 269 269 269 269 269 269 269 268 268 268 268 268 268 267
281 281 281 281 281 280 280 279 279 279 278 278 278 277 277 276 276 275 274 273 273 272 272 272 271 271 271 270 270 270 269 269 268 268 268 268 268 268 267 267 267 267 267 267
282 281 280 280 280 280 279 279 278 278 278 277 277 277 276 276 275 274 274 273 273 273 272 272 272 271 271 270 270 270 269 269 269 268 268 268 267 267 267 267 267 266 266 266

GFSNGP_850_thetae_093.txt.gz
Theta_e
302 301 300 299 300 301 302 303 304 304 307 308 309 306 303 301 300 298 296 294 293 294 296 298 302 305 306 309 315 319 320 321 322 327 326 325 324 323 323 323 321 321 321 320
300 298 297 300 301 302 302 302 303 303 304 308 304 302 300 299 297 296 294 293 294 293 294 296 298 301 303 304 306 310 312 317 321 321 325 324 324 324 323 321 322 320 319 319
299 300 301 301 303 306 303 302 305 305 308 306 302 298 296 296 294 294 292 292 293 293 293 294 296 298 300 302 304 307 306 310 315 318 322 324 324 323 322 322 321 319 318 318
299 300 301 303 304 304 307 306 307 309 305 303 298 295 293 292 292 292 292 292 292 293 294 295 295 297 299 301 303 304 305 305 305 304 309 319 319 320 320 320 319 318 318 318
297 300 302 303 304 303 304 305 302 304 302 298 295 295 293 292 291 291 291 291 291 292 293 295 295 295 297 298 299 301 300 301 304 303 303 304 308 311 314 315 316 315 315 317
303 298 301 300 300 300 302 305 299 298 298 301 298 304 293 291 291 291 291 291 290 290 291 293 294 294 296 296 297 297 297 299 300 301 302 302 303 302 301 305 306 305 306 306
301 302 302 298 298 298 305 302 295 294 293 295 294 293 291 291 290 290 290 289 289 289 289 290 291 292 293 293 294 294 296 296 297 298 298 298 300 300 300 300 301 300 300 298
303 304 304 296 298 299 298 295 293 292 291 291 290 291 291 290 289 289 289 289 289 290 289 289 290 292 291 291 291 293 294 295 295 296 296 296 296 296 297 297 298 298 299 299
299 299 297 295 295 294 295 294 293 291 290 290 290 289 289 289 288 288 288 288 289 289 289 289 289 289 291 290 291 292 293 293 292 293 293 294 295 295 294 295 295 294 294 295
299 297 295 295 293 292 292 291 291 290 290 290 289 288 288 288 288 288 288 288 288 289 288 288 288 288 288 290 290 291 292 292 291 292 291 292 292 292 293 293 292 292 291 290
297 296 294 293 293 291 290 290 289 288 288 288 288 287 287 286 286 286 286 286 287 287 287 287 288 287 287 288 289 290 290 290 290 290 290 290 290 289 290 289 290 290 290 290
295 294 294 293 292 292 290 289 288 287 287 286 286 286 285 285 285 285 285 285 286 286 286 287 287 287 287 287 287 288 288 288 288 288 289 289 289 289 288 287 288 288 289 290
293 292 292 291 291 290 289 288 288 287 286 286 285 285 285 285 285 285 285 285 285 285 285 286 286 287 286 286 286 287 287 286 287 287 286 288 287 288 288 287 288 287 286 286
294 292 292 292 291 290 289 288 286 285 285 284 284 284 283 283 283 284 284 283 283 284 284 285 285 285 285 285 285 286 286 285 285 285 285 284 283 283 284 285 285 285 284 284
293 293 292 291 290 289 288 287 286 285 284 284 283 283 283 283 284 284 283 283 283 283 283 283 283 283 282 282 282 282 282 282 282 282 282 282 282 281 280 280 280 280 280 281
293 293 292 292 290 288 288 287 286 285 284 283 283 283 283 283 283 283 282 282 282 282 281 282 282 282 282 281 281 281 281 281 281 281 280 280 280 280 279 279 279 278 278 278
291 290 290 290 289 288 287 286 285 284 283 283 283 283 283 282 282 281 281 279 278 278 278 278 280 281 281 280 280 280 280 280 279 279 279 279 279 279 278 277 276 277 277 276
293 292 291 290 289 288 286 286 285 284 283 283 282 282 282 282 282 280 279 277 277 277 277 277 277 278 279 279 279 279 279 278 278 278 278 278 278 277 277 276 276 275 275 275
290 291 290 288 287 286 285 284 283 283 283 282 282 282 281 280 278 277 278 278 277 276 276 276 276 276 277 277 278 278 278 278 278 277 277 277 277 276 276 276 275 275 274 274
288 287 287 286 285 284 284 283 283 283 282 282 281 280 278 277 277 277 278 278 277 276 275 275 275 275 275 275 276 276 276 276 276 276 276 276 276 275 275 274 274 273 273 272
285 285 285 284 284 283 283 283 282 282 281 279 278 278 277 277 277 277 277 277 276 275 275 274 274 274 274 274 274 274 274 274 274 274 274 274 274 274 274 273 273 272 272 271
284 284 283 283 283 283 282 280 279 278 278 278 277 277 277 277 277 276 276 276 275 274 274 273 273 273 273 272 273 273 272 272 273 272 272 272 272 272 272 272 271 271 271 271
283 283 283 282 281 280 279 279 279 278 278 278 277 277 276 276 276 276 275 274 274 273 273 272 272 272 271 271 271 271 271 271 271 271 271 271 270 270 270 270 270 270 269 269
282 282 280 280 280 280 279 279 279 279 279 278 278 278 277 277 276 275 275 274 273 273 272 272 271 271 271 271 271 270 270 270 269 269 269 269 269 269 269 269 269 268 268 268
281 280 281 281 281 280 280 279 279 279 279 278 278 277 277 276 276 275 275 274 273 273 272 272 271 271 271 270 270 270 269 269 269 269 269 268 268 268 268 268 268 268 267 267
281 281 281 281 281 280 280 280 279 279 278 278 278 277 277 276 276 275 274 274 273 273 272 272 272 271 271 271 270 270 270 269 269 269 268 268 268 268 268 267 267 267 267 267
281 281 280 280 280 280 279 279 279 278 277 276 276 275 275 275 275 275 274 273 273 272 272 272 272 271 271 271 270 270 270 269 269 269 268 268 268 267 267 267 266 266 266 266

GFSNGP_850_thetae_096.txt.gz
Theta_e
301 301 299 300 298 297 299 300 299 298 300 302 306 305 302 299 297 296 295 295 295 296 296 297 298 299 301 302 306 309 315 321 322 324 323 325 326 325 325 325 323 322 321 321
299 299 297 298 298 298 299 300 301 301 301 303 304 301 298 296 296 295 293 292 293 295 295 295 296 297 299 301 304 306 309 311 313 319 319 321 324 325 325 324 323 322 321 320
297 299 298 297 300 305 304 304 305 303 301 304 300 297 295 295 293 293 292 291 292 293 293 294 295 295 296 298 302 305 306 306 306 311 314 315 318 323 325 323 321 321 319 318
298 298 295 301 303 303 303 304 301 304 306 305 297 294 293 292 292 292 291 290 291 291 293 293 295 296 296 298 298 301 303 305 307 307 307 313 302 314 319 320 321 320 318 317
294 298 299 301 301 300 302 302 299 300 300 297 294 293 292 291 291 291 291 290 290 291 291 293 294 294 296 297 297 297 298 300 301 304 304 304 305 302 305 311 315 316 315 314
300 297 297 298 298 299 300 303 296 295 297 298 296 302 292 290 290 290 290 289 289 290 291 292 292 293 294 295 295 294 295 297 297 299 301 306 301 301 302 302 302 304 307 309
299 299 298 296 297 297 303 299 294 293 293 297 293 292 291 290 289 289 289 289 289 290 289 290 291 291 292 292 293 293 293 294 296 297 297 296 298 300 299 301 301 300 301 300
301 301 300 295 297 297 296 294 293 291 290 290 289 290 289 288 288 288 288 288 288 289 289 289 289 291 291 291 290 292 293 294 294 294 295 295 296 295 296 297 297 296 297 298
299 297 296 294 294 292 292 292 291 289 289 289 288 288 288 287 287 287 287 287 288 288 288 288 289 289 290 289 290 291 292 293 293 293 293 293 294 294 295 295 294 293 293 293
298 296 295 294 292 291 290 289 289 289 289 288 287 286 286 286 286 287 287 287 287 288 287 287 287 288 288 289 289 290 291 291 291 291 291 292 292 292 292 292 291 291 291 291
297 295 294 293 292 291 289 289 289 288 288 288 287 286 286 285 285 285 285 286 286 286 286 286 287 287 287 287 288 289 289 289 289 290 290 291 291 290 290 290 290 289 289 289
293 294 293 292 292 290 289 288 287 287 287 286 286 285 285 284 284 284 285 285 285 285 285 286 286 286 287 287 287 287 288 287 287 288 288 289 289 289 288 288 288 288 287 289
292 293 292 291 290 290 289 288 287 287 286 285 284 284 284 284 283 283 284 284 285 284 284 285 285 285 285 285 286 286 286 286 286 286 286 286 286 287 288 286 287 287 286 286
292 292 291 291 289 289 288 286 286 286 285 285 284 284 283 283 283 284 284 283 283 284 284 284 283 283 282 282 282 283 283 283 283 283 283 282 281 283 284 284 284 284 284 284
293 293 292 291 290 288 287 287 286 285 284 284 284 283 283 283 283 283 282 282 282 282 282 282 282 282 282 281 281 281 281 281 281 281 281 281 281 280 280 279 279 279 279 280
292 291 291 290 289 288 287 286 285 284 284 283 282 282 282 282 281 280 280 280 280 280 279 280 280 281 281 280 280 280 280 280 280 280 280 280 280 279 279 279 278 278 278 278
292 290 291 289 289 287 287 286 285 284 283 282 282 282 281 281 280 280 280 278 277 277 277 277 278 279 279 279 279 279 279 279 279 279 279 279 278 278 278 277 276 277 277 276
292 292 291 290 289 288 286 285 284 284 283 282 282 282 282 281 280 278 277 277 276 276 276 276 276 276 277 278 278 278 278 278 278 277 278 277 277 277 277 276 276 275 275 275
291 292 290 289 288 287 286 285 284 283 283 282 282 282 280 278 277 278 278 278 277 277 277 276 276 276 276 276 276 277 277 277 277 277 277 276 276 276 276 275 275 274 274 273
289 289 288 287 286 285 285 284 284 283 283 282 280 278 277 277 276 277 277 277 276 276 275 275 275 275 274 274 274 275 275 275 275 275 275 275 275 274 274 274 273 273 273 272
286 286 286 285 285 284 284 283 282 282 279 278 278 278 278 277 277 276 276 276 275 275 274 274 274 273 273 273 273 273 273 273 273 273 273 273 273 273 272 272 272 272 271 271
285 285 284 284 283 283 283 281 279 278 278 278 277 277 276 276 276 276 276 275 274 274 273 273 273 272 272 271 271 271 271 271 271 271 271 271 271 271 271 271 271 270 270 270
284 283 283 282 282 281 279 279 279 278 278 278 277 277 277 277 277 276 276 275 274 273 273 273 272 272 271 271 271 270 270 270 270 270 270 270 270 270 270 269 269 269 269 269
283 283 283 281 280 279 279 279 279 279 279 278 278 278 277 277 276 276 275 275 274 273 273 272 272 271 271 270 270 270 270 269 269 269 269 268 268 268 269 268 268 268 268 268
283 282 280 281 280 280 279 279 279 279 279 279 278 278 277 277 276 276 275 274 274 273 273 272 272 271 271 271 270 270 270 269 269 269 268 268 268 268 268 267 267 267 267 267
281 281 281 281 281 280 280 280 279 279 278 277 277 277 276 276 276 276 275 274 273 273 272 272 272 272 271 271 271 271 270 270 270 269 269 268 268 268 267 267 267 267 267 266
281 281 281 281 280 280 280 279 279 278 277 276 275 275 275 275 274 274 274 274 273 273 273 272 272 272 271 271 271 271 271 270 270 269 269 268 268 268 267 267 267 267 266 266

GFSNGP_850_thetae_099.txt.gz
Theta_e
301 301 301 301 301 300 299 299 299 297 299 300 301 303 302 299 297 296 295 293 293 294 294 295 296 297 300 301 304 305 310 313 317 319 321 324 325 326 325 323 324 324 322 322
300 300 300 299 299 298 298 299 300 302 304 304 303 301 299 297 296 295 293 292 291 292 293 294 295 296 297 298 299 301 304 308 309 314 316 318 323 321 323 325 325 322 323 324
296 299 298 297 299 299 302 304 304 304 304 305 301 299 297 295 294 293 292 291 290 291 291 293 294 295 296 296 298 299 301 303 305 305 308 310 314 319 320 316 324 323 321 321
297 298 295 303 301 303 301 303 301 301 303 304 300 294 293 292 292 291 291 289 290 291 291 292 293 295 295 296 296 297 298 298 300 302 303 305 306 304 306 307 314 320 319 318
299 299 299 302 300 299 300 301 297 297 299 295 293 293 292 291 290 289 289 289 289 290 290 291 292 293 294 295 295 295 296 297 298 298 300 303 305 304 304 301 301 312 314 314
300 300 301 299 297 297 299 302 295 294 295 295 295 299 293 289 288 289 289 289 289 289 289 291 291 292 293 293 293 293 293 294 296 298 299 299 300 301 301 302 301 300 304 307
300 301 301 296 296 296 302 299 293 292 291 296 292 291 288 288 288 288 288 288 289 289 289 288 289 291 291 291 291 291 292 293 294 295 296 297 298 298 299 300 301 301 300 301
300 301 301 295 296 297 295 293 291 290 289 288 288 288 287 287 287 288 288 288 288 288 288 288 288 289 289 289 289 290 291 292 293 294 294 294 295 296 296 296 296 296 296 297
299 298 296 293 293 291 291 290 290 289 288 288 286 285 286 286 286 287 287 287 287 288 288 288 288 288 288 288 289 290 291 291 291 291 292 293 292 293 293 294 293 293 294 293
298 296 295 293 291 290 289 288 288 288 288 287 286 286 285 285 285 286 286 287 287 288 287 287 287 288 287 287 288 289 290 290 290 290 290 290 291 291 290 290 291 291 290 290
296 295 294 292 291 289 288 288 287 286 286 285 286 285 284 284 284 284 285 285 286 286 286 287 287 287 287 287 287 287 288 288 289 289 290 289 289 288 287 288 289 289 289 290
296 294 293 292 290 289 288 287 286 286 285 284 285 285 284 284 284 284 284 284 285 285 285 285 286 286 287 286 287 287 287 287 287 287 287 287 287 287 287 287 287 288 288 288
293 293 292 290 289 289 288 287 286 285 285 285 284 284 284 283 283 283 283 283 283 283 283 283 283 283 282 282 283 283 284 284 284 284 284 285 285 285 285 284 285 286 285 285
292 291 290 290 288 287 287 285 285 285 284 284 284 284 284 283 283 283 283 282 282 282 282 282 282 282 281 281 281 281 281 281 282 282 282 282 281 281 282 283 283 283 283 283
292 292 292 290 289 288 287 286 285 284 284 283 283 283 283 283 283 282 281 280 280 280 281 281 281 281 280 280 280 280 280 280 280 280 280 280 280 280 280 279 279 279 279 279
292 292 290 290 288 288 287 286 285 284 283 283 283 283 283 282 281 280 279 279 279 279 278 278 279 279 279 279 279 279 279 279 279 279 279 279 279 279 278 278 278 278 278 277
290 290 289 288 288 287 286 286 285 284 284 283 283 283 283 282 281 279 277 277 277 277 277 277 277 277 277 278 278 278 278 278 278 278 278 278 278 277 277 277 276 276 276 276
292 292 291 291 289 288 286 285 284 283 283 282 283 282 281 279 277 278 277 277 277 277 277 276 276 276 276 276 276 277 277 277 277 277 277 277 277 277 276 276 275 275 275 274
291 291 290 290 289 288 286 285 284 283 283 282 281 280 278 277 277 277 277 277 277 276 276 276 275 275 275 275 275 275 275 275 275 275 276 276 275 275 275 275 274 274 273 273
290 290 289 289 287 286 285 284 283 283 282 281 278 277 277 277 277 277 276 276 276 275 275 274 274 274 274 274 273 274 274 274 273 273 274 274 274 274 273 273 273 273 272 272
288 288 287 286 286 285 283 283 283 282 279 278 278 278 277 277 276 276 276 275 274 274 274 274 274 273 273 273 272 272 272 272 272 272 272 272 272 272 272 272 271 271 271 271
286 286 285 285 284 283 283 282 279 278 278 278 277 277 276 277 276 276 276 275 275 274 273 273 273 272 272 272 271 271 271 271 270 270 271 271 271 271 270 270 270 270 270 269
285 284 284 283 283 282 280 279 279 278 278 278 278 277 277 277 277 276 276 275 275 274 273 273 272 272 271 271 271 270 270 270 270 269 269 269 269 269 269 269 269 269 268 268
283 283 283 281 280 280 279 279 279 279 278 278 278 278 277 277 277 276 276 275 274 274 273 273 272 272 271 271 271 270 270 270 270 269 269 269 268 268 268 268 268 268 268 268
283 282 280 280 280 279 279 279 279 279 278 278 278 278 277 277 276 276 276 275 274 274 273 272 272 272 272 272 271 271 271 270 270 270 269 269 269 268 268 267 267 267 267 267
282 281 281 281 281 280 280 279 279 278 278 277 276 276 275 275 275 274 274 274 274 273 273 272 272 272 271 271 271 271 271 271 270 270 270 269 269 268 268 268 267 267 267 266
280 281 281 281 281 280 280 279 279 278 277 277 276 275 275 274 274 273 273 273 273 273 272 271 271 271 270 270 269 269 269 269 270 270 270 269 269 268 268 268 267 267 267 266

GFSNGP_850_thetae_102.txt.gz
Theta_e
302 302 302 302 302 302 301 301 301 301 301 302 305 307 306 303 302 299 297 296 295 295 295 295 294 296 297 299 299 298 302 309 311 315 320 318 324 324 324 325 325 324 323 324
300 301 301 301 301 301 301 301 300 301 302 307 305 305 302 301 299 298 296 294 294 293 293 292 292 295 296 296 297 298 300 300 302 308 311 315 316 322 323 324 324 324 325 322
298 299 299 299 301 301 301 301 304 306 306 304 305 304 300 298 296 295 294 292 291 291 290 290 293 293 294 295 295 297 298 299 300 302 303 307 309 312 309 316 317 320 324 322
299 299 302 304 303 304 303 304 303 302 301 301 299 296 295 294 293 292 291 289 289 288 289 291 292 293 293 294 295 295 296 297 299 300 302 303 303 304 304 305 308 308 315 321
304 304 302 303 302 301 302 303 298 298 298 297 295 295 293 291 289 289 288 288 288 288 288 290 291 292 292 293 293 294 294 294 295 297 298 299 301 301 302 302 302 302 304 304
303 304 304 304 300 299 299 303 296 295 296 298 297 303 294 289 288 288 288 288 288 287 288 290 290 291 291 292 292 292 292 293 294 295 295 296 296 297 298 301 302 301 301 297
303 304 304 298 299 298 303 301 294 292 292 295 294 292 288 288 287 287 287 287 287 287 287 288 288 290 290 290 290 290 292 293 293 293 293 293 294 295 295 296 299 300 300 299
303 304 305 297 299 301 296 294 292 291 290 289 288 287 287 287 287 286 286 286 286 286 285 285 286 287 288 289 290 290 291 291 291 292 292 292 292 292 293 294 294 295 295 295
302 301 296 294 293 292 292 293 291 289 288 287 287 286 286 285 285 285 284 285 286 286 286 285 286 286 285 286 288 289 291 291 290 291 292 291 292 292 291 291 291 291 291 291
301 298 296 294 292 291 290 289 288 288 287 287 286 285 284 284 284 285 284 283 284 285 284 284 284 284 284 285 286 286 287 288 289 290 290 291 291 291 291 291 290 289 289 289
298 296 295 293 292 290 288 288 287 287 286 286 285 284 284 283 283 283 284 284 283 282 282 282 283 283 283 284 285 286 285 285 285 285 285 286 288 288 288 288 290 290 289 289
302 297 296 293 291 289 288 287 286 286 285 284 284 283 283 282 282 282 284 284 284 283 283 282 282 282 282 282 283 284 284 284 284 284 284 284 284 283 285 286 287 288 288 288
295 295 293 291 289 288 287 286 286 286 285 284 284 283 283 282 281 283 283 283 283 282 282 282 282 282 281 281 281 281 282 282 282 282 282 282 282 282 282 283 284 284 285 284
294 292 291 291 289 288 287 287 286 285 285 284 284 283 283 282 281 281 282 282 282 282 282 282 281 281 281 281 280 281 281 281 281 280 280 280 280 280 280 280 280 280 280 281
294 294 293 290 289 287 286 286 286 285 284 284 283 283 282 281 280 280 279 279 279 280 280 280 280 280 280 279 279 280 279 280 280 280 279 279 280 279 279 279 279 278 278 278
292 292 291 290 289 288 287 287 286 285 284 283 282 282 281 281 282 281 280 279 278 278 278 278 278 278 279 279 279 279 280 278 279 279 279 279 279 279 279 278 278 277 276 276
292 291 291 290 289 288 287 287 286 284 283 282 282 280 281 281 279 279 278 278 278 277 277 277 277 277 277 277 277 279 279 279 278 279 279 278 278 278 278 278 277 276 275 275
293 292 292 291 289 287 286 285 284 283 282 283 283 282 280 279 279 279 278 278 277 277 277 277 276 276 276 276 276 277 277 278 278 278 278 277 277 277 277 276 276 275 275 274
292 292 291 289 288 287 286 285 284 284 284 283 282 280 279 279 278 277 277 276 276 276 275 275 275 275 275 275 275 275 275 275 276 276 276 275 276 276 275 275 275 274 274 273
290 290 289 288 287 286 286 285 284 283 282 280 279 279 278 278 277 277 276 276 275 275 275 274 274 274 274 274 274 274 274 274 274 274 274 274 274 274 274 274 273 273 273 272
290 289 289 288 286 285 284 284 284 283 280 279 279 279 278 277 277 277 276 277 275 275 274 274 274 273 273 273 272 272 272 272 272 272 272 272 272 273 273 273 272 272 272 271
288 288 287 286 285 284 284 284 280 279 279 279 278 277 277 277 277 276 276 276 275 275 274 273 273 272 272 272 272 271 271 271 271 271 271 271 271 271 271 271 271 271 271 271
286 285 285 284 284 284 281 280 279 279 279 278 278 277 277 277 277 277 278 276 275 274 274 273 273 272 272 272 271 271 271 271 271 270 270 270 270 270 269 269 269 269 269 269
284 283 283 283 281 280 280 280 279 279 278 278 278 278 277 277 277 276 276 276 275 274 274 273 273 272 272 272 271 271 271 271 271 271 270 270 270 269 269 269 269 269 268 268
283 283 282 280 280 280 280 279 279 279 278 278 278 277 277 276 275 276 275 275 275 274 273 273 273 272 272 271 270 270 270 270 270 270 270 270 270 269 269 269 269 268 268 268
283 281 280 280 280 279 279 279 279 279 278 278 276 276 275 275 275 274 274 274 274 273 273 272 272 271 270 270 269 269 269 269 269 269 269 269 269 269 269 269 268 268 268 268
280 280 280 280 280 280 280 280 279 278 277 277 276 275 275 274 274 274 273 273 272 272 271 271 270 270 269 269 268 268 267 267 266 267 267 267 267 267 268 267 267 267 267 267

GFSNGP_850_thetae_105.txt.gz
Theta_e
304 304 304 305 306 306 305 305 304 304 303 303 307 308 308 305 304 302 300 298 297 297 296 295 295 294 294 292 295 298 300 301 302 302 306 310 316 317 323 325 325 325 325 326
304 303 303 302 303 303 303 303 303 303 302 307 306 306 304 302 301 299 297 296 295 294 294 293 292 292 292 291 293 296 298 299 299 301 304 308 308 313 319 316 322 323 323 324
302 301 301 301 303 303 303 303 303 304 307 304 304 301 299 299 297 296 294 293 292 292 291 290 290 291 290 290 292 295 297 297 297 299 300 302 302 306 312 310 315 319 320 322
302 301 301 306 305 304 305 305 306 305 304 302 299 297 295 294 294 293 292 290 289 290 289 290 290 289 289 289 292 294 295 295 295 296 297 298 299 300 301 302 303 305 306 310
305 304 305 305 304 303 303 305 300 301 301 300 297 296 293 292 291 290 289 289 289 288 288 289 289 288 288 290 292 293 292 293 292 294 294 296 296 297 299 300 300 300 301 301
305 306 305 306 302 301 301 305 298 297 297 298 298 302 294 290 289 288 289 288 288 288 288 288 288 289 290 290 291 291 291 291 291 292 292 292 293 294 295 296 295 297 299 300
305 306 305 301 301 301 304 302 295 294 293 297 298 293 289 288 287 288 288 288 288 288 287 287 288 288 289 289 289 289 290 291 292 291 291 291 291 292 292 292 294 295 295 296
305 306 308 299 301 302 297 295 294 292 292 291 290 289 287 287 286 286 287 287 287 287 287 287 287 288 288 288 288 289 290 290 291 292 291 291 292 291 292 292 291 291 291 291
304 304 297 296 295 294 294 294 292 291 290 289 288 286 286 285 285 285 286 287 288 287 287 286 286 286 287 288 288 288 288 288 288 289 290 291 291 292 292 290 291 290 290 290
303 299 296 294 293 293 293 292 291 290 288 287 286 286 285 285 285 284 284 285 286 286 286 285 285 285 286 287 288 287 287 287 287 286 287 288 289 289 290 290 289 289 290 290
299 297 296 294 293 292 291 289 288 288 288 287 287 286 286 285 284 283 283 283 283 284 284 284 283 283 284 284 285 286 286 285 286 286 286 286 286 285 285 285 287 288 287 288
305 299 299 295 292 291 290 289 289 288 288 287 286 286 285 284 284 283 282 282 282 281 281 281 281 281 282 282 284 284 285 285 284 285 285 285 284 285 284 282 282 284 285 285
298 297 295 293 292 291 290 289 289 288 288 287 287 286 285 284 284 282 282 282 283 283 282 281 280 280 281 280 281 282 282 283 283 283 283 283 283 283 283 283 282 281 280 280
295 294 293 292 291 291 290 289 288 287 287 287 287 286 285 285 284 283 281 281 280 281 280 280 280 280 280 280 280 281 281 281 282 281 281 282 282 282 282 282 282 281 280 280
295 296 294 292 291 290 289 288 288 287 287 286 286 286 285 284 282 281 280 280 279 279 279 279 279 279 279 279 281 281 281 280 281 281 281 281 282 282 281 281 281 280 279 279
295 294 293 292 290 289 289 289 288 287 286 285 284 283 282 281 280 279 279 280 280 280 279 279 279 279 279 278 280 281 282 280 280 281 281 281 281 281 281 281 280 280 277 276
294 293 292 291 291 290 290 289 288 287 286 285 283 282 281 280 279 279 280 280 279 278 278 278 278 278 278 277 279 280 280 280 279 280 280 280 280 280 280 280 279 279 278 276
295 294 293 292 291 290 289 288 287 286 285 283 283 283 281 280 280 279 279 278 278 278 277 277 277 277 277 277 277 278 278 278 279 279 279 279 278 279 278 278 278 277 277 276
294 293 293 292 290 289 287 286 284 284 284 283 283 281 280 279 279 279 278 278 278 277 276 276 276 276 276 275 276 277 277 277 277 277 277 277 277 277 277 277 277 276 276 275
293 292 291 289 288 287 285 285 285 285 284 283 280 280 279 279 279 278 277 277 276 276 276 276 275 275 274 274 275 276 276 276 276 276 275 275 276 275 276 276 275 275 275 274
290 289 288 288 287 286 286 285 285 284 282 280 280 279 279 278 278 278 279 280 277 276 276 275 274 274 273 274 275 274 274 274 274 274 274 274 274 274 274 274 274 274 274 273
289 289 289 288 287 286 285 284 283 281 281 280 279 278 278 278 277 277 277 277 276 275 275 275 274 273 273 273 274 274 274 273 273 273 273 273 273 272 272 272 272 272 272 272
288 288 287 286 285 285 284 282 279 280 279 279 278 278 279 280 279 280 280 278 276 275 275 275 274 273 273 273 273 273 273 273 273 273 272 272 272 272 271 271 271 271 271 271
287 286 285 284 284 283 280 279 279 279 278 278 279 278 278 279 279 278 277 276 275 275 274 274 273 273 273 272 273 273 272 272 272 272 272 272 272 272 271 271 271 270 270 270
285 284 284 283 280 280 279 279 279 278 279 278 278 278 277 277 277 277 276 276 275 274 275 275 273 273 272 272 272 271 271 271 271 270 270 271 271 271 272 271 270 270 270 269
283 282 281 281 282 281 280 280 281 280 280 280 279 277 277 276 276 276 275 275 274 274 274 273 272 270 271 270 270 270 269 269 269 268 268 268 269 269 270 270 270 270 269 269
282 281 281 282 282 281 281 282 282 281 280 280 280 277 276 276 275 275 274 274 274 273 272 271 270 270 269 268 268 268 267 267 267 265 265 265 265 265 265 266 267 267 267 267

GFSNGP_850_thetae_108.txt.gz
Theta_e
308 306 306 307 307 307 306 306 308 306 305 308 308 309 306 305 303 301 299 298 296 295 294 293 292 292 292 292 294 295 296 296 297 300 302 304 305 307 311 316 318 321 327 326
307 306 305 304 304 304 305 305 304 303 304 306 304 303 302 301 300 298 297 295 294 293 292 291 290 291 291 291 292 293 294 294 296 298 300 301 301 303 305 310 315 310 318 325
305 305 302 302 304 303 304 304 305 304 306 304 301 299 298 298 296 295 293 292 291 291 290 289 289 290 289 289 291 292 292 293 295 295 297 297 298 300 300 302 304 310 308 314
304 303 301 307 305 305 305 306 305 305 303 301 299 296 294 294 293 292 291 290 289 289 289 289 289 290 290 290 291 291 291 292 293 294 294 295 296 296 297 297 299 301 303 302
304 303 307 305 304 303 304 304 300 301 301 300 297 294 293 291 290 289 289 289 288 288 288 288 289 289 289 290 290 290 291 291 292 292 292 292 292 292 292 294 295 296 298 300
306 306 305 306 303 303 302 304 298 297 297 298 299 300 293 289 289 289 289 289 288 288 288 288 288 288 288 289 289 290 290 291 291 291 291 291 290 291 291 292 292 294 295 295
306 306 305 303 302 302 305 301 295 293 294 297 295 293 289 288 287 288 288 289 288 288 288 287 288 288 289 288 288 288 289 290 290 291 291 291 292 292 291 290 291 292 293 294
306 307 307 300 302 303 298 296 293 292 292 291 290 288 288 287 287 288 288 288 288 287 287 287 287 287 288 289 288 288 288 289 288 289 290 290 291 291 291 291 291 291 291 292
303 303 297 296 296 295 296 295 293 291 290 290 288 287 286 286 286 286 287 287 287 287 286 285 285 285 286 287 287 287 287 287 287 288 288 288 289 289 290 290 290 289 290 290
302 298 296 295 294 294 293 292 291 290 289 288 287 286 286 286 285 286 285 285 286 285 284 283 284 284 285 285 286 286 286 286 286 285 285 285 285 285 285 285 286 286 286 286
300 298 296 295 293 292 291 291 290 289 288 287 287 287 286 285 285 284 284 284 284 283 283 282 282 283 283 284 284 285 285 285 285 285 285 284 284 284 283 282 280 282 282 283
306 299 299 295 293 292 291 290 290 289 289 288 287 286 285 285 284 283 282 282 282 283 282 281 281 282 283 282 283 283 284 284 283 283 283 283 283 283 283 283 282 280 279 279
300 298 296 293 292 292 291 291 290 289 289 288 287 286 285 285 284 283 282 282 282 281 281 281 281 281 282 282 281 281 282 282 282 282 282 282 282 282 282 282 282 281 280 279
296 295 293 293 292 291 291 290 289 289 288 288 287 287 286 285 284 282 282 281 281 281 280 280 280 280 280 281 281 281 281 281 282 281 281 282 282 282 281 281 281 280 280 279
295 296 294 293 292 291 290 289 289 288 288 288 287 287 286 284 282 281 281 280 280 279 278 278 278 278 279 281 281 282 281 280 282 281 281 281 281 281 281 280 280 280 279 278
296 295 294 293 292 291 290 290 289 288 288 287 286 285 283 281 280 280 280 279 279 279 278 278 278 278 277 278 280 280 280 280 280 280 280 280 280 280 280 279 279 279 278 277
295 294 293 292 291 291 290 290 289 288 287 285 284 283 282 280 280 280 279 278 278 278 278 278 278 278 278 277 279 279 279 279 279 279 279 279 278 279 279 278 278 277 277 276
295 294 293 292 291 291 290 289 288 287 286 284 283 283 282 281 280 279 278 278 279 278 278 278 278 278 277 277 278 277 277 277 277 278 277 277 277 277 277 277 277 277 276 275
295 294 293 292 291 290 289 287 287 286 285 284 284 281 280 280 279 278 278 278 278 278 277 277 277 276 276 275 277 276 276 276 276 276 276 275 275 275 276 276 275 275 275 275
294 293 292 291 290 288 287 287 286 285 285 284 281 280 280 279 278 278 279 280 278 277 276 276 276 275 275 275 275 275 275 275 275 274 274 274 274 274 274 274 274 274 274 275
293 292 291 290 289 288 287 286 285 285 283 280 280 280 279 279 278 279 281 280 279 276 276 276 275 274 274 274 275 274 274 274 274 274 273 273 273 273 273 272 272 272 272 272
291 291 290 289 288 287 286 285 285 283 280 280 280 279 279 278 279 280 280 279 278 276 276 276 276 274 274 273 274 274 274 274 273 273 273 273 273 272 272 272 271 271 271 271
290 289 289 288 287 286 285 284 283 281 280 279 279 279 281 280 280 280 280 279 277 277 276 276 275 274 274 273 273 273 273 273 272 272 272 272 272 273 273 272 271 271 271 270
288 288 287 286 285 285 284 281 280 280 279 279 279 279 279 280 280 279 278 278 277 276 275 275 275 274 273 273 273 272 272 271 271 271 271 271 271 271 271 271 272 271 271 270
287 286 286 285 283 282 280 280 280 279 279 279 278 278 278 278 279 278 277 276 276 275 275 275 274 273 272 272 271 271 271 270 270 269 269 268 268 269 269 270 270 271 271 270
283 283 284 282 282 281 280 280 280 279 280 280 279 279 278 277 277 277 276 276 275 274 274 274 273 272 271 270 269 269 269 268 268 267 267 266 266 266 266 266 267 268 268 268
283 282 282 283 282 281 281 282 282 281 282 281 280 279 277 277 276 276 275 275 274 274 273 272 271 271 270 269 268 267 267 266 266 265 264 264 264 264 264 264 265 265 265 265

GFSNGP_850_thetae_114.txt.gz
Theta_e
310 311 309 309 305 308 311 309 308 308 310 308 303 300 298 297 295 294 293 292 291 289 289 289 288 290 291 292 292 293 294 294 294 294 294 295 295 295 296 298 298 300 302 304
309 309 306 304 304 303 303 306 308 308 307 303 300 298 296 296 294 293 291 291 290 288 288 289 288 290 291 291 292 292 293 293 293 294 294 294 294 294 294 296 297 296 298 299
311 308 308 306 303 307 306 304 306 305 304 299 297 295 295 294 293 291 290 289 288 288 288 288 288 289 290 291 291 292 292 292 292 293 293 294 294 293 292 293 294 293 294 294
307 307 309 305 306 306 303 301 303 302 300 298 295 292 291 291 291 290 289 288 288 288 288 288 288 289 289 290 291 291 292 292 292 292 292 293 294 294 293 292 292 291 292 292
305 305 305 305 304 303 303 300 298 300 297 294 292 291 290 289 289 289 288 288 288 288 288 288 288 288 288 289 290 290 289 288 289 289 290 290 291 291 292 292 292 291 291 292
304 304 304 301 303 301 299 298 295 296 297 294 292 293 290 289 288 288 288 287 287 288 288 288 288 288 287 288 287 287 286 286 286 286 286 287 287 286 289 290 290 290 291 290
305 303 303 302 303 301 299 298 294 294 293 295 294 290 289 288 288 288 287 287 287 287 288 288 288 287 286 286 287 286 286 286 286 285 285 284 284 286 286 286 285 286 288 289
303 302 303 297 300 301 294 293 293 292 291 291 290 288 287 288 288 287 287 286 286 287 287 287 286 286 286 285 285 285 286 285 285 285 284 284 284 284 284 284 284 284 284 284
300 297 295 295 295 295 295 292 291 290 289 289 288 287 287 287 287 287 286 286 286 285 285 285 286 286 286 285 284 284 284 284 284 283 283 283 283 284 284 282 282 282 281 282
297 296 295 295 295 295 294 292 291 290 288 288 287 286 286 286 286 286 286 285 284 283 284 284 284 284 285 284 283 283 283 283 282 282 282 281 281 281 280 280 279 280 281 280
297 296 294 294 293 293 292 291 290 289 288 287 286 286 286 285 285 285 285 284 282 282 283 283 282 282 282 282 282 282 282 282 281 281 281 281 281 280 280 279 278 279 279 279
296 296 295 294 292 292 291 290 289 288 287 286 286 286 285 285 285 284 283 282 282 282 282 282 282 282 282 281 281 282 282 281 281 281 281 281 280 280 279 279 278 277 278 278
295 295 295 293 292 291 290 289 288 287 287 286 286 286 286 285 284 283 281 281 281 281 280 280 281 281 282 281 281 281 281 281 281 280 280 280 279 279 279 278 277 277 276 276
296 295 292 292 291 290 289 289 288 288 287 286 286 285 285 284 282 281 281 281 280 279 278 279 280 280 280 280 280 280 280 280 279 279 279 279 279 278 278 277 277 276 276 275
295 296 293 292 291 290 289 289 288 287 286 286 285 285 284 283 282 282 281 279 278 278 278 278 279 279 279 279 279 279 279 279 278 278 277 278 278 277 277 276 276 275 275 274
295 293 292 291 291 290 289 288 288 287 286 285 285 284 284 283 282 281 279 278 278 279 278 278 279 279 279 278 278 278 278 278 277 277 276 276 276 276 276 275 275 275 274 274
292 292 291 291 290 289 289 288 288 287 287 286 285 285 284 282 281 279 278 278 279 279 279 278 278 277 277 277 277 276 276 276 275 275 274 274 274 274 274 274 274 274 274 273
294 292 292 291 290 289 289 288 288 287 287 286 285 285 283 281 280 278 278 279 279 279 278 277 277 276 276 276 276 275 275 274 274 274 273 273 273 273 272 272 272 272 273 273
293 292 291 291 290 289 289 288 288 287 287 286 285 283 281 280 279 279 279 279 278 277 277 277 276 275 275 275 275 275 274 274 274 273 273 273 273 273 272 272 271 271 271 271
293 292 291 290 290 290 289 288 288 287 286 284 283 282 280 279 279 279 279 278 277 277 276 276 276 275 274 274 274 274 274 274 273 273 273 273 272 272 272 272 272 272 271 271
293 292 291 291 290 290 290 289 287 286 285 284 284 281 280 278 278 280 280 279 277 277 276 276 276 275 275 274 274 274 274 273 272 272 272 272 271 271 271 271 271 271 271 271
293 292 292 291 291 289 288 288 286 286 285 283 280 280 279 279 280 280 279 278 277 276 276 275 275 275 275 274 274 273 273 272 271 271 271 270 269 269 269 269 269 269 270 270
293 292 291 291 290 289 287 286 286 285 284 281 280 279 279 279 280 280 279 278 277 276 276 275 275 275 274 273 272 272 271 271 270 270 269 268 268 268 267 267 267 267 268 268
292 291 290 289 288 288 287 285 284 283 280 279 278 279 280 280 279 279 278 278 277 276 275 275 275 274 273 272 271 271 270 269 269 268 268 267 267 267 266 266 266 266 266 266
290 290 289 288 287 286 285 284 281 279 279 279 280 280 279 280 279 279 278 277 276 275 275 275 274 273 272 271 271 270 269 268 268 267 267 267 266 266 266 265 265 265 265 265
289 288 288 287 287 286 285 283 280 279 278 279 279 279 279 278 278 278 277 276 275 275 275 274 273 272 271 271 270 269 268 268 267 267 267 266 266 265 265 265 265 264 264 264
287 286 285 285 285 284 284 282 280 279 278 279 279 278 278 277 277 277 276 275 275 274 274 273 272 271 270 270 269 268 268 268 267 267 266 266 265 265 265 264 264 264 263 263

GFSNGP_850_thetae_117.txt.gz
Theta_e
310 310 310 310 311 311 312 311 310 308 309 309 305 301 297 295 294 293 292 291 290 289 289 289 288 289 291 292 293 293 294 294 294 294 294 294 294 294 295 296 296 296 296 296
308 309 310 309 307 303 308 310 310 308 309 304 300 297 296 295 293 292 291 290 289 288 288 288 288 289 290 291 292 292 293 293 292 293 294 293 294 294 294 295 295 296 296 294
310 309 311 311 306 305 305 304 306 307 305 301 299 297 295 294 292 290 289 288 288 288 288 288 287 289 289 289 290 291 291 291 291 292 292 292 293 293 294 294 294 295 295 295
308 308 311 306 304 306 304 302 303 302 302 299 295 293 292 292 291 289 288 288 288 288 288 288 288 288 288 288 289 289 288 288 288 289 289 289 291 291 291 291 292 293 294 294
305 307 305 304 303 302 303 302 299 300 296 294 292 291 290 290 290 289 288 288 287 288 288 288 288 288 287 288 288 288 287 286 286 285 287 287 286 285 285 287 288 289 291 292
305 304 306 299 302 301 298 298 296 296 294 292 291 290 290 289 288 288 287 287 287 288 288 288 287 288 287 287 286 286 285 285 284 285 284 284 284 284 284 285 285 285 285 285
304 304 302 301 302 301 297 298 295 296 294 292 291 291 290 289 288 287 287 286 287 287 288 287 287 286 286 286 285 285 284 284 284 284 284 284 284 284 284 284 284 284 285 285
303 302 301 298 301 301 294 294 294 294 294 293 291 290 289 288 287 287 287 286 286 286 287 286 286 286 285 284 284 284 284 284 283 283 282 282 282 282 282 283 283 283 284 284
301 299 295 295 296 295 295 294 292 292 292 292 290 288 287 287 287 287 286 286 285 285 285 285 286 285 285 283 283 283 283 282 282 282 282 282 281 281 281 281 281 281 280 280
298 296 295 295 294 294 294 293 291 291 289 290 288 287 287 287 286 286 286 284 283 284 284 284 283 283 283 282 282 282 282 282 281 281 281 280 280 279 279 279 279 279 279 278
297 296 295 294 294 293 292 291 290 289 289 289 287 286 287 286 286 286 285 283 282 283 283 282 281 281 282 282 282 282 281 281 281 280 280 280 279 279 278 277 277 277 277 276
298 296 295 294 293 292 292 290 289 289 287 287 287 286 286 286 286 285 284 282 283 282 282 282 282 282 281 281 281 281 281 280 280 280 279 279 279 278 277 277 276 276 275 275
297 295 295 293 293 292 291 290 289 288 287 286 286 287 286 286 284 283 282 281 280 280 281 281 281 281 281 280 280 280 280 279 279 279 278 278 278 277 277 276 276 275 275 274
296 295 291 292 291 292 290 289 288 288 287 287 286 286 285 284 283 282 280 279 279 279 280 280 280 280 280 279 279 279 279 278 278 277 277 277 277 276 276 275 275 275 274 274
295 296 293 292 291 290 289 288 287 287 286 286 285 285 284 283 282 280 279 278 278 279 279 279 279 279 278 278 278 278 278 277 277 276 276 276 276 276 275 275 275 274 274 274
295 295 292 292 290 290 288 288 287 286 286 285 285 284 284 283 281 280 279 278 279 278 277 278 278 277 277 277 277 278 277 276 276 276 276 275 275 274 274 273 273 273 273 273
293 291 291 291 290 289 288 288 287 287 286 286 285 284 282 282 281 280 279 278 277 277 278 277 277 277 277 277 278 277 276 276 275 275 274 274 274 273 273 272 272 272 271 271
295 293 292 291 290 289 289 288 287 287 286 286 285 284 283 282 282 280 278 277 277 277 277 276 276 277 277 277 276 276 275 274 274 274 274 273 273 273 272 272 272 271 271 271
294 292 291 291 291 290 289 288 288 287 287 286 285 284 283 281 280 279 278 278 277 277 276 276 276 276 276 276 275 275 274 274 273 273 273 272 272 272 272 272 271 271 271 271
293 292 291 291 290 289 289 288 288 287 287 286 285 283 280 280 279 278 278 278 277 276 276 276 276 276 276 275 274 274 274 273 273 272 272 271 271 271 270 270 270 270 270 270
293 292 291 290 290 289 289 289 288 287 286 285 285 283 281 279 278 278 279 278 277 276 276 276 276 275 275 274 274 273 273 273 272 271 271 270 270 269 269 269 268 268 268 269
292 292 291 290 290 290 289 289 287 287 285 284 283 281 280 278 279 280 279 279 277 276 276 276 275 275 274 274 273 272 272 272 271 270 270 270 269 269 268 268 267 267 267 267
292 291 291 291 290 290 289 288 287 286 285 284 283 281 279 279 280 280 280 278 277 277 276 275 275 275 274 273 272 271 271 271 270 270 269 269 268 268 268 267 267 266 266 266
293 292 291 291 290 289 288 287 286 285 284 283 280 279 279 279 280 279 279 278 277 276 275 275 275 274 273 272 272 271 271 270 270 269 269 268 268 267 267 267 266 266 266 265
292 292 291 290 289 288 287 286 284 284 280 279 278 278 279 280 280 279 279 278 277 276 275 274 274 273 272 272 271 271 270 270 269 269 268 268 267 267 266 266 266 265 265 265
291 290 289 289 288 287 286 285 284 282 279 278 279 280 279 279 279 279 278 277 276 275 275 274 273 272 272 271 271 270 269 269 268 268 268 267 267 267 266 266 265 265 265 265
288 288 287 287 286 286 285 285 284 282 279 279 280 279 279 278 278 277 277 276 275 275 274 273 272 271 271 270 270 269 269 268 268 268 267 267 267 266 266 266 265 265 265 265

GFSNGP_850_thetae_120.txt.gz
Theta_e
310 310 310 310 310 311 314 313 313 310 309 309 308 303 296 295 294 293 292 290 289 289 289 288 289 290 290 291 292 292 293 294 294 294 294 294 293 292 292 292 292 293 294 293
308 309 310 310 309 309 310 312 311 309 308 307 301 297 295 294 293 292 291 290 289 288 288 288 288 289 290 291 291 292 291 291 290 291 291 291 292 292 293 293 293 294 293 294
310 307 307 311 309 307 305 304 307 310 307 300 298 297 295 294 293 291 290 289 288 288 288 287 287 288 288 289 290 291 291 289 289 287 287 287 287 288 288 288 289 290 291 292
309 308 310 306 302 305 304 304 303 303 302 300 298 295 294 294 292 290 289 288 288 287 287 288 287 287 288 288 289 287 286 285 285 285 286 285 286 286 285 285 285 286 286 286
307 307 306 304 303 301 302 302 299 301 299 294 292 292 291 291 291 290 289 288 287 288 288 288 288 288 288 287 287 286 285 285 285 284 284 284 284 284 284 285 285 285 284 284
304 303 303 299 302 302 300 301 297 298 295 293 293 295 288 290 290 288 288 288 288 288 288 288 288 287 287 286 285 284 284 283 283 283 283 283 283 283 283 283 283 283 283 283
304 304 302 299 301 299 299 300 297 297 294 292 291 291 291 289 288 288 287 287 287 287 287 287 286 285 285 285 284 283 283 282 282 282 282 282 282 283 282 282 282 282 281 281
304 303 301 300 300 300 296 293 295 294 293 291 290 290 289 288 287 287 286 286 286 287 287 286 285 285 284 283 282 282 282 282 282 282 282 281 281 281 281 281 281 281 281 281
300 298 294 296 297 297 296 295 294 294 292 292 291 289 288 287 287 287 286 286 286 286 286 285 285 284 283 282 282 282 282 282 281 281 281 280 280 280 280 279 279 279 279 279
296 295 294 295 295 295 295 295 295 295 294 293 292 289 288 287 287 286 286 286 285 285 284 284 284 283 282 282 282 282 281 281 280 280 280 279 278 278 278 277 277 278 277 277
296 295 295 294 294 294 294 293 292 291 292 292 291 288 287 287 286 286 285 283 283 283 282 282 281 282 282 282 281 281 281 280 280 279 278 278 277 277 277 276 276 276 275 275
299 297 296 295 294 293 293 291 291 291 289 289 290 288 287 286 286 285 283 282 282 282 282 281 281 281 281 281 280 280 280 279 278 278 278 277 277 277 276 275 275 274 274 274
297 296 295 294 293 292 292 290 289 289 289 288 287 287 287 286 285 283 281 282 282 281 281 281 281 281 280 280 279 279 279 278 277 277 277 277 276 276 275 275 275 274 273 273
296 295 291 292 290 291 291 289 289 288 288 288 287 286 286 285 283 281 280 280 280 280 280 280 280 279 279 278 278 278 277 277 276 276 276 275 275 274 274 274 274 274 273 273
295 296 294 292 291 291 290 289 288 287 287 286 286 286 285 284 282 280 280 279 279 280 279 279 279 278 278 277 277 277 276 276 276 276 275 274 274 274 274 274 274 274 274 274
294 294 292 292 291 291 289 288 288 286 286 286 286 285 284 283 280 280 279 279 279 279 279 278 278 277 277 276 276 276 276 276 275 275 275 274 274 274 274 273 273 273 273 272
292 290 290 290 290 289 288 288 288 287 286 286 285 285 283 281 280 279 279 279 278 278 278 278 277 276 276 275 275 276 276 275 275 275 274 274 273 273 273 273 272 272 272 271
295 294 292 291 290 289 288 288 287 287 287 286 285 285 283 281 281 279 279 278 278 278 278 277 276 275 275 275 275 275 275 274 274 274 273 273 272 272 272 272 271 271 271 271
294 293 292 291 291 289 288 288 287 287 287 286 285 284 283 282 280 278 278 278 278 278 277 276 276 275 275 275 275 275 274 274 274 273 273 272 271 271 271 270 270 269 269 269
293 292 291 291 290 290 289 288 288 287 286 286 284 283 282 281 279 278 277 278 278 277 276 276 276 275 275 275 274 274 274 273 273 272 272 271 271 271 270 270 269 269 268 268
293 292 291 291 290 290 289 288 288 287 286 285 285 284 282 279 278 278 278 278 277 276 276 276 276 275 275 275 274 274 273 273 272 272 271 271 270 270 269 269 268 268 268 267
292 292 291 290 290 289 289 289 288 287 286 285 284 283 280 279 278 277 278 278 277 276 276 276 275 275 275 274 274 273 272 272 272 271 271 270 270 269 269 269 268 268 267 267
292 292 291 291 290 289 289 288 288 287 286 285 283 281 280 279 279 280 279 278 277 276 276 276 275 275 274 274 273 272 271 271 271 271 270 270 269 269 269 268 268 268 267 267
292 291 291 291 290 290 289 288 287 286 286 285 283 281 280 278 279 279 279 278 277 276 276 275 275 274 274 273 272 271 271 271 271 271 270 269 269 269 268 268 268 267 267 266
292 292 291 290 290 289 288 287 286 285 284 284 282 279 278 279 280 280 279 278 277 276 275 275 274 274 273 272 271 271 271 271 270 270 269 269 269 269 268 268 267 267 266 266
292 291 290 290 290 289 288 287 286 285 284 283 279 278 279 279 279 279 279 278 277 276 275 274 274 273 272 271 271 270 270 270 270 269 269 269 269 268 268 267 267 267 266 266
290 290 289 288 288 287 287 286 285 284 284 283 279 278 279 279 279 279 278 277 276 275 275 274 273 272 271 270 270 270 270 270 269 269 269 269 268 268 268 267 267 267 266 266

GFSNGP_850_thetae_126.txt.gz
Theta_e
310 311 311 313 313 313 314 315 316 314 312 312 312 313 310 307 304 300 298 297 295 294 292 290 289 289 289 290 290 291 291 291 291 288 287 286 286 286 286 286 286 286 286 286
309 309 309 309 310 310 311 312 312 312 313 312 311 312 310 307 302 299 298 296 294 292 291 290 289 289 289 289 289 289 288 286 286 285 285 285 286 286 285 284 284 284 284 284
310 308 310 312 311 311 311 311 312 312 312 312 312 312 310 306 302 299 297 295 293 291 290 289 289 288 288 288 287 286 285 284 284 284 284 284 284 283 283 283 283 283 283 282
310 310 312 310 309 310 310 311 311 311 311 311 311 311 311 306 302 299 296 294 292 290 289 289 288 288 287 287 286 285 284 284 283 283 283 283 283 283 282 282 282 282 282 281
309 308 308 308 308 310 311 310 310 310 311 310 308 304 301 301 300 297 294 291 290 289 288 289 289 288 287 286 285 284 283 283 282 282 282 282 282 282 281 281 281 281 281 281
308 308 308 311 308 307 307 310 308 308 309 306 301 306 305 297 296 293 291 290 289 288 289 289 288 288 287 285 284 283 283 282 282 281 281 281 281 280 280 280 280 279 280 280
309 308 307 308 306 305 309 310 306 307 307 303 304 303 298 293 291 291 290 288 288 288 288 288 287 286 285 284 283 282 282 282 281 281 280 280 280 280 279 279 279 279 279 278
309 308 309 305 305 305 308 302 304 304 303 301 296 293 291 290 289 289 288 287 288 287 287 286 285 285 284 283 282 282 282 281 281 280 280 280 280 279 279 279 279 279 278 278
308 308 305 304 304 301 301 303 302 301 300 297 292 290 289 288 288 288 287 286 285 286 286 286 285 285 284 283 282 282 281 281 280 279 279 279 279 279 280 279 279 278 279 278
305 306 304 303 300 300 299 300 299 299 297 294 291 289 288 287 287 286 286 286 287 287 286 285 284 284 284 283 283 282 282 281 280 279 279 279 279 279 278 278 278 278 277 277
306 303 301 300 301 300 297 297 297 296 295 292 291 288 287 286 286 285 285 286 286 286 286 284 283 283 282 282 282 281 281 280 280 279 279 278 277 277 277 275 275 276 276 275
307 305 305 304 301 299 296 296 296 295 293 291 290 288 287 286 285 285 284 285 285 284 284 283 283 282 282 281 281 281 280 280 279 279 278 278 277 276 274 274 274 274 273 273
304 301 298 298 297 296 295 295 294 294 293 291 289 289 287 286 285 284 284 283 284 283 282 282 282 282 281 280 280 279 279 278 278 278 277 277 276 276 276 275 274 273 272 272
298 297 296 296 295 293 292 292 292 292 291 290 289 288 287 286 284 284 283 284 283 282 282 281 281 280 280 279 279 278 278 277 277 277 276 276 275 275 275 275 275 275 274 272
296 296 297 295 293 292 291 290 290 290 289 289 288 287 286 285 284 283 283 283 282 282 281 281 280 279 279 279 278 278 277 277 277 276 275 275 275 275 275 275 275 275 274 272
295 295 294 293 292 291 290 290 290 289 288 288 287 286 285 284 283 282 282 282 282 281 280 279 279 279 278 278 277 277 277 276 276 276 275 275 275 274 274 274 274 273 272 270
294 294 293 293 291 290 290 290 289 288 288 287 286 285 283 282 281 281 281 281 281 280 280 279 278 278 277 277 276 276 276 275 275 275 274 274 273 273 272 272 272 272 271 270
295 295 294 293 291 290 290 289 289 288 287 286 284 284 284 283 281 282 281 280 280 279 279 278 277 277 277 276 276 276 275 275 274 274 273 273 272 271 271 271 270 270 269 269
294 294 293 292 291 290 289 288 287 286 285 285 286 286 285 283 282 281 280 279 279 279 278 277 277 276 276 276 276 275 275 274 273 273 273 272 272 272 271 270 269 269 268 268
292 292 291 290 290 289 288 287 286 286 287 287 286 285 284 281 280 279 279 278 278 278 277 277 276 276 275 275 275 274 274 273 273 273 272 272 272 271 271 270 270 269 269 269
292 291 291 290 289 289 288 288 288 287 287 286 286 285 283 281 280 279 278 278 278 277 276 276 276 275 275 275 274 274 273 273 273 272 272 272 271 271 270 270 269 269 269 269
292 291 290 290 289 288 288 288 288 288 287 286 285 285 283 280 279 278 277 277 277 276 276 276 276 275 275 274 274 273 273 273 272 272 271 271 271 270 270 270 269 269 269 269
291 291 290 289 289 289 288 288 287 287 287 286 285 284 284 282 279 278 277 277 277 276 276 276 276 275 274 274 273 273 272 272 272 271 271 271 270 270 270 269 269 269 269 269
291 291 290 289 289 289 288 287 287 286 286 285 285 284 284 281 277 277 277 277 276 276 276 276 275 275 274 273 273 272 272 272 271 271 271 270 270 270 269 269 269 269 269 269
291 291 290 290 289 288 288 288 286 286 285 285 284 283 283 280 278 278 278 277 276 276 276 276 275 274 274 273 272 272 272 271 271 270 270 270 270 269 269 269 269 269 269 269
291 291 290 290 287 287 288 288 286 286 285 284 283 283 282 278 278 278 278 278 276 276 276 276 275 274 274 273 272 272 271 271 270 270 270 270 269 269 269 269 269 269 269 268
290 290 290 289 289 288 288 288 286 285 285 284 284 282 279 278 278 278 279 278 277 277 276 275 275 274 273 272 272 271 271 270 270 270 270 269 269 269 269 268 268 268 268 268